Date StartTime U_cm/s V_cm/s W_cm/s Ustd_cm/s Vstd_cm/s Wstd_cm/s Uvar_(cm/s)^2 Vvar_(cm/s)^2 Wvar_(cm/s)^2 KE_(m/s)^2 TurbulentKE_(m/s)^2 HorizWindSpeed_cm/s FrictionSpeec_cm/s DragCoef SpeedOfSound_m/s SonicTemperature_C Pressure_mb 
12/07/2014  00:00:00      -30.565      -22.038        4.827       35.425       34.659       21.034     1254.900     1201.225      442.416        0.217        0.145       37.681       18.979        0.254      335.303        5.845      868.075
12/07/2014  00:01:00      -63.623       -5.336       -3.632       27.421       24.990       21.466      751.894      624.505      460.786        0.296        0.092       63.846       19.306        0.091      335.265        5.783      868.075
12/07/2014  00:02:00      -65.329      -25.885       -5.232       25.635       23.244       15.379      657.139      540.294      236.529        0.320        0.072       70.271       13.109        0.035      335.271        5.794      868.060
12/07/2014  00:03:00      -62.017       -9.951       -9.882       15.057       17.660       10.995      226.700      311.860      120.885        0.235        0.033       62.810        5.621        0.008      335.191        5.662      868.035
12/07/2014  00:04:00      -39.971      -21.998       -4.857       22.121       12.498       15.758      489.322      156.205      248.327        0.150        0.045       45.624       15.477        0.115      335.275        5.799      868.015
12/07/2014  00:05:00      -40.168       -5.307       -6.477       12.911       12.365       10.298      166.701      152.894      106.051        0.105        0.021       40.517        8.668        0.046      335.374        5.964      868.001
12/07/2014  00:06:00      -48.570      -14.241       -3.337       17.350       15.494       10.418      301.021      240.076      108.536        0.161        0.032       50.615        7.097        0.020      335.295        5.833      867.992
12/07/2014  00:07:00      -65.165      -16.822       -3.293       20.057       27.041       12.134      402.295      731.205      147.226        0.291        0.064       67.301        9.318        0.019      335.220        5.707      867.981
12/07/2014  00:08:00      -82.137      -18.543       -2.398       24.513       26.888       13.160      600.898      722.950      173.189        0.430        0.075       84.204       10.681        0.016      335.209        5.691      867.980
12/07/2014  00:09:00      -62.053      -17.088       -6.033       18.123       14.941        9.090      328.438      223.235       82.628        0.241        0.032       64.363        7.118        0.012      335.202        5.678      868.000
12/07/2014  00:10:00      -25.854      -25.976        1.128       14.845       11.153        9.679      220.368      124.386       93.685        0.089        0.022       36.649        6.255        0.029      335.213        5.696      868.015
12/07/2014  00:11:00      -42.523      -24.905       -3.535       10.123       11.882        7.274      102.476      141.181       52.904        0.137        0.015       49.279        5.216        0.011      335.269        5.789      868.025
12/07/2014  00:12:00      -65.339      -32.274       -4.353       11.371       12.762       10.573      129.306      162.859      111.788        0.287        0.020       72.875        7.728        0.011      335.270        5.790      868.030
12/07/2014  00:13:00      -65.913      -36.302      -12.908       12.573       10.740        8.893      158.090      115.337       79.087        0.309        0.018       75.249        3.328        0.002      335.287        5.818      868.034
12/07/2014  00:14:00      -66.889      -27.666       -7.272       11.015       13.289        9.418      121.341      176.609       88.700        0.284        0.019       72.385        7.569        0.011      335.353        5.928      868.025
12/07/2014  00:15:00      -62.797      -41.071       -8.213       12.031       13.087        6.553      144.754      171.262       42.942        0.303        0.018       75.035        6.522        0.008      335.400        6.007      868.013
12/07/2014  00:16:00      -30.868      -41.726        2.368       19.293       14.992       10.892      372.215      224.763      118.637        0.171        0.036       51.903       10.715        0.043      335.487        6.153      867.996
12/07/2014  00:17:00        3.959      -34.666       10.214       15.459       16.459        9.461      238.979      270.907       89.515        0.096        0.030       34.892        6.290        0.032      335.572        6.294      867.982
12/07/2014  00:18:00        6.675       -2.487       11.390        8.711        7.798        7.047       75.887       60.814       49.665        0.018        0.009        7.123        3.195        0.201      335.452        6.096      867.982
12/07/2014  00:19:00       -9.365        1.578       14.129       12.649       16.288        5.531      159.997      265.310       30.591        0.037        0.023        9.497        3.279        0.119      335.512        6.195      867.978
12/07/2014  00:20:00      -21.355      -24.353        0.441       15.823        7.766        5.454      250.357       60.311       29.746        0.069        0.017       32.390        2.300        0.005      335.652        6.429      867.965
12/07/2014  00:21:00      -41.172      -16.513       -6.551        7.631        5.842        3.793       58.235       34.132       14.388        0.106        0.005       44.360        3.173        0.005      335.409        6.024      867.958
12/07/2014  00:22:00      -33.584      -13.322       -3.004        8.036        4.616        3.641       64.581       21.306       13.255        0.071        0.005       36.129        3.271        0.008      335.378        5.971      867.946
12/07/2014  00:23:00      -25.970       -3.240       -3.679        5.150        4.511        3.903       26.520       20.348       15.232        0.038        0.003       26.172        3.255        0.015      335.411        6.028      867.952
12/07/2014  00:24:00      -18.175       -7.791       -4.120        3.548        3.286        2.924       12.585       10.799        8.550        0.022        0.002       19.775        1.859        0.009      335.573        6.295      867.951
12/07/2014  00:25:00      -32.923      -11.080       -4.447        7.056        5.466        3.176       49.784       29.878       10.089        0.066        0.004       34.737        2.097        0.004      335.515        6.198      867.955
12/07/2014  00:26:00      -46.246       -9.676       -6.682        7.948        6.244        6.073       63.171       38.984       36.883        0.121        0.007       47.247        3.958        0.007      335.452        6.092      867.952
12/07/2014  00:27:00      -47.937      -25.640       -4.537       10.555        8.338        4.505      111.404       69.527       20.293        0.159        0.010       54.364        4.143        0.006      335.372        5.960      867.952
12/07/2014  00:28:00      -38.947      -22.402       -2.827        9.465        8.395        6.176       89.578       70.468       38.148        0.111        0.010       44.930        4.451        0.010      335.335        5.897      867.942
12/07/2014  00:29:00      -65.823      -25.450       -6.041        7.416        7.714        5.357       54.995       59.512       28.702        0.258        0.007       70.572        4.136        0.003      335.305        5.849      867.935
12/07/2014  00:30:00      -51.902      -38.614      -12.052       23.308       13.523       14.690      543.244      182.875      215.809        0.264        0.047       64.690       13.468        0.043      335.267        5.785      867.922
12/07/2014  00:31:00      -73.500      -45.548       -2.623       34.780       25.802       14.249     1209.645      665.735      203.039        0.478        0.104       86.469       12.045        0.019      335.216        5.702      867.910
12/07/2014  00:32:00      -81.661      -15.009       -7.846       14.591        9.948        6.609      212.912       98.970       43.680        0.366        0.018       83.029        5.274        0.004      335.247        5.753      867.894
12/07/2014  00:33:00      -80.947       -9.219      -15.137        6.740        5.535        4.872       45.432       30.639       23.734        0.348        0.005       81.471        2.676        0.001      335.422        6.045      867.890
12/07/2014  00:34:00      -56.068      -24.946       -8.377       21.903       13.897        7.305      479.738      193.114       53.362        0.228        0.036       61.368        8.316        0.018      335.383        5.980      867.885
12/07/2014  00:35:00      -25.772      -31.672       -2.252       18.688       11.336        8.719      349.229      128.495       76.016        0.111        0.028       40.833        7.191        0.031      335.326        5.883      867.888
12/07/2014  00:36:00      -80.430      -30.915       -6.990       18.437       13.920       11.205      339.926      193.765      125.553        0.407        0.033       86.167       10.196        0.014      335.252        5.762      867.894
12/07/2014  00:37:00      -92.839      -36.804       -2.013       24.649       21.407       13.425      607.591      458.258      180.234        0.561        0.062       99.868       12.688        0.016      335.156        5.602      867.898
12/07/2014  00:38:00      -97.711      -27.303       -1.785       32.933       22.012       17.647     1084.606      484.542      311.423        0.609        0.094      101.454       18.510        0.033      335.073        5.465      867.900
12/07/2014  00:39:00      -99.873      -17.015      -12.528       21.583       14.238       15.098      465.837      202.710      227.942        0.566        0.045      101.312       12.035        0.014      335.043        5.416      867.894
12/07/2014  00:40:00      -84.775        1.850      -11.240       12.717        6.706        5.605      161.734       44.977       31.420        0.378        0.012       84.796        3.611        0.002      335.167        5.620      867.879
12/07/2014  00:41:00      -66.873       -5.729      -10.290        6.811        6.053        3.934       46.388       36.635       15.480        0.235        0.005       67.118        2.130        0.001      335.396        6.002      867.861
12/07/2014  00:42:00      -29.279      -14.669       -1.529       20.484        6.476        7.460      419.585       41.933       55.654        0.080        0.026       32.748       10.892        0.111      335.354        5.931      867.863
12/07/2014  00:43:00      -65.933      -30.587       -5.148       22.492        9.173        9.465      505.901       84.150       89.582        0.299        0.034       72.683        8.212        0.013      335.216        5.702      867.882
12/07/2014  00:44:00      -92.121      -34.967       -7.633       11.568        6.227        5.455      133.823       38.775       29.760        0.498        0.010       98.534        3.564        0.001      335.123        5.546      867.898
12/07/2014  00:45:00     -111.293      -55.730       -8.569       13.438       13.183        8.267      180.569      173.786       68.349        0.799        0.021      124.467        4.512        0.001      335.143        5.581      867.890
12/07/2014  00:46:00     -107.716      -37.072       -8.871       18.781       17.823       10.578      352.739      317.647      111.886        0.692        0.039      113.917        9.118        0.006      334.999        5.343      867.881
12/07/2014  00:47:00      -77.861      -26.311        1.184       28.886       25.863       15.857      834.413      668.877      251.446        0.425        0.088       82.186       18.856        0.053      334.794        5.002      867.875
12/07/2014  00:48:00      -59.217      -20.144        2.800       20.345       15.374       10.872      413.907      236.365      118.194        0.234        0.038       62.549        9.337        0.022      334.771        4.963      867.886
12/07/2014  00:49:00      -76.428      -30.094        0.297       19.606       12.959       11.251      384.378      167.947      126.591        0.371        0.034       82.139       10.926        0.018      334.919        5.209      867.896
12/07/2014  00:50:00      -91.102      -24.697       -4.367       20.652       12.213       11.131      426.489      149.162      123.890        0.481        0.035       94.390        9.721        0.011      334.913        5.200      867.926
12/07/2014  00:51:00      -76.501      -24.087       -5.298       21.066       15.336       13.028      443.778      235.192      169.726        0.365        0.042       80.203       11.714        0.021      334.916        5.205      867.947
12/07/2014  00:52:00      -82.738      -32.826       -0.518       19.521       16.083       11.880      381.061      258.655      141.143        0.435        0.039       89.012       12.294        0.019      334.917        5.206      867.952
12/07/2014  00:53:00      -81.909      -30.690       -2.980       18.057       18.170       10.671      326.047      330.159      113.876        0.421        0.039       87.470        9.165        0.011      334.908        5.191      867.956
12/07/2014  00:54:00     -111.668      -27.692       -8.786       16.267       14.769       11.524      264.629      218.121      132.794        0.696        0.031      115.051        9.328        0.007      334.798        5.008      867.959
12/07/2014  00:55:00      -95.432      -30.247       -2.403       27.429       18.871       15.199      752.349      356.124      230.998        0.568        0.067      100.110       14.977        0.022      334.748        4.925      867.955
12/07/2014  00:56:00     -104.531      -26.035       -5.225       15.846       18.104       10.580      251.108      327.750      111.943        0.616        0.035      107.724        5.377        0.002      334.688        4.825      867.967
12/07/2014  00:57:00     -104.896      -26.650      -11.782       26.486       25.503       14.453      701.510      650.424      208.888        0.671        0.078      108.229        9.993        0.009      334.668        4.790      867.981
12/07/2014  00:58:00      -82.675      -11.090        4.375       53.210       30.979       29.263     2831.344      959.717      856.342        0.581        0.232       83.416       31.668        0.144      334.670        4.796      867.990
12/07/2014  00:59:00     -105.969       -0.016       -1.086       42.645       33.012       26.294     1818.604     1089.819      691.392        0.741        0.180      105.969       21.142        0.040      334.654        4.768      868.009
12/07/2014  01:00:00      -87.060      -17.060        4.847       65.857       33.454       25.876     4337.086     1119.140      669.548        0.701        0.306       88.716       35.170        0.157      334.709        4.861      868.036
12/07/2014  01:01:00      -89.158      -25.262        2.661       37.007       38.714       25.907     1369.505     1498.748      671.151        0.607        0.177       92.668       21.443        0.054      334.694        4.834      868.067
12/07/2014  01:02:00     -109.761      -31.266       -1.355       40.480       36.087       22.633     1638.593     1302.293      512.249        0.824        0.173      114.127       22.411        0.039      334.726        4.889      868.096
12/07/2014  01:03:00     -126.663      -11.860      -15.170       34.379       16.065       16.173     1181.912      258.080      261.556        0.906        0.085      127.217       16.259        0.016      334.788        4.991      868.105
12/07/2014  01:04:00     -110.260      -27.132      -13.301       15.815       14.352        9.380      250.108      205.989       87.979        0.681        0.027      113.549        8.176        0.005      334.733        4.901      868.098
12/07/2014  01:05:00      -82.403      -37.542      -11.632       16.941       16.225       12.414      286.996      263.254      154.113        0.452        0.035       90.552        7.355        0.007      334.728        4.891      868.087
12/07/2014  01:06:00      -63.006      -15.008      -13.958       27.431       15.695       10.689      752.443      246.320      114.250        0.275        0.056       64.769       11.546        0.032      334.698        4.843      868.075
12/07/2014  01:07:00      -43.128      -29.267       -5.676       20.311       17.142       12.004      412.552      293.835      144.106        0.180        0.043       52.121        8.780        0.028      334.715        4.871      868.072
12/07/2014  01:08:00      -89.290      -17.100      -10.752       16.650       19.712        9.223      277.215      388.553       85.065        0.457        0.038       90.913        5.888        0.004      334.745        4.919      868.056
12/07/2014  01:09:00      -87.212       -1.019      -13.528       13.324       16.336       13.690      177.519      266.857      187.409        0.421        0.032       87.218        6.536        0.006      334.720        4.877      868.049
12/07/2014  01:10:00      -90.133       -4.056      -15.997       28.234       18.382       11.756      797.177      337.889      138.213        0.483        0.064       90.224        9.070        0.010      334.699        4.845      868.037
12/07/2014  01:11:00      -67.049        3.518       -8.125       48.906       28.390       18.470     2391.800      805.989      341.127        0.406        0.177       67.141       19.863        0.088      334.695        4.838      868.046
12/07/2014  01:12:00      -63.894      -10.184      -10.589       23.848       14.772       12.671      568.722      218.226      160.545        0.262        0.047       64.701        2.985        0.002      334.741        4.915      868.055
12/07/2014  01:13:00      -57.476      -16.879      -15.907       23.781       12.525       13.539      565.548      156.884      183.295        0.237        0.045       59.904       13.059        0.048      334.733        4.901      868.061
12/07/2014  01:14:00      -69.437      -37.922      -29.586       15.182       18.720       11.675      230.508      350.456      136.310        0.393        0.036       79.117        7.793        0.010      334.732        4.898      868.073
12/07/2014  01:15:00      -48.222      -24.838       -7.100       26.551       20.754       21.330      704.979      430.733      454.980        0.229        0.080       54.243       14.971        0.076      334.669        4.796      868.104
12/07/2014  01:16:00      -21.360      -25.014        2.783       33.579       17.434       16.618     1127.564      303.939      276.167        0.140        0.085       32.893       14.575        0.196      334.634        4.735      868.124
12/07/2014  01:17:00      -47.208      -34.244       -2.861       41.841       20.302       20.025     1750.674      412.176      400.996        0.299        0.128       58.320       24.426        0.175      334.580        4.648      868.130
12/07/2014  01:18:00      -92.611      -56.751       -3.534       35.743       31.591       22.536     1277.586      997.997      507.884        0.730        0.139      108.616       19.707        0.033      334.605        4.687      868.146
12/07/2014  01:19:00     -123.083      -38.997      -12.327       30.879       26.268       18.393      953.484      690.000      338.305        0.940        0.099      129.113        7.751        0.004      334.611        4.699      868.171
12/07/2014  01:20:00      -96.830      -20.903        0.065       37.770       31.111       21.124     1426.565      967.865      446.204        0.633        0.142       99.060       19.189        0.038      334.519        4.545      868.193
12/07/2014  01:21:00      -57.903       -9.193        6.678       65.334       41.244       24.956     4268.561     1701.044      622.782        0.504        0.330       58.628       31.890        0.296      334.584        4.654      868.202
12/07/2014  01:22:00     -111.274       34.433       -6.757       68.418       36.768       32.505     4681.075     1351.904     1056.605        1.035        0.354      116.479       33.215        0.081      334.620        4.711      868.205
12/07/2014  01:23:00     -146.052       40.371      -16.399       58.649       31.487       22.435     3439.680      991.418      503.312        1.408        0.247      151.529       10.523        0.005      334.680        4.812      868.202
12/07/2014  01:24:00     -132.787       40.068      -13.829       46.880       32.287       19.914     2197.700     1042.424      396.575        1.153        0.182      138.701       18.980        0.019      334.640        4.746      868.210
12/07/2014  01:25:00     -126.608       17.503      -14.266       36.491       29.641       19.926     1331.564      878.578      397.062        0.957        0.130      127.812       15.396        0.015      334.618        4.708      868.220
12/07/2014  01:26:00      -65.592      -11.346       -4.038       30.894       34.786       19.709      954.421     1210.100      388.445        0.350        0.128       66.566       18.239        0.075      334.603        4.684      868.231
12/07/2014  01:27:00      -97.096      -48.760       -5.100       44.762       42.563       18.435     2003.681     1811.588      339.836        0.799        0.208      108.651       19.171        0.031      334.588        4.660      868.244
12/07/2014  01:28:00      -86.903      -43.530       -3.224       31.369       35.742       19.448      984.041     1277.524      378.238        0.605        0.132       97.196       10.742        0.012      334.600        4.679      868.246
12/07/2014  01:29:00      -92.101      -48.006      -11.554       27.497       28.930       17.394      756.062      836.959      302.558        0.641        0.095      103.861        9.368        0.008      334.609        4.693      868.246
12/07/2014  01:30:00      -57.643      -36.653       -8.612       36.564       20.535       13.988     1336.942      421.700      195.662        0.335        0.098       68.309       16.926        0.061      334.611        4.697      868.243
12/07/2014  01:31:00      -85.132      -19.097      -10.746       26.664       27.193       14.243      710.946      739.438      202.853        0.469        0.083       87.248       10.372        0.014      334.563        4.618      868.231
12/07/2014  01:32:00      -74.923      -21.584       -3.558       19.881       22.038       15.270      395.253      485.670      233.175        0.360        0.056       77.970       10.738        0.019      334.499        4.513      868.210
12/07/2014  01:33:00      -31.187        4.408       -8.315       35.089       32.758       15.253     1231.238     1073.071      232.643        0.180        0.127       31.497       12.782        0.165      334.591        4.664      868.198
12/07/2014  01:34:00      -44.426       -4.868       -4.808       41.950       32.317       26.997     1759.832     1044.360      728.839        0.278        0.177       44.692       25.270        0.320      334.633        4.736      868.203
12/07/2014  01:35:00      -79.112       -5.865       -7.857       42.955       40.792       30.412     1845.123     1664.011      924.894        0.539        0.222       79.330       21.879        0.076      334.663        4.784      868.217
12/07/2014  01:36:00      -77.277        3.313      -14.347       40.834       35.109       22.922     1667.421     1232.667      525.415        0.481        0.171       77.348       17.229        0.050      334.697        4.840      868.225
12/07/2014  01:37:00     -112.814       11.584      -20.998       47.197       31.076       24.063     2227.598      965.708      579.008        0.854        0.189      113.407       21.168        0.035      334.726        4.886      868.232
12/07/2014  01:38:00     -133.329       15.517      -16.800       42.394       33.219       22.411     1797.260     1103.535      502.244        1.085        0.170      134.229       15.430        0.013      334.579        4.644      868.238
12/07/2014  01:39:00     -108.423        6.967      -18.586       50.888       32.556       21.098     2589.593     1059.870      445.123        0.812        0.205      108.647       13.549        0.016      334.538        4.576      868.241
12/07/2014  01:40:00      -84.319       34.797      -22.082       31.722       33.992       23.758     1006.296     1155.471      564.455        0.577        0.136       91.217       13.069        0.021      334.611        4.696      868.251
12/07/2014  01:41:00      -64.602       48.547      -13.774       40.381       35.364       24.865     1630.657     1250.646      618.273        0.511        0.175       80.810       18.911        0.055      334.848        5.091      868.262
12/07/2014  01:42:00      -50.015       33.620       -5.654       25.131       25.788       21.834      631.543      665.044      476.709        0.272        0.089       60.264       15.106        0.063      334.767        4.956      868.273
12/07/2014  01:43:00      -39.343       -8.545        1.954       24.046       22.720       14.400      578.228      516.186      207.352        0.146        0.065       40.261       13.136        0.106      334.676        4.805      868.287
12/07/2014  01:44:00     -102.126      -21.654      -11.832       19.281       26.540       15.193      371.770      704.369      230.838        0.617        0.065      104.397       10.259        0.010      334.627        4.724      868.310
12/07/2014  01:45:00      -97.469      -40.600      -11.349       22.536       23.894       18.343      507.889      570.936      336.453        0.635        0.071      105.587       11.528        0.012      334.560        4.612      868.341
12/07/2014  01:46:00      -96.881      -21.412      -15.121       21.078       21.396       16.135      444.294      457.809      260.323        0.562        0.058       99.219        6.671        0.005      334.496        4.507      868.359
12/07/2014  01:47:00      -90.207       -5.309      -10.874       29.345       28.752       16.163      861.111      826.691      261.231        0.512        0.097       90.363       10.881        0.014      334.496        4.507      868.376
12/07/2014  01:48:00      -43.920      -17.344       -3.562       28.329       13.307       13.502      802.518      177.089      182.304        0.170        0.058       47.220        9.927        0.044      334.516        4.541      868.382
12/07/2014  01:49:00        4.676      -15.545       -3.982       16.104       12.515        9.386      259.330      156.614       88.099        0.039        0.025       16.233        8.736        0.290      334.648        4.761      868.392
12/07/2014  01:50:00       15.081      -29.041      -10.133       13.134       17.472       11.999      172.497      305.277      143.974        0.090        0.031       32.723        7.730        0.056      334.770        4.962      868.396
12/07/2014  01:51:00      -40.095      -13.941        7.221       22.643       14.665       14.213      512.716      215.062      202.006        0.139        0.046       42.449        6.859        0.026      334.608        4.693      868.402
12/07/2014  01:52:00      -74.795      -24.040      -10.110       17.014       17.600       10.924      289.468      309.768      119.339        0.350        0.036       78.563        4.993        0.004      334.563        4.619      868.401
12/07/2014  01:53:00      -62.309      -29.132      -17.806       10.291       16.910       10.808      105.899      285.959      116.805        0.278        0.025       68.783        7.619        0.012      334.535        4.571      868.399
12/07/2014  01:54:00     -106.881      -31.471      -14.364       26.227       18.005        9.870      687.859      324.175       97.409        0.686        0.055      111.418        2.913        0.001      334.455        4.440      868.402
12/07/2014  01:55:00      -95.730      -39.773      -11.519       16.907       22.244       12.497      285.837      494.776      156.178        0.591        0.047      103.663        6.487        0.004      334.421        4.385      868.394
12/07/2014  01:56:00      -71.489      -26.212       -8.621       25.649       21.369       17.018      657.849      456.632      289.603        0.364        0.070       76.142       15.491        0.041      334.401        4.350      868.390
12/07/2014  01:57:00      -95.169        8.752      -11.498       36.685       28.377       13.537     1345.800      805.280      183.247        0.580        0.117       95.571       18.047        0.036      334.360        4.283      868.389
12/07/2014  01:58:00     -107.794       10.235      -11.701       14.504       13.645       11.610      210.368      186.193      134.796        0.620        0.027      108.278        6.881        0.004      334.382        4.318      868.392
12/07/2014  01:59:00      -61.383      -17.649       -7.386       19.403       16.981       10.941      376.480      288.347      119.715        0.246        0.039       63.869        4.643        0.005      334.401        4.349      868.403
12/07/2014  02:00:00      -77.095      -36.492       -7.764       10.204        9.722        7.940      104.127       94.513       63.045        0.380        0.013       85.295        2.179        0.001      334.385        4.324      868.417
12/07/2014  02:01:00      -89.506      -22.978       -9.587       10.920       11.110        7.637      119.257      123.435       58.328        0.447        0.015       92.408        7.267        0.006      334.385        4.323      868.426
12/07/2014  02:02:00      -67.070      -25.676       -6.783        8.306        9.466        7.367       68.986       89.608       54.274        0.271        0.011       71.817        5.049        0.005      334.431        4.400      868.432
12/07/2014  02:03:00      -61.458      -18.006      -10.973        6.308        7.820        6.332       39.789       61.153       40.100        0.218        0.007       64.042        4.424        0.005      334.457        4.442      868.438
12/07/2014  02:04:00      -63.714      -10.605       -7.521        8.147        9.054        5.219       66.367       81.967       27.235        0.220        0.009       64.591        2.710        0.002      334.443        4.419      868.439
12/07/2014  02:05:00      -73.700      -13.973      -10.686        5.109        6.442        4.879       26.104       41.502       23.802        0.292        0.005       75.013        2.497        0.001      334.466        4.458      868.446
12/07/2014  02:06:00      -68.833       -7.586       -9.599        9.544        8.795        6.051       91.095       77.357       36.616        0.255        0.010       69.250        3.470        0.003      334.500        4.514      868.458
12/07/2014  02:07:00      -89.214        0.722      -11.300       14.455        6.801        6.990      208.947       46.249       48.854        0.420        0.015       89.217        6.582        0.005      334.494        4.504      868.460
12/07/2014  02:08:00      -82.550       -0.512      -13.267        6.534        4.189        6.159       42.694       17.548       37.937        0.354        0.005       82.551        3.546        0.002      334.524        4.553      868.464
12/07/2014  02:09:00      -90.031       -1.406      -10.784       14.032       10.366        9.553      196.910      107.455       91.258        0.431        0.020       90.042        6.618        0.005      334.493        4.503      868.458
12/07/2014  02:10:00      -99.241       -4.130      -12.285       16.741       11.594       11.799      280.244      134.424      139.207        0.529        0.028       99.327        9.365        0.009      334.507        4.526      868.456
12/07/2014  02:11:00     -111.289      -10.211      -16.045       12.751       14.024        9.240      162.591      196.686       85.377        0.660        0.022      111.757        7.314        0.004      334.403        4.353      868.459
12/07/2014  02:12:00     -108.436      -25.095      -12.658       21.327       14.410       10.685      454.838      207.649      114.160        0.666        0.039      111.301        8.324        0.006      334.361        4.285      868.459
12/07/2014  02:13:00      -83.302      -34.979      -11.599       16.169       14.635       11.074      261.444      214.196      122.641        0.445        0.030       90.348        9.170        0.010      334.359        4.281      868.460
12/07/2014  02:14:00      -79.081      -30.905       -6.560       15.515       18.114       10.561      240.706      328.110      111.532        0.397        0.034       84.906        7.140        0.007      334.396        4.342      868.458
12/07/2014  02:15:00     -105.934      -14.064      -13.839       15.519       10.727        9.061      240.831      115.074       82.103        0.602        0.022      106.863        5.465        0.003      334.467        4.460      868.458
12/07/2014  02:16:00     -108.884      -27.050      -14.723       14.153        9.697       10.023      200.295       94.034      100.464        0.660        0.020      112.193        6.396        0.003      334.494        4.504      868.470
12/07/2014  02:17:00     -103.375      -21.779      -17.005       13.253       12.083       11.750      175.629      145.998      138.073        0.595        0.023      105.644        8.768        0.007      334.448        4.429      868.476
12/07/2014  02:18:00     -110.149      -11.877      -19.694        6.895        8.556        7.416       47.545       73.197       55.004        0.642        0.009      110.787        4.543        0.002      334.500        4.514      868.482
12/07/2014  02:19:00      -92.340       -9.896      -12.969       21.860       10.287       12.527      477.877      105.827      156.932        0.477        0.037       92.869       13.006        0.020      334.455        4.439      868.487
12/07/2014  02:20:00     -117.175      -16.548      -14.861        9.919       10.897        8.863       98.380      118.742       78.559        0.726        0.015      118.338        5.459        0.002      334.419        4.380      868.486
12/07/2014  02:21:00     -117.691      -31.115      -12.424       11.359       10.356        9.818      129.021      107.252       96.386        0.765        0.017      121.735        5.315        0.002      334.447        4.425      868.482
12/07/2014  02:22:00     -116.020      -29.189      -17.416       12.731        8.793        7.651      162.086       77.314       58.543        0.746        0.015      119.635        6.574        0.003      334.438        4.410      868.484
12/07/2014  02:23:00     -105.504      -25.371      -14.360        8.598        6.659        8.662       73.932       44.338       75.022        0.609        0.010      108.512        4.315        0.002      334.440        4.415      868.486
12/07/2014  02:24:00     -106.945      -22.264      -15.629        9.994        8.558        8.024       99.871       73.232       64.382        0.621        0.012      109.238        2.892        0.001      334.495        4.504      868.486
12/07/2014  02:25:00     -110.142      -28.619      -18.651        8.047        8.745        7.090       64.762       76.474       50.263        0.674        0.010      113.799        5.449        0.002      334.470        4.466      868.492
12/07/2014  02:26:00     -121.647      -30.805      -14.121        8.310        7.997        6.310       69.064       63.958       39.818        0.806        0.009      125.487        4.522        0.001      334.428        4.395      868.491
12/07/2014  02:27:00     -116.706      -48.023      -12.544       14.347       11.746       10.335      205.850      137.966      106.805        0.827        0.023      126.201        6.781        0.003      334.446        4.424      868.501
12/07/2014  02:28:00     -123.109      -42.207      -15.801        9.812        9.819        9.386       96.277       96.421       88.094        0.873        0.014      130.143        5.150        0.002      334.406        4.358      868.505
12/07/2014  02:29:00     -103.934      -38.172       -8.042       19.543       15.501       11.798      381.925      240.286      139.187        0.654        0.038      110.722        9.923        0.008      334.397        4.343      868.516
12/07/2014  02:30:00      -97.161      -42.167       -6.823       17.473       12.853       12.069      305.296      165.196      145.661        0.594        0.031      105.916       10.231        0.009      334.393        4.337      868.521
12/07/2014  02:31:00      -89.138      -48.098       -7.438        7.691        9.718        6.920       59.151       94.449       47.887        0.526        0.010      101.286        2.758        0.001      334.372        4.303      868.531
12/07/2014  02:32:00     -105.259      -57.663       -5.175       13.758       12.527       11.483      189.286      156.933      131.863        0.745        0.024      120.018        8.668        0.005      334.378        4.312      868.551
12/07/2014  02:33:00     -104.485      -55.348       -1.048       22.768       19.403       16.399      518.377      376.469      268.922        0.757        0.058      118.239       14.636        0.015      334.319        4.215      868.570
12/07/2014  02:34:00     -114.622      -45.174       -7.986       19.335       21.667       15.454      373.832      469.473      238.812        0.816        0.054      123.202       11.694        0.009      334.288        4.164      868.595
12/07/2014  02:35:00      -77.867      -59.274        0.707       32.643       27.016       17.706     1065.557      729.879      313.502        0.584        0.105       97.861       17.447        0.032      334.288        4.162      868.612
12/07/2014  02:36:00     -103.698      -53.344       -0.716       19.522       23.001       15.478      381.121      529.058      239.566        0.737        0.057      116.614       12.121        0.011      334.332        4.236      868.623
12/07/2014  02:37:00      -93.496      -51.298       -2.473       25.275       20.377       14.149      638.839      415.240      200.187        0.632        0.063      106.644        9.480        0.008      334.335        4.240      868.631
12/07/2014  02:38:00      -81.850      -66.170       -1.259       26.063       23.312       18.214      679.268      543.463      331.754        0.632        0.078      105.251       12.327        0.014      334.329        4.231      868.640
12/07/2014  02:39:00      -83.588      -49.144        2.394       34.556       30.633       19.447     1194.109      938.374      378.191        0.596        0.126       96.964       17.870        0.034      334.302        4.186      868.650
12/07/2014  02:40:00     -108.085      -70.588       -7.061       28.791       21.978       13.700      828.900      483.051      187.690        0.911        0.075      129.093       12.487        0.009      334.337        4.245      868.669
12/07/2014  02:41:00     -115.193      -66.452       -4.960       27.127       16.984       15.417      735.899      288.468      237.681        0.949        0.063      132.986       13.658        0.011      334.397        4.344      868.667
12/07/2014  02:42:00      -98.879      -41.306        2.492       27.917       28.187       18.842      779.339      794.487      355.009        0.671        0.096      107.160       17.830        0.028      334.393        4.338      868.668
12/07/2014  02:43:00      -90.037      -40.914       -0.269       26.040       20.759       12.811      678.067      430.935      164.121        0.553        0.064       98.897       13.359        0.018      334.398        4.345      868.673
12/07/2014  02:44:00      -99.973      -24.067       -7.472       29.441       16.953       17.288      866.752      287.405      298.863        0.604        0.073      102.829       10.224        0.010      334.394        4.339      868.664
12/07/2014  02:45:00     -103.432      -42.609       -3.428       16.488       18.187       10.190      271.866      330.755      103.834        0.662        0.035      111.865        9.892        0.008      334.380        4.316      868.665
12/07/2014  02:46:00     -109.951      -45.438       -9.063       15.813        9.694        8.046      250.056       93.980       64.745        0.732        0.020      118.970        3.385        0.001      334.335        4.240      868.679
12/07/2014  02:47:00      -63.941      -48.613       -6.423       39.008       25.094       18.379     1521.609      629.711      337.773        0.449        0.124       80.322       20.715        0.067      334.304        4.190      868.691
12/07/2014  02:48:00      -31.865        0.965        6.355       36.387       27.618       17.225     1324.011      762.774      296.687        0.172        0.119       31.880       13.890        0.190      334.363        4.287      868.704
12/07/2014  02:49:00      -41.184        2.347       -3.758       31.387       25.421       19.596      985.148      646.240      384.008        0.187        0.101       41.251       13.207        0.102      334.366        4.292      868.715
12/07/2014  02:50:00      -54.502       -0.578       -9.596       26.040       26.740       17.838      678.062      715.040      318.203        0.239        0.086       54.505       10.151        0.035      334.347        4.260      868.720
12/07/2014  02:51:00      -53.658      -12.476       -4.626       34.642       18.059       16.033     1200.072      326.121      257.059        0.242        0.089       55.089       12.281        0.050      334.302        4.185      868.712
12/07/2014  02:52:00      -87.508      -12.413       -3.481       30.849       22.179       14.771      951.656      491.886      218.193        0.474        0.083       88.384       14.986        0.029      334.348        4.261      868.704
12/07/2014  02:53:00     -103.822      -13.319       -8.319       24.107       21.171       16.379      581.132      448.205      268.278        0.616        0.065      104.673       11.964        0.013      334.306        4.192      868.705
12/07/2014  02:54:00      -77.543      -46.217       -9.065       14.844       19.891       15.173      220.348      395.659      230.218        0.454        0.042       90.271       11.359        0.016      334.314        4.204      868.706
12/07/2014  02:55:00      -54.942      -50.816        3.276       32.856       18.595       16.704     1079.528      345.772      279.019        0.366        0.085       74.839       18.064        0.058      334.309        4.199      868.698
12/07/2014  02:56:00      -84.708      -49.634       -6.921       12.525       13.282       10.339      156.879      176.404      106.885        0.506        0.022       98.179        5.898        0.004      334.267        4.126      868.689
12/07/2014  02:57:00      -96.136      -44.175       -9.691       14.158       14.287        8.561      200.452      204.131       73.285        0.588        0.024      105.800        7.332        0.005      334.243        4.088      868.677
12/07/2014  02:58:00     -105.687      -40.949       -8.659       12.985       13.740        9.971      168.619      188.795       99.426        0.669        0.023      113.343        6.922        0.004      334.258        4.113      868.666
12/07/2014  02:59:00      -94.163      -45.705       -9.273       11.345       13.378        9.555      128.720      178.982       91.304        0.572        0.020      104.669        6.595        0.004      334.278        4.145      868.654
12/07/2014  03:00:00      -96.068      -34.218      -11.048       10.291       12.997        8.655      105.908      168.919       74.915        0.544        0.017      101.980        5.859        0.003      334.252        4.104      868.643
12/07/2014  03:01:00      -96.437      -42.700      -11.488        9.877        9.613        9.126       97.550       92.409       83.277        0.576        0.014      105.468        6.229        0.003      334.253        4.105      868.631
12/07/2014  03:02:00      -98.814      -31.801      -16.587       17.348       12.781       12.462      300.960      163.349      155.299        0.584        0.031      103.805        6.325        0.004      334.240        4.081      868.619
12/07/2014  03:03:00      -93.873      -35.096      -13.949       14.504       17.649       12.622      210.356      311.483      159.306        0.546        0.034      100.219        7.720        0.006      334.236        4.075      868.616
12/07/2014  03:04:00      -89.857      -49.890       -5.316       19.774       15.350       13.073      391.022      235.637      170.913        0.569        0.040      102.778       12.562        0.015      334.258        4.112      868.616
12/07/2014  03:05:00      -91.788      -28.857      -12.761       22.439       17.209       14.067      503.516      296.161      197.881        0.521        0.050       96.218       13.885        0.021      334.244        4.088      868.616
12/07/2014  03:06:00      -94.142      -28.418       -4.845       18.557       10.735       13.084      344.355      115.236      171.194        0.516        0.032       98.338       12.102        0.015      334.264        4.123      868.623
12/07/2014  03:07:00      -76.070      -24.046       -6.543       20.885       13.218       15.783      436.192      174.705      249.088        0.363        0.043       79.780       10.849        0.018      334.274        4.140      868.625
12/07/2014  03:08:00      -95.225      -31.068      -10.438       20.630       10.720        9.509      425.590      114.912       90.414        0.539        0.032      100.165       10.434        0.011      334.262        4.119      868.625
12/07/2014  03:09:00      -88.892      -46.545      -10.422       13.956       18.825        9.375      194.765      354.381       87.895        0.541        0.032      100.341        9.469        0.009      334.179        3.981      868.619
12/07/2014  03:10:00      -91.448      -58.027       -5.956       12.434       13.279        8.925      154.605      176.323       79.647        0.609        0.021      108.305        4.924        0.002      334.205        4.024      868.611
12/07/2014  03:11:00     -106.496      -49.069      -13.170       16.671       15.500       11.521      277.907      240.246      132.739        0.729        0.033      117.257        8.135        0.005      334.208        4.030      868.595
12/07/2014  03:12:00     -122.670      -38.263      -16.878       11.238       11.521        8.563      126.293      132.742       73.323        0.856        0.017      128.499        6.176        0.002      334.203        4.021      868.580
12/07/2014  03:13:00     -105.809      -41.250      -15.584       22.421       19.743       17.668      502.720      389.799      312.142        0.717        0.060      113.566       14.747        0.017      334.165        3.959      868.568
12/07/2014  03:14:00     -120.824      -58.684       -8.464       24.346       23.782       16.234      592.751      565.606      263.538        0.977        0.071      134.322       14.072        0.011      334.184        3.988      868.559
12/07/2014  03:15:00     -127.284      -62.631       -4.050       32.054       22.577       19.596     1027.478      509.709      383.998        1.103        0.096      141.858       15.260        0.012      334.143        3.921      868.554
12/07/2014  03:16:00     -151.831      -43.916       -7.560       22.994       19.110       15.599      528.743      365.183      243.331        1.309        0.057      158.055        9.216        0.003      334.143        3.922      868.547
12/07/2014  03:17:00     -109.915      -48.782        3.564       38.272       23.887       17.418     1464.724      570.577      303.398        0.841        0.117      120.253       18.304        0.023      334.188        3.996      868.553
12/07/2014  03:18:00      -85.571      -48.473        2.989       30.750       37.412       16.906      945.570     1399.638      285.828        0.616        0.132       98.347       15.267        0.024      334.217        4.045      868.542
12/07/2014  03:19:00     -101.549      -39.016       -3.845       33.142       23.548       19.981     1098.364      554.513      399.257        0.695        0.103      108.786       17.993        0.027      334.186        3.993      868.538
12/07/2014  03:20:00     -124.906      -63.901      -11.389       22.987       18.021       11.849      528.391      324.748      140.402        1.040        0.050      140.303       10.141        0.005      334.154        3.940      868.535
12/07/2014  03:21:00      -58.334      -50.397        4.495       42.935       30.480       25.110     1843.402      929.018      630.513        0.468        0.170       77.089       22.966        0.089      334.170        3.965      868.539
12/07/2014  03:22:00     -103.162      -52.986       -3.612       20.275       19.365       12.089      411.068      374.996      146.155        0.720        0.047      115.974        8.750        0.006      334.170        3.966      868.537
12/07/2014  03:23:00      -92.066      -49.598        2.502       30.921       23.420       19.619      956.118      548.512      384.912        0.642        0.094      104.576       19.349        0.034      334.135        3.907      868.535
12/07/2014  03:24:00     -113.716      -41.976       -6.458       18.446       23.367       12.963      340.241      546.025      168.034        0.789        0.053      121.216        9.681        0.006      334.173        3.973      868.524
12/07/2014  03:25:00     -109.570      -46.558       -5.208       15.162       19.327       11.095      229.892      373.527      123.091        0.746        0.036      119.051        5.952        0.002      334.202        4.020      868.506
12/07/2014  03:26:00      -68.827      -34.729       -1.466       40.632       25.199       14.279     1650.929      634.991      203.883        0.422        0.124       77.093       10.125        0.017      334.190        4.000      868.499
12/07/2014  03:27:00      -77.751      -35.009       -1.984       34.897       23.333       17.112     1217.820      544.412      292.820        0.466        0.103       85.269       16.943        0.039      334.170        3.966      868.494
12/07/2014  03:28:00      -76.525      -31.241        2.860       31.169       31.216       19.386      971.485      974.424      375.807        0.458        0.116       82.657       20.524        0.062      334.245        4.092      868.492
12/07/2014  03:29:00      -63.921      -32.251        2.146       23.977       23.533       15.382      574.895      553.779      236.618        0.325        0.068       71.596       12.970        0.033      334.242        4.086      868.491
12/07/2014  03:30:00      -18.009      -33.032       10.500       42.987       17.550       21.777     1847.848      308.004      474.236        0.208        0.132       37.622       24.474        0.423      334.355        4.275      868.477
12/07/2014  03:31:00      -20.772      -45.466       12.907       38.384       35.537       25.223     1473.344     1262.878      636.221        0.302        0.169       49.987       28.327        0.321      334.340        4.250      868.470
12/07/2014  03:32:00      -42.728      -40.727        6.697       42.173       21.786       17.922     1778.549      474.608      321.193        0.305        0.129       59.028       14.560        0.061      334.342        4.250      868.458
12/07/2014  03:33:00      -64.724      -42.579        5.251       43.880       21.106       16.052     1925.463      445.460      257.663        0.433        0.131       77.474       20.003        0.067      334.302        4.187      868.440
12/07/2014  03:34:00      -66.388      -44.965        7.437       44.944       25.636       22.093     2019.976      657.209      488.091        0.482        0.158       80.183       20.817        0.067      334.283        4.154      868.427
12/07/2014  03:35:00      -49.858      -47.513        4.300       37.524       30.385       19.535     1408.071      923.276      381.601        0.374        0.136       68.872       14.362        0.043      334.239        4.081      868.416
12/07/2014  03:36:00      -27.925      -27.457        7.406       39.089       27.906       16.508     1527.955      778.729      272.512        0.208        0.129       39.162       16.589        0.179      334.269        4.130      868.412
12/07/2014  03:37:00      -45.642      -46.080        7.413       44.648       32.020       18.086     1993.423     1025.302      327.109        0.380        0.167       64.858       17.548        0.073      334.288        4.163      868.401
12/07/2014  03:38:00      -58.119      -35.923        1.246       45.277       24.251       17.629     2050.043      588.116      310.786        0.381        0.147       68.325       17.215        0.063      334.302        4.186      868.396
12/07/2014  03:39:00      -67.080      -45.406        2.028       31.497       27.789       16.019      992.032      772.225      256.598        0.429        0.101       81.003       12.730        0.025      334.305        4.190      868.377
12/07/2014  03:40:00      -56.960      -21.347        5.036       30.913       19.051       13.489      955.589      362.934      181.940        0.261        0.075       60.829       15.058        0.061      334.293        4.169      868.355
12/07/2014  03:41:00      -48.880      -22.585        4.431       25.903       15.362       13.288      670.958      235.978      176.569        0.200        0.054       53.845       16.679        0.096      334.326        4.226      868.342
12/07/2014  03:42:00      -51.898      -41.971        0.257       27.505       15.940       12.026      756.536      254.098      144.615        0.280        0.058       66.745        7.861        0.014      334.491        4.499      868.335
12/07/2014  03:43:00      -56.530      -21.598        8.313       38.468       22.504       15.108     1479.811      506.418      228.258        0.297        0.111       60.515       18.170        0.090      334.403        4.353      868.333
12/07/2014  03:44:00      -78.595      -41.379       -1.163       27.583       20.128       11.135      760.840      405.152      123.999        0.459        0.064       88.823       11.567        0.017      334.444        4.423      868.335
12/07/2014  03:45:00      -76.413      -44.252        3.489       26.146       25.641       15.285      683.598      657.486      233.646        0.469        0.079       88.302       13.755        0.024      334.388        4.328      868.342
12/07/2014  03:46:00      -46.997      -36.258        5.362       34.615       28.254       13.765     1198.170      798.261      189.463        0.287        0.109       59.358       15.263        0.066      334.460        4.447      868.344
12/07/2014  03:47:00      -26.163      -18.270       10.468       24.792       17.300       12.908      614.648      299.299      166.610        0.110        0.054       31.911       10.922        0.117      334.441        4.417      868.341
12/07/2014  03:48:00      -19.497      -20.227        3.454       28.957       20.333       14.181      838.494      413.446      201.101        0.113        0.073       28.094       13.938        0.246      334.438        4.411      868.330
12/07/2014  03:49:00      -76.110      -37.362       -0.247       25.339       25.753       15.095      642.049      663.220      227.859        0.436        0.077       84.786       13.569        0.026      334.390        4.333      868.314
12/07/2014  03:50:00      -75.571      -40.907        1.339       27.085       18.845       14.798      733.571      355.150      218.977        0.435        0.065       85.932       13.597        0.025      334.428        4.395      868.303
12/07/2014  03:51:00      -72.899      -20.483       -3.320       18.413       18.519       10.390      339.024      342.935      107.949        0.327        0.039       75.722        8.874        0.014      334.402        4.352      868.282
12/07/2014  03:52:00      -66.656      -11.739       -1.601       19.323       15.344       11.274      373.384      235.445      127.107        0.266        0.037       67.682        9.908        0.021      334.364        4.287      868.275
12/07/2014  03:53:00      -72.784      -19.748       -4.457       31.841       13.850        9.635     1013.873      191.816       92.824        0.350        0.065       75.416       12.732        0.029      334.328        4.228      868.262
12/07/2014  03:54:00      -57.751      -22.429        1.444       21.781       20.204       13.526      474.396      408.215      182.954        0.245        0.053       61.954       11.687        0.036      334.297        4.178      868.268
12/07/2014  03:55:00      -57.304      -16.365        4.052       22.093       18.364       11.248      488.110      337.252      126.516        0.226        0.048       59.595        9.807        0.027      334.287        4.161      868.274
12/07/2014  03:56:00      -33.950      -19.961        2.884       17.863       15.410       10.653      319.070      237.481      113.480        0.111        0.034       39.383       10.306        0.068      334.295        4.175      868.276
12/07/2014  03:57:00      -52.640      -12.706       -4.244       15.308       16.206       10.215      234.325      262.644      104.338        0.178        0.030       54.152        8.521        0.025      334.306        4.193      868.276
12/07/2014  03:58:00      -73.848      -26.210       -0.356       25.296       17.296        9.801      639.899      299.135       96.064        0.359        0.052       78.361        8.713        0.012      334.278        4.147      868.273
12/07/2014  03:59:00      -54.087      -45.088       -0.294       38.168       23.715       20.044     1456.813      562.406      401.748        0.369        0.121       70.416       19.514        0.077      334.282        4.152      868.276
12/07/2014  04:00:00      -63.512      -37.915        5.831       34.335       24.354       19.699     1178.910      593.130      388.036        0.383        0.108       73.969       16.803        0.052      334.203        4.020      868.270
12/07/2014  04:01:00      -86.073      -79.794      -11.840       40.798       32.024       20.265     1664.468     1025.557      410.665        0.851        0.155      117.369       18.121        0.024      334.210        4.031      868.277
12/07/2014  04:02:00      -64.236      -70.237       -7.625       37.496       32.388       22.159     1405.937     1048.992      491.024        0.603        0.147       95.182       17.275        0.033      334.148        3.930      868.269
12/07/2014  04:03:00      -79.943      -72.698      -10.662       20.923       25.358       19.269      437.775      643.018      371.293        0.662        0.073      108.055       16.055        0.022      334.210        4.032      868.271
12/07/2014  04:04:00      -62.193      -71.283      -14.431       31.407       27.907       16.827      986.430      778.802      283.164        0.560        0.102       94.601        6.449        0.005      334.235        4.075      868.268
12/07/2014  04:05:00      -78.311      -68.766       -5.591       46.352       36.384       23.829     2148.493     1323.793      567.835        0.747        0.202      104.218       20.289        0.038      334.207        4.029      868.264
12/07/2014  04:06:00      -95.576      -72.316       -7.406       27.455       39.324       19.149      753.768     1546.353      366.698        0.854        0.133      119.851       19.260        0.026      334.220        4.050      868.263
12/07/2014  04:07:00      -87.896      -58.252        2.610       33.815       28.781       21.975     1143.448      828.346      482.916        0.679        0.123      105.446       19.913        0.036      334.230        4.066      868.257
12/07/2014  04:08:00      -83.180      -70.312       -3.909       30.332       32.033       22.380      920.049     1026.120      500.863        0.716        0.122      108.916       18.166        0.028      334.167        3.961      868.255
12/07/2014  04:09:00      -80.091      -72.993      -10.563       20.116       19.351       10.758      404.667      374.450      115.744        0.637        0.045      108.363        9.621        0.008      334.179        3.981      868.254
12/07/2014  04:10:00      -60.573      -43.061       -2.043       18.128       18.951       14.332      328.633      359.152      205.415        0.321        0.045       74.319       10.166        0.019      334.214        4.039      868.245
12/07/2014  04:11:00      -70.921      -57.955       -2.276       22.960       29.795       12.239      527.150      887.722      149.804        0.498        0.078       91.589       12.195        0.018      334.263        4.121      868.247
12/07/2014  04:12:00      -54.879      -46.959       -7.078       24.678       21.105       13.832      609.001      445.422      191.330        0.326        0.062       72.228        6.765        0.009      334.228        4.061      868.253
12/07/2014  04:13:00      -27.944      -38.827        0.658       21.610       25.807       15.071      466.976      665.987      227.127        0.182        0.068       47.837       13.329        0.078      334.201        4.018      868.257
12/07/2014  04:14:00      -39.222      -44.442       -2.145       25.526       22.171       15.013      651.591      491.574      225.404        0.244        0.068       59.274       12.044        0.041      334.151        3.935      868.262
12/07/2014  04:15:00      -60.133      -80.279      -13.571       30.635       35.710       21.988      938.531     1275.223      483.469        0.647        0.135      100.303       22.791        0.052      334.146        3.926      868.257
12/07/2014  04:16:00       -3.720      -33.366       -0.107       15.872       24.259       14.781      251.918      588.495      218.493        0.109        0.053       33.572       15.372        0.210      334.193        4.006      868.260
12/07/2014  04:17:00       -9.842      -36.184        5.785       22.799       20.322       15.161      519.780      412.979      229.860        0.130        0.058       37.499        6.447        0.030      334.155        3.941      868.258
12/07/2014  04:18:00      -61.177      -55.317        2.377       27.269       27.000       20.174      743.625      729.018      406.987        0.434        0.094       82.478       17.412        0.045      334.146        3.926      868.261
12/07/2014  04:19:00      -71.401      -70.630       -7.546       24.090       25.686       17.484      580.313      659.791      305.678        0.584        0.077      100.432       14.812        0.022      334.179        3.981      868.264
12/07/2014  04:20:00      -76.639      -51.179        1.277       52.179       40.978       19.253     2722.607     1679.205      370.684        0.663        0.239       92.156       22.984        0.062      334.163        3.955      868.272
12/07/2014  04:21:00      -56.905      -72.519       12.203       39.482       36.498       29.940     1558.835     1332.076      896.429        0.622        0.189       92.180       28.157        0.093      334.100        3.849      868.272
12/07/2014  04:22:00     -124.246     -109.500       -7.733       44.166       31.985       27.025     1950.625     1023.045      730.355        1.559        0.185      165.612       24.093        0.021      334.020        3.718      868.270
12/07/2014  04:23:00     -117.648     -102.561       -5.351       40.489       39.089       20.957     1639.391     1527.928      439.190        1.400        0.180      156.076       10.965        0.005      334.053        3.773      868.265
12/07/2014  04:24:00     -109.017     -109.875      -10.120       37.693       36.624       27.262     1420.780     1341.321      743.197        1.378        0.175      154.781       19.057        0.015      334.041        3.752      868.258
12/07/2014  04:25:00      -99.009      -91.135       -5.641       24.229       30.633       14.505      587.037      938.359      210.391        0.994        0.087      134.567        8.616        0.004      334.072        3.803      868.241
12/07/2014  04:26:00      -87.501      -80.566       -8.344       16.334       31.178       16.605      266.792      972.088      275.722        0.787        0.076      118.943       14.757        0.015      334.108        3.863      868.228
12/07/2014  04:27:00      -83.653      -37.543      -12.175       17.748       14.279       12.488      315.003      203.890      155.954        0.462        0.034       91.692       11.104        0.015      333.970        3.635      868.224
12/07/2014  04:28:00      -82.534      -19.708       -4.673       17.294       13.644       15.226      299.066      186.149      231.841        0.397        0.036       84.855       13.163        0.024      333.888        3.499      868.214
12/07/2014  04:29:00      -65.128        1.892       -0.506       20.098       18.569       15.582      403.936      344.822      242.807        0.262        0.050       65.156       14.736        0.051      333.872        3.471      868.206
12/07/2014  04:30:00      -68.496        2.783       -3.380        9.652        6.618        6.245       93.169       43.805       39.006        0.244        0.009       68.553        5.037        0.005      333.884        3.492      868.191
12/07/2014  04:31:00      -60.199       13.502       -2.426        7.080        9.548        5.897       50.128       91.168       34.779        0.199        0.009       61.695        3.223        0.003      333.885        3.494      868.178
12/07/2014  04:32:00      -57.468        7.396       -6.406       10.261       10.704        7.694      105.282      114.578       59.193        0.184        0.014       57.942        6.862        0.014      333.975        3.644      868.169
12/07/2014  04:33:00      -63.648        1.670       -6.746       10.285       12.347        9.551      105.776      152.449       91.220        0.222        0.017       63.670        6.703        0.011      333.939        3.583      868.160
12/07/2014  04:34:00      -76.295       -4.556       -3.917       15.952       10.634        8.948      254.468      113.072       80.062        0.315        0.022       76.431        6.950        0.008      333.986        3.662      868.159
12/07/2014  04:35:00      -57.435      -12.948       -2.884       22.939       12.616       11.799      526.210      159.156      139.205        0.215        0.041       58.876        9.544        0.026      333.960        3.621      868.159
12/07/2014  04:36:00      -34.584      -15.744        6.787       20.955       14.516       10.241      439.100      210.702      104.870        0.112        0.038       37.999        9.868        0.067      333.938        3.582      868.145
12/07/2014  04:37:00      -46.309      -20.028        1.938       16.215       15.981        9.767      262.925      255.390       95.386        0.158        0.031       50.454        6.851        0.018      333.956        3.613      868.129
12/07/2014  04:38:00      -55.790      -25.316        3.267       23.429       13.909       14.298      548.909      193.463      204.439        0.236        0.047       61.265       13.569        0.049      334.013        3.704      868.121
12/07/2014  04:39:00      -61.107      -18.523        1.403       13.694       15.710       11.286      187.524      246.802      127.383        0.232        0.028       63.853        7.943        0.015      334.019        3.716      868.121
12/07/2014  04:40:00      -60.263      -23.559       -2.668       17.771       15.973        9.470      315.815      255.135       89.684        0.243        0.033       64.704        3.699        0.003      333.992        3.673      868.130
12/07/2014  04:41:00      -79.016      -25.430       -3.830       19.386       19.280       11.246      375.804      371.710      126.477        0.389        0.044       83.007       10.134        0.015      333.985        3.660      868.141
12/07/2014  04:42:00      -81.839      -29.731      -12.283       13.834       12.409        7.615      191.387      153.975       57.986        0.407        0.020       87.072        4.583        0.003      333.971        3.637      868.156
12/07/2014  04:43:00      -76.119      -16.818       -2.435       18.099       13.783       11.933      327.577      189.964      142.400        0.337        0.033       77.955       11.247        0.021      333.883        3.490      868.172
12/07/2014  04:44:00      -83.018      -15.300       -3.076       20.148       14.831       13.012      405.934      219.949      169.300        0.397        0.040       84.416       12.392        0.022      333.892        3.507      868.180
12/07/2014  04:45:00     -104.206       -7.759      -13.827       11.356       11.682       11.047      128.963      136.462      122.034        0.575        0.019      104.494        6.356        0.004      333.853        3.441      868.194
12/07/2014  04:46:00      -70.487      -18.739       -2.841       28.011       23.903       11.893      784.617      571.334      141.449        0.341        0.075       72.935       11.985        0.027      333.839        3.416      868.209
12/07/2014  04:47:00      -87.677      -32.359        0.166       14.121       17.802        8.323      199.398      316.921       69.275        0.466        0.029       93.458        4.776        0.003      333.823        3.391      868.232
12/07/2014  04:48:00      -87.328      -16.202       -3.637       15.704       16.112       10.096      246.612      259.602      101.934        0.425        0.030       88.818        7.952        0.008      333.799        3.351      868.243
12/07/2014  04:49:00      -81.137       -8.646       -8.508       16.259       10.125        8.531      264.362      102.509       72.774        0.358        0.022       81.596        8.586        0.011      333.782        3.322      868.253
12/07/2014  04:50:00      -88.374      -17.004      -10.184       16.150       14.652       11.310      260.823      214.682      127.916        0.440        0.030       89.995        9.874        0.012      333.773        3.307      868.266
12/07/2014  04:51:00      -77.455      -13.031       -6.962       12.918       12.666        8.817      166.875      160.434       77.740        0.331        0.020       78.544        6.560        0.007      333.732        3.240      868.275
12/07/2014  04:52:00      -52.700      -25.475       -9.007       11.693        7.929        5.599      136.727       62.877       31.352        0.187        0.012       58.534        3.343        0.003      333.785        3.327      868.280
12/07/2014  04:53:00      -46.616      -26.163       -6.172        9.779        8.706        8.628       95.637       75.800       74.445        0.157        0.012       53.456        4.516        0.007      333.811        3.372      868.287
12/07/2014  04:54:00      -40.739      -23.653       -7.349       15.004        9.275        8.844      225.122       86.023       78.220        0.133        0.019       47.107        6.909        0.022      333.822        3.387      868.293
12/07/2014  04:55:00      -49.360      -10.893       -2.676        6.023        7.513        4.904       36.273       56.451       24.049        0.134        0.006       50.548        2.108        0.002      333.782        3.322      868.299
12/07/2014  04:56:00      -38.029      -11.822       -3.848        7.633        8.371        7.594       58.266       70.066       57.666        0.089        0.009       39.824        5.033        0.016      333.788        3.334      868.300
12/07/2014  04:57:00      -33.433       -7.214       -2.187       11.305        8.429        6.657      127.795       71.054       44.309        0.071        0.012       34.203        2.566        0.006      333.823        3.393      868.308
12/07/2014  04:58:00      -49.599      -15.255       -3.311        7.595        8.289        5.937       57.678       68.713       35.247        0.143        0.008       51.892        3.692        0.005      333.842        3.423      868.323
12/07/2014  04:59:00      -38.851      -14.372       -1.367        7.296       10.958        6.018       53.232      120.070       36.211        0.096        0.010       41.424        3.850        0.009      333.818        3.384      868.335
12/07/2014  05:00:00      -45.486        2.564       -5.955       10.214        7.779        7.145      104.324       60.515       51.048        0.116        0.011       45.558        4.205        0.009      333.811        3.372      868.344
12/07/2014  05:01:00      -43.971        6.757       -9.395       12.353        6.247        6.768      152.585       39.026       45.803        0.115        0.012       44.487        4.440        0.010      333.863        3.460      868.351
12/07/2014  05:02:00      -26.037        0.646       -3.530        4.823        4.924        4.212       23.262       24.250       17.743        0.038        0.003       26.045        1.671        0.004      333.887        3.498      868.356
12/07/2014  05:03:00      -16.967        5.840       -4.685       13.353        5.863        7.222      178.313       34.377       52.155        0.030        0.013       17.944        3.435        0.037      333.952        3.604      868.358
12/07/2014  05:04:00      -16.604       -2.180       -2.979       12.107        3.836        5.956      146.587       14.717       35.472        0.024        0.010       16.746        6.676        0.159      333.871        3.470      868.364
12/07/2014  05:05:00      -16.664       -1.908        0.147        6.855        4.612        3.183       46.992       21.275       10.135        0.018        0.004       16.773        2.128        0.016      333.889        3.501      868.369
12/07/2014  05:06:00       -1.488        2.979        4.551        4.258        3.026        5.214       18.130        9.154       27.187        0.004        0.003        3.330        2.291        0.473      333.969        3.633      868.370
12/07/2014  05:07:00       -1.900      -18.578        3.887        5.539       15.147        8.422       30.679      229.429       70.924        0.035        0.017       18.675        6.600        0.125      333.909        3.533      868.378
12/07/2014  05:08:00      -18.687      -24.419       -4.058       11.181       14.532        9.326      125.013      211.191       86.980        0.069        0.021       30.749        7.242        0.055      333.815        3.377      868.373
12/07/2014  05:09:00      -31.985      -17.968       -5.713       12.364        7.821        7.440      152.870       61.171       55.359        0.082        0.013       36.687        4.513        0.015      333.790        3.335      868.373
12/07/2014  05:10:00      -36.376      -13.861       -6.366        6.696        4.561        4.964       44.842       20.798       24.640        0.082        0.005       38.927        2.727        0.005      333.753        3.273      868.367
12/07/2014  05:11:00      -29.017       -5.176       -5.323        4.407        4.644        4.411       19.425       21.570       19.457        0.048        0.003       29.475        3.128        0.011      333.734        3.245      868.360
12/07/2014  05:12:00      -31.079      -11.763       -2.153        4.287        6.292        4.056       18.375       39.585       16.455        0.059        0.004       33.230        2.458        0.005      333.804        3.360      868.354
12/07/2014  05:13:00      -38.339      -12.075       -9.916        6.722        9.870        6.487       45.182       97.411       42.080        0.095        0.009       40.195        4.841        0.015      333.815        3.378      868.359
12/07/2014  05:14:00      -32.749       -6.208       -3.475        5.140        7.891        7.446       26.423       62.261       55.450        0.063        0.007       33.332        4.429        0.018      333.783        3.324      868.355
12/07/2014  05:15:00      -44.578       -2.145       -6.843       10.407        9.290        8.579      108.304       86.296       73.602        0.115        0.013       44.629        4.350        0.010      333.782        3.322      868.353
12/07/2014  05:16:00      -49.928       -7.850       -5.666       12.385       10.140        6.696      153.400      102.826       44.842        0.144        0.015       50.541        6.266        0.015      333.780        3.319      868.360
12/07/2014  05:17:00      -65.016      -10.495       -1.086       14.441       12.358       11.095      208.556      152.718      123.103        0.241        0.024       65.858        7.817        0.014      333.706        3.197      868.368
12/07/2014  05:18:00      -62.925       -9.274       -3.112       12.863       13.456        9.212      165.469      181.068       84.864        0.224        0.022       63.605        7.459        0.014      333.683        3.158      868.389
12/07/2014  05:19:00      -66.855       -2.091       -8.111       11.642        6.680        8.161      135.534       44.624       66.604        0.239        0.012       66.887        3.561        0.003      333.640        3.087      868.407
12/07/2014  05:20:00      -52.816      -13.628       -7.651        7.976       10.860        5.765       63.617      117.932       33.231        0.162        0.011       54.546        3.946        0.005      333.675        3.144      868.420
12/07/2014  05:21:00      -47.734      -11.405       -6.809       10.050        8.001        7.051      101.010       64.009       49.720        0.133        0.011       49.078        3.007        0.004      333.707        3.198      868.427
12/07/2014  05:22:00      -54.945       -7.716       -5.816       11.574        9.762        8.766      133.952       95.306       76.850        0.171        0.015       55.484        6.324        0.013      333.729        3.233      868.436
12/07/2014  05:23:00      -28.524      -17.381       -2.817       23.215        7.790       12.943      538.944       60.677      167.523        0.095        0.038       33.402       12.000        0.129      333.759        3.283      868.445
12/07/2014  05:24:00      -20.223        1.142       -5.719        9.560       14.498        6.598       91.386      210.188       43.536        0.039        0.017       20.255        5.178        0.065      333.733        3.242      868.432
12/07/2014  05:25:00      -32.644        6.173       -3.620        7.884        6.301        5.620       62.156       39.709       31.584        0.063        0.007       33.223        4.391        0.017      333.747        3.265      868.422
12/07/2014  05:26:00      -37.710        0.375       -5.912        8.894        6.799        5.723       79.098       46.224       32.752        0.081        0.008       37.712        1.424        0.001      333.735        3.243      868.407
12/07/2014  05:27:00      -42.776       -3.306       -1.626        7.452        5.750        4.686       55.531       33.066       21.957        0.098        0.006       42.904        2.032        0.002      333.775        3.312      868.401
12/07/2014  05:28:00      -31.372      -11.241        1.612       10.296        7.557        5.077      106.013       57.105       25.778        0.065        0.009       33.325        4.207        0.016      333.805        3.361      868.394
12/07/2014  05:29:00      -29.839      -12.284        1.990        9.165       10.855        6.397       83.997      117.840       40.920        0.064        0.012       32.269        6.085        0.036      333.789        3.335      868.390
12/07/2014  05:30:00      -29.757       -3.524       -7.160       13.312        6.484        7.593      177.211       42.045       57.660        0.061        0.014       29.965        7.587        0.064      333.725        3.227      868.388
12/07/2014  05:31:00       -6.116       -0.210       -2.633        5.254        4.972        4.380       27.601       24.721       19.187        0.006        0.004        6.120        2.607        0.182      333.697        3.182      868.377
12/07/2014  05:32:00      -13.811        0.695       -1.874        7.232        4.282        5.369       52.296       18.339       28.823        0.015        0.005       13.828        3.149        0.052      333.710        3.204      868.362
12/07/2014  05:33:00      -30.254       -1.677       -1.757        4.720        2.839        3.638       22.275        8.060       13.235        0.048        0.002       30.301        1.344        0.002      333.818        3.380      868.359
12/07/2014  05:34:00      -33.384      -16.800       -3.371        9.280        6.309        5.800       86.113       39.807       33.637        0.078        0.008       37.373        4.652        0.015      333.818        3.383      868.360
12/07/2014  05:35:00      -22.337       -7.857        1.053        9.890        8.520        6.384       97.821       72.589       40.756        0.039        0.011       23.679        6.673        0.079      333.784        3.327      868.361
12/07/2014  05:36:00      -20.719        0.080       -0.199       11.295        5.896        3.371      127.578       34.760       11.366        0.030        0.009       20.719        3.971        0.037      333.731        3.238      868.362
12/07/2014  05:37:00      -24.196        9.217       -1.902        6.228        8.232        3.318       38.783       67.765       11.007        0.040        0.006       25.892        3.573        0.019      333.720        3.219      868.367
12/07/2014  05:38:00      -12.623        4.820       -1.793        4.056        3.622        3.417       16.455       13.117       11.675        0.011        0.002       13.512        2.052        0.023      333.747        3.264      868.369
12/07/2014  05:39:00      -10.950       -1.526       -1.499        7.885        5.528        3.300       62.173       30.560       10.892        0.011        0.005       11.055        2.919        0.070      333.667        3.135      868.364
12/07/2014  05:40:00      -19.360       10.591       -0.681       10.566       14.876        8.636      111.638      221.305       74.586        0.045        0.020       22.068        2.474        0.013      333.718        3.216      868.365
12/07/2014  05:41:00      -56.536       28.747       -4.319       15.392       13.240        8.259      236.901      175.294       68.204        0.226        0.024       63.425        6.029        0.009      333.699        3.186      868.363
12/07/2014  05:42:00      -58.955       32.901      -11.511       17.696       10.554        8.904      313.157      111.378       79.289        0.260        0.025       67.514        4.706        0.005      333.753        3.275      868.354
12/07/2014  05:43:00      -49.284       23.346      -11.050        9.337       10.441        6.908       87.184      109.015       47.726        0.167        0.012       54.534        4.142        0.006      333.840        3.419      868.343
12/07/2014  05:44:00      -42.819       44.591      -11.690       13.305       16.704       10.370      177.016      279.028      107.536        0.226        0.028       61.821        6.540        0.011      333.841        3.419      868.331
12/07/2014  05:45:00      -24.657       45.082       -4.412       22.300       18.298       14.198      497.299      334.834      201.595        0.185        0.052       51.385       13.037        0.064      333.788        3.333      868.339
12/07/2014  05:46:00        2.795       75.495       -8.786       12.895       26.020       12.808      166.275      677.063      164.039        0.340        0.050       75.546       15.712        0.043      333.812        3.373      868.345
12/07/2014  05:47:00       19.030       67.489      -13.655        8.810       13.157        7.464       77.613      173.109       55.715        0.270        0.015       70.120        5.946        0.007      333.770        3.302      868.364
12/07/2014  05:48:00       14.179       40.729       -2.719       12.302       18.232       10.112      151.351      332.423      102.254        0.123        0.029       43.127        9.837        0.052      333.699        3.184      868.385
12/07/2014  05:49:00       13.262       37.714       -6.256        9.163       16.652        8.964       83.961      277.288       80.346        0.104        0.022       39.978        8.201        0.042      333.706        3.196      868.402
12/07/2014  05:50:00       11.615       24.417        1.116       12.403       17.587        9.398      153.824      309.316       88.314        0.064        0.028       27.039        9.384        0.120      333.766        3.298      868.400
12/07/2014  05:51:00      -10.703       16.742       -2.570       10.690        8.468        8.226      114.279       71.715       67.670        0.033        0.013       19.871        7.812        0.155      333.722        3.221      868.402
12/07/2014  05:52:00      -21.134        5.050       -0.006       11.060        9.560        4.553      122.335       91.402       20.731        0.035        0.012       21.729        3.825        0.031      333.621        3.055      868.398
12/07/2014  05:53:00      -26.549       -5.015       -5.138        6.275        7.309        5.528       39.374       53.417       30.555        0.044        0.006       27.019        3.860        0.020      333.509        2.871      868.395
12/07/2014  05:54:00      -27.281       -2.524       -2.803        7.418        8.207        6.505       55.027       67.363       42.320        0.046        0.008       27.398        3.735        0.019      333.557        2.950      868.388
12/07/2014  05:55:00      -23.537      -11.900       -1.645        9.684       10.335       11.483       93.786      106.810      131.863        0.052        0.017       26.374        7.638        0.084      333.607        3.032      868.377
12/07/2014  05:56:00       -7.560       -5.894       -3.148       19.305       12.605        7.862      372.683      158.879       61.809        0.035        0.030        9.586        4.491        0.219      333.671        3.138      868.370
12/07/2014  05:57:00      -43.663      -13.001       -4.426        9.614        7.735        5.346       92.420       59.832       28.575        0.114        0.009       45.558        3.505        0.006      333.498        2.854      868.369
12/07/2014  05:58:00      -72.806       -6.195      -10.598        8.640        6.956        7.013       74.644       48.390       49.179        0.281        0.009       73.069        3.934        0.003      333.496        2.847      868.376
12/07/2014  05:59:00      -67.298      -15.166       -7.111       11.800        9.927       10.805      139.243       98.546      116.750        0.258        0.018       68.986        8.947        0.017      333.494        2.843      868.377
12/07/2014  06:00:00      -72.542       -1.455       -9.776        7.501       10.844        7.118       56.269      117.588       50.666        0.279        0.011       72.557        4.772        0.004      333.532        2.908      868.380
12/07/2014  06:01:00      -49.218        4.316      -11.281       13.228        8.582        8.727      174.990       73.643       76.160        0.145        0.016       49.406        3.812        0.006      333.571        2.973      868.382
12/07/2014  06:02:00      -33.379       -6.414       -6.809        6.594        7.852        5.344       43.481       61.653       28.555        0.067        0.007       33.989        1.897        0.003      333.553        2.942      868.375
12/07/2014  06:03:00      -45.428      -10.124       -7.270        7.018        7.131        4.790       49.257       50.849       22.945        0.117        0.006       46.542        3.470        0.006      333.619        3.052      868.365
12/07/2014  06:04:00      -45.750      -21.017       -7.554        7.667        5.857        6.389       58.776       34.303       40.819        0.136        0.007       50.347        2.653        0.003      333.529        2.902      868.353
12/07/2014  06:05:00      -67.976      -26.395      -12.369       20.133       12.402        7.696      405.327      153.798       59.227        0.304        0.031       72.921        4.911        0.005      333.514        2.877      868.342
12/07/2014  06:06:00      -73.162      -13.656       -6.252       18.998       11.354       13.236      360.911      128.906      175.200        0.312        0.033       74.426       12.608        0.029      333.332        2.577      868.329
12/07/2014  06:07:00      -61.386       -0.819       -3.309       29.158       23.072       15.700      850.162      532.304      246.499        0.270        0.081       61.391       13.156        0.046      333.279        2.489      868.314
12/07/2014  06:08:00      -55.142      -10.196       -4.023       27.490       26.866       14.633      755.682      721.763      214.125        0.243        0.085       56.076       12.793        0.052      333.276        2.483      868.306
12/07/2014  06:09:00     -105.622      -14.956       -4.545       38.815       27.967       17.268     1506.578      782.149      298.200        0.699        0.129      106.676       15.788        0.022      333.263        2.463      868.290
12/07/2014  06:10:00      -93.266       -5.757       -5.493       36.926       28.001       20.632     1363.537      784.071      425.674        0.567        0.129       93.443       19.128        0.042      333.214        2.382      868.268
12/07/2014  06:11:00      -78.363       -5.863       -7.003       30.972       28.586       20.247      959.241      817.157      409.925        0.420        0.109       78.583       16.493        0.044      333.206        2.367      868.247
12/07/2014  06:12:00      -43.961       -7.368        2.371       38.837       24.111       22.038     1508.290      581.322      485.692        0.228        0.129       44.574       23.624        0.281      333.272        2.478      868.239
12/07/2014  06:13:00      -87.701       12.034       -6.106       41.749       30.385       19.199     1742.957      923.241      368.593        0.545        0.152       88.523       12.043        0.019      333.360        2.624      868.239
12/07/2014  06:14:00      -97.043        2.396      -10.891       49.162       32.563       23.707     2416.880     1060.347      562.003        0.679        0.202       97.073       23.714        0.060      333.321        2.559      868.234
12/07/2014  06:15:00     -131.126       24.763      -13.336       43.545       32.758       22.907     1896.124     1073.076      524.725        1.074        0.175      133.443       22.056        0.027      333.319        2.556      868.244
12/07/2014  06:16:00     -173.346       26.819      -16.039       34.348       29.372       19.442     1179.783      862.724      377.990        1.672        0.121      175.409        6.832        0.002      333.294        2.514      868.255
12/07/2014  06:17:00     -133.465        5.078      -10.728       47.049       29.272       25.605     2213.617      856.855      655.631        1.084        0.186      133.562       23.611        0.031      333.236        2.417      868.268
12/07/2014  06:18:00     -138.800       15.089      -13.166       33.312       36.834       20.445     1109.675     1356.756      417.986        1.127        0.144      139.618       11.530        0.007      333.256        2.451      868.277
12/07/2014  06:19:00     -110.108       12.698      -14.221       31.091       35.097       19.991      966.650     1231.801      399.643        0.754        0.130      110.838       14.274        0.017      333.265        2.467      868.271
12/07/2014  06:20:00     -132.024        6.907       -7.727       23.726       29.068       18.150      562.923      844.966      329.405        0.964        0.087      132.204       14.084        0.011      333.335        2.582      868.258
12/07/2014  06:21:00     -122.591      -11.653      -10.067       44.368       33.064       22.075     1968.495     1093.244      487.313        0.941        0.177      123.143       23.259        0.036      333.373        2.646      868.258
12/07/2014  06:22:00      -74.338      -17.428        5.139       46.023       26.149       26.661     2118.123      683.750      710.827        0.468        0.176       76.354       26.585        0.121      333.319        2.556      868.269
12/07/2014  06:23:00     -108.783       -0.107      -13.052       42.220       33.791       21.357     1782.570     1141.804      456.104        0.769        0.169      108.783       22.587        0.043      333.280        2.491      868.273
12/07/2014  06:24:00     -108.227       -4.114       -2.222       39.804       31.029       18.459     1584.344      962.814      340.750        0.731        0.144      108.305       13.050        0.015      333.199        2.357      868.283
12/07/2014  06:25:00     -100.201       -7.263       -4.352       39.864       34.415       21.881     1589.105     1184.362      478.769        0.668        0.163      100.464       21.658        0.046      333.207        2.369      868.282
12/07/2014  06:26:00     -100.774      -22.586       -2.596       36.702       32.049       19.548     1347.058     1027.126      382.129        0.671        0.138      103.274       18.524        0.032      333.226        2.402      868.293
12/07/2014  06:27:00      -75.582      -36.459        5.862       40.271       34.588       18.441     1621.750     1196.323      340.060        0.512        0.158       83.916       19.196        0.052      333.308        2.538      868.306
12/07/2014  06:28:00     -109.584      -49.551       -6.857       17.792       20.737       13.239      316.544      430.041      175.271        0.772        0.046      120.267       10.523        0.008      333.389        2.669      868.305
12/07/2014  06:29:00      -82.955      -41.166       -4.417       35.863       15.448       12.958     1286.120      238.636      167.913        0.514        0.085       92.607       12.833        0.019      333.443        2.759      868.312
12/07/2014  06:30:00      -65.867      -37.451       -4.906       22.415       17.608       10.893      502.447      310.056      118.667        0.335        0.047       75.770        6.566        0.008      333.412        2.708      868.314
12/07/2014  06:31:00      -72.934      -42.557       -7.512       10.771       13.751        9.021      116.014      189.099       81.381        0.379        0.019       84.442        5.703        0.005      333.399        2.688      868.304
12/07/2014  06:32:00      -60.338      -28.618      -12.181        7.850        9.607        6.792       61.615       92.291       46.127        0.240        0.010       66.780        3.896        0.003      333.562        2.958      868.291
12/07/2014  06:33:00      -53.870      -24.198       -7.520        8.493        9.766        7.114       72.124       95.376       50.613        0.188        0.011       59.055        4.928        0.007      333.653        3.110      868.283
12/07/2014  06:34:00      -58.370      -17.549      -11.984       12.418       10.881        7.100      154.216      118.387       50.406        0.209        0.016       60.951        6.345        0.011      333.657        3.115      868.274
12/07/2014  06:35:00      -70.352      -20.530       -7.212       18.560       11.129        6.787      344.472      123.864       46.068        0.297        0.026       73.286        6.694        0.008      333.600        3.021      868.260
12/07/2014  06:36:00      -35.977      -33.098        0.786       34.001       21.370       12.452     1156.099      456.659      155.041        0.208        0.088       48.885       18.623        0.145      333.545        2.930      868.250
12/07/2014  06:37:00      -89.562      -45.023       -6.053       18.109       14.209       10.366      327.933      201.883      107.445        0.536        0.032      100.242        8.668        0.007      333.529        2.902      868.249
12/07/2014  06:38:00     -100.878      -34.549      -16.841       11.737       10.975        8.367      137.765      120.452       70.005        0.599        0.016      106.630        2.548        0.001      333.512        2.875      868.256
12/07/2014  06:39:00      -81.116      -18.185       -9.192       22.458       13.287       10.456      504.357      176.547      109.330        0.389        0.040       83.130       10.476        0.016      333.488        2.835      868.250
12/07/2014  06:40:00      -99.756      -31.699       -5.915       14.127       20.796       10.516      199.583      432.475      110.588        0.587        0.037      104.672        8.358        0.006      333.476        2.816      868.254
12/07/2014  06:41:00      -76.732      -42.486       -6.286       28.902       18.071       13.325      835.336      326.562      177.553        0.454        0.067       87.709        5.508        0.004      333.442        2.757      868.262
12/07/2014  06:42:00      -91.841      -13.316       -9.455       20.718       16.717       11.967      429.234      279.474      143.219        0.478        0.043       92.802        6.660        0.005      333.275        2.482      868.280
12/07/2014  06:43:00      -68.106      -16.538       -5.045       18.655       16.646       12.565      348.013      277.102      157.889        0.286        0.039       70.085        7.532        0.012      333.255        2.449      868.290
12/07/2014  06:44:00      -75.848      -19.462       -5.663       25.033       17.240       14.368      626.666      297.233      206.440        0.365        0.057       78.305        7.507        0.009      333.307        2.536      868.284
12/07/2014  06:45:00      -87.902      -13.796       -8.973       27.536       18.895       17.809      758.248      357.020      317.167        0.471        0.072       88.978       16.688        0.035      333.284        2.497      868.280
12/07/2014  06:46:00      -91.953      -48.627      -10.397       13.203       16.839        9.735      174.306      283.559       94.766        0.574        0.028      104.019        3.773        0.001      333.334        2.582      868.273
12/07/2014  06:47:00      -83.798      -40.591       -3.125       22.394       12.868       14.954      501.473      165.585      223.636        0.478        0.045       93.111       15.364        0.027      333.317        2.554      868.275
12/07/2014  06:48:00      -84.650      -35.453      -11.508       21.978       21.247       12.442      483.040      451.419      154.809        0.482        0.054       91.775        7.986        0.008      333.329        2.574      868.275
12/07/2014  06:49:00      -98.337      -28.684       -9.345       25.301       22.357       16.954      640.161      499.828      287.424        0.600        0.071      102.435       15.551        0.023      333.253        2.447      868.283
12/07/2014  06:50:00     -105.697      -19.640      -14.290       22.965       27.924       17.327      527.386      779.724      300.211        0.668        0.080      107.507       11.973        0.012      333.181        2.328      868.287
12/07/2014  06:51:00      -70.541      -23.307      -10.645       25.731       22.860       14.961      662.063      522.567      223.832        0.352        0.070       74.291       12.259        0.027      333.256        2.451      868.305
12/07/2014  06:52:00      -45.086      -30.170        7.133       40.364       24.481       20.136     1629.219      599.301      405.476        0.281        0.132       54.249       20.295        0.140      333.238        2.422      868.308
12/07/2014  06:53:00     -114.237      -62.769       -4.310       42.459       27.090       19.240     1802.746      733.849      370.189        0.996        0.145      130.346       21.533        0.027      333.286        2.502      868.317
12/07/2014  06:54:00      -99.821      -45.981        2.551       27.366       23.827       17.445      748.902      567.714      304.339        0.685        0.081      109.903       12.554        0.013      333.251        2.442      868.330
12/07/2014  06:55:00      -95.735      -29.688       -1.435       27.947       26.367       20.243      781.044      695.215      409.788        0.597        0.094      100.233       18.027        0.032      333.252        2.444      868.335
12/07/2014  06:56:00     -119.860      -21.228      -12.352       32.310       19.199       12.835     1043.933      368.606      164.736        0.827        0.079      121.725       12.906        0.011      333.186        2.335      868.344
12/07/2014  06:57:00     -108.740      -21.612       -2.630       26.999       17.134       16.787      728.939      293.589      281.799        0.680        0.065      110.866       15.696        0.020      333.176        2.319      868.355
12/07/2014  06:58:00     -110.364      -43.038        2.033       39.306       26.136       19.436     1544.930      683.091      377.768        0.832        0.130      118.458       20.342        0.029      333.261        2.459      868.368
12/07/2014  06:59:00     -100.808      -37.011       -4.102       27.470       20.390       11.897      754.577      415.753      141.537        0.643        0.066      107.387        8.375        0.006      333.274        2.480      868.382
12/07/2014  07:00:00      -84.326      -50.404       -4.929       29.421       28.276       17.498      865.589      799.550      306.178        0.582        0.099       98.242       13.996        0.020      333.238        2.421      868.394
12/07/2014  07:01:00      -67.325      -23.148        3.564       34.073       29.043       15.704     1160.971      843.468      246.621        0.367        0.113       71.194       12.322        0.030      333.261        2.460      868.407
12/07/2014  07:02:00      -93.615      -43.118       -2.735       25.689       26.620       19.380      659.926      708.616      375.599        0.619        0.087      103.068       16.502        0.026      333.299        2.524      868.421
12/07/2014  07:03:00      -59.642      -42.015        3.750       30.864       26.630       15.594      952.573      709.136      243.187        0.362        0.095       72.955       15.046        0.043      333.329        2.573      868.431
12/07/2014  07:04:00      -24.124      -11.148        7.836       32.921       18.156       16.119     1083.779      329.633      259.806        0.122        0.084       26.575       20.084        0.571      333.327        2.570      868.438
12/07/2014  07:05:00      -56.402      -27.246        0.841       29.078       17.763       11.807      845.529      315.539      139.412        0.261        0.065       62.638       13.469        0.046      333.361        2.625      868.443
12/07/2014  07:06:00      -63.688      -45.492       -7.408       31.848       25.554       19.146     1014.290      653.006      366.567        0.411        0.102       78.267       17.365        0.049      333.449        2.771      868.451
12/07/2014  07:07:00     -114.733      -66.293       -6.992       21.063       20.788       17.364      443.662      432.155      301.500        0.939        0.059      132.508       12.041        0.008      333.380        2.657      868.459
12/07/2014  07:08:00     -107.696      -68.090       -5.235       25.794       20.794       14.002      665.319      432.388      196.062        0.878        0.065      127.416       13.132        0.011      333.378        2.654      868.460
12/07/2014  07:09:00      -91.484      -33.567       -9.946       24.357       23.221       12.033      593.282      539.208      144.796        0.544        0.064       97.448        6.856        0.005      333.393        2.678      868.462
12/07/2014  07:10:00      -83.701      -36.302       -6.889       25.457       23.306       12.482      648.060      543.186      155.809        0.486        0.067       91.234        9.667        0.011      333.462        2.791      868.460
12/07/2014  07:11:00      -78.643      -18.713       -6.246       33.066       23.555       13.045     1093.353      554.839      170.163        0.420        0.091       80.838       14.400        0.032      333.407        2.700      868.444
12/07/2014  07:12:00      -94.956      -13.117      -18.541       21.038       22.201       16.817      442.584      492.897      282.797        0.538        0.061       95.858       10.331        0.012      333.395        2.681      868.432
12/07/2014  07:13:00     -115.248       -1.305      -13.650       31.313       23.057       21.120      980.483      531.606      446.040        0.771        0.098      115.255       15.750        0.019      333.394        2.679      868.408
12/07/2014  07:14:00     -111.484       -5.073       -9.424       25.968       16.892       19.246      674.340      285.324      370.420        0.694        0.067      111.600       16.107        0.021      333.396        2.684      868.394
12/07/2014  07:15:00     -118.986        2.471       -8.257       34.294       20.757       14.287     1176.082      430.861      204.113        0.802        0.091      119.012       15.285        0.016      333.418        2.720      868.374
12/07/2014  07:16:00     -114.470       -5.951      -16.760       30.384       21.246       18.521      923.158      451.377      343.038        0.757        0.086      114.624       17.358        0.023      333.417        2.717      868.363
12/07/2014  07:17:00     -112.855       -1.939      -13.366       25.579       18.370       17.136      654.260      337.470      293.629        0.710        0.064      112.872       16.123        0.020      333.405        2.696      868.355
12/07/2014  07:18:00     -129.069        7.994      -15.842       16.940       23.599       12.095      286.951      556.900      146.290        0.898        0.050      129.317        8.534        0.004      333.440        2.755      868.349
12/07/2014  07:19:00     -103.401        7.263       -5.388       30.081       27.444       20.827      904.841      753.199      433.765        0.643        0.105      103.656       18.150        0.031      333.372        2.644      868.349
12/07/2014  07:20:00     -144.277       22.567       -7.950       34.283       26.456       14.943     1175.336      699.931      223.306        1.174        0.105      146.031       14.451        0.010      333.366        2.634      868.357
12/07/2014  07:21:00      -92.800       11.468       -0.197       41.060       33.225       20.397     1685.894     1103.884      416.029        0.597        0.160       93.506       18.052        0.037      333.353        2.613      868.371
12/07/2014  07:22:00      -77.095        2.008       -5.521       36.233       25.200       17.884     1312.825      635.060      319.846        0.412        0.113       77.121       18.146        0.055      333.377        2.652      868.379
12/07/2014  07:23:00      -57.549      -19.627        0.691       34.552       26.958       19.687     1193.824      726.733      387.595        0.300        0.115       60.804       18.474        0.092      333.364        2.630      868.393
12/07/2014  07:24:00      -50.474      -30.459       -2.137       24.136       25.223       15.489      582.554      636.225      239.910        0.247        0.073       58.952       12.323        0.044      333.391        2.675      868.414
12/07/2014  07:25:00      -71.355      -14.977       -3.031       26.558       31.590       15.099      705.326      997.946      227.986        0.363        0.097       72.909       14.866        0.042      333.386        2.667      868.436
12/07/2014  07:26:00      -65.541      -41.374       -9.143       17.535       16.020        9.665      307.472      256.636       93.414        0.337        0.033       77.508        5.066        0.004      333.422        2.724      868.453
12/07/2014  07:27:00      -65.216      -38.131       -0.545       29.893       25.860       17.236      893.580      668.743      297.080        0.378        0.093       75.545       19.005        0.063      333.421        2.722      868.468
12/07/2014  07:28:00      -73.995      -27.394       -4.716       21.386       22.671       11.065      457.374      513.993      122.430        0.367        0.055       78.903        7.179        0.008      333.477        2.815      868.480
12/07/2014  07:29:00      -85.150      -42.505       -2.721       35.528       18.721       12.811     1262.251      350.479      164.116        0.542        0.089       95.169       15.459        0.026      333.473        2.810      868.482
12/07/2014  07:30:00      -92.678      -39.119       -5.609       17.691       22.801       10.962      312.968      519.905      120.165        0.555        0.048      100.596        8.466        0.007      333.496        2.848      868.477
12/07/2014  07:31:00      -60.710      -33.036       -0.778       34.589       20.984       14.319     1196.383      440.331      205.035        0.331        0.092       69.117       17.010        0.061      333.512        2.874      868.474
12/07/2014  07:32:00      -53.843      -24.185        0.089       26.216       23.391       14.089      687.287      547.149      198.496        0.246        0.072       59.025       11.386        0.037      333.493        2.842      868.478
12/07/2014  07:33:00      -84.490      -17.592       -0.133       21.004       21.214       12.049      441.172      450.025      145.188        0.424        0.052       86.302        7.657        0.008      333.462        2.792      868.492
12/07/2014  07:34:00      -76.909      -32.408        5.645       29.599       18.127       15.313      876.079      328.594      234.480        0.422        0.072       83.459       15.541        0.035      333.549        2.935      868.500
12/07/2014  07:35:00      -97.192      -48.128        1.054       27.950       23.179       14.997      781.204      537.288      224.921        0.665        0.077      108.456       12.882        0.014      333.523        2.891      868.507
12/07/2014  07:36:00      -88.912      -56.397       -1.929       37.426       24.027       15.857     1400.724      577.318      251.458        0.666        0.111      105.290       16.166        0.024      333.542        2.925      868.512
12/07/2014  07:37:00      -78.482      -39.571       -0.046       42.430       18.461       17.290     1800.264      340.793      298.946        0.508        0.122       87.893       11.497        0.017      333.518        2.884      868.519
12/07/2014  07:38:00      -68.550      -32.708        2.965       38.154       27.044       20.058     1455.755      731.398      402.338        0.418        0.129       75.954       22.095        0.085      333.560        2.955      868.524
12/07/2014  07:39:00      -80.726      -60.289        2.313       42.799       25.600       22.924     1831.780      655.356      525.491        0.658        0.151      100.755       24.115        0.057      333.675        3.146      868.525
12/07/2014  07:40:00      -49.592      -35.433        2.233       39.244       23.806       17.457     1540.075      566.739      304.738        0.307        0.121       60.950       20.477        0.113      333.672        3.141      868.535
12/07/2014  07:41:00      -50.033      -45.196        3.542       24.560       20.309       13.172      603.209      412.466      173.495        0.287        0.059       67.423        8.741        0.017      333.703        3.193      868.544
12/07/2014  07:42:00      -27.590      -40.743        2.494       30.930       19.828       20.358      956.640      393.130      414.447        0.210        0.088       49.206       19.600        0.159      333.738        3.249      868.553
12/07/2014  07:43:00      -46.473      -26.712       -2.697       23.906       18.743       10.821      571.492      351.297      117.098        0.196        0.052       53.603        7.315        0.019      333.738        3.248      868.556
12/07/2014  07:44:00      -33.466      -38.552        0.646       24.165       19.851       12.089      583.947      394.065      146.137        0.187        0.056       51.051        8.815        0.030      333.756        3.279      868.559
12/07/2014  07:45:00      -36.053      -16.108        5.300       21.677       10.576       12.345      469.885      111.847      152.387        0.116        0.037       39.488       11.790        0.089      333.734        3.244      868.566
12/07/2014  07:46:00      -23.566       -5.510        1.677       19.826       15.020        6.318      393.082      225.601       39.922        0.062        0.033       24.202        4.162        0.030      333.701        3.188      868.556
12/07/2014  07:47:00      -66.013        4.429       -4.610       15.084        9.314        5.796      227.531       86.753       33.597        0.237        0.017       66.162        6.919        0.011      333.783        3.324      868.563
12/07/2014  07:48:00      -77.168        8.797       -9.839       17.907       10.385        9.758      320.663      107.858       95.219        0.333        0.026       77.668        9.335        0.014      333.728        3.233      868.573
12/07/2014  07:49:00      -68.426       -8.598       -8.768       10.673        9.269        6.328      113.914       85.916       40.041        0.254        0.012       68.964        4.490        0.004      333.717        3.214      868.590
12/07/2014  07:50:00      -66.888      -19.525       -8.118        8.943       11.553       10.829       79.985      133.467      117.274        0.263        0.017       69.679        6.456        0.009      333.703        3.193      868.613
12/07/2014  07:51:00      -67.674      -21.254       -4.822       14.148       15.481        9.998      200.155      239.653       99.967        0.280        0.027       70.933        5.698        0.006      333.727        3.230      868.626
12/07/2014  07:52:00      -58.419      -35.215       -6.162       13.570       13.220        9.060      184.148      174.771       82.089        0.257        0.022       68.212        5.146        0.006      333.729        3.233      868.639
12/07/2014  07:53:00      -28.657      -20.654        3.101       17.220       14.349       13.144      296.539      205.887      172.759        0.097        0.034       35.325       11.314        0.103      333.717        3.214      868.652
12/07/2014  07:54:00      -13.227      -16.851        3.459       24.728       13.170       10.002      611.466      173.436      100.039        0.068        0.044       21.423        9.651        0.203      333.833        3.407      868.651
12/07/2014  07:55:00       -6.857       -8.175        4.095       11.248        8.894        7.205      126.521       79.111       51.916        0.019        0.013       10.670        3.619        0.115      333.847        3.431      868.639
12/07/2014  07:56:00      -20.076       -8.916       -1.678       10.771        6.400        5.847      116.013       40.964       34.191        0.034        0.010       21.966        4.752        0.047      333.779        3.319      868.625
12/07/2014  07:57:00      -16.085       -3.247        2.167        6.113        6.426        7.068       37.372       41.299       49.958        0.020        0.006       16.410        4.820        0.086      333.791        3.337      868.621
12/07/2014  07:58:00      -19.053       -1.208       -1.135        8.104        5.155        4.194       65.682       26.576       17.589        0.024        0.005       19.091        2.139        0.013      333.747        3.262      868.625
12/07/2014  07:59:00      -33.742       -8.964        0.012        9.537        8.413        9.072       90.950       70.785       82.294        0.073        0.012       34.912        7.495        0.046      333.751        3.271      868.622
12/07/2014  08:00:00      -21.881        3.763       -2.314        5.404        8.130        6.170       29.203       66.100       38.072        0.032        0.007       22.202        4.956        0.050      333.726        3.229      868.635
12/07/2014  08:01:00       -3.971       10.194        8.149        6.065        7.063        5.865       36.787       49.892       34.397        0.015        0.006       10.940        2.374        0.047      333.803        3.357      868.644
12/07/2014  08:02:00       -2.849       13.594       -0.775        6.216        8.844        7.666       38.644       78.211       58.765        0.018        0.009       13.889        7.221        0.270      333.753        3.276      868.655
12/07/2014  08:03:00      -34.400       -4.725        1.060       12.861        6.563        6.487      165.396       43.077       42.083        0.073        0.013       34.723        5.567        0.026      333.751        3.272      868.657
12/07/2014  08:04:00      -27.375       -0.245        3.278       14.733       11.789        6.706      217.065      138.986       44.972        0.058        0.020       27.376        6.609        0.058      333.800        3.351      868.663
12/07/2014  08:05:00      -28.250       10.841        8.166       12.612       15.605       10.229      159.063      243.510      104.637        0.074        0.025       30.259        9.564        0.100      333.790        3.337      868.649
12/07/2014  08:06:00       -0.516       32.227       15.083       33.993       18.337       17.370     1155.534      336.246      301.723        0.153        0.090       32.231       16.066        0.248      333.784        3.327      868.643
12/07/2014  08:07:00        4.597       10.318       13.889       20.788       16.571       21.283      432.121      274.582      452.949        0.074        0.058       11.296       14.911        1.742      333.869        3.468      868.648
12/07/2014  08:08:00      -55.004      -16.770       -3.418       22.754       18.472        9.985      517.749      341.206       99.706        0.214        0.048       57.504        6.392        0.012      333.870        3.467      868.635
12/07/2014  08:09:00      -38.806      -18.616        0.160       12.752       19.312        9.316      162.612      372.940       86.784        0.124        0.031       43.040        6.781        0.025      333.900        3.518      868.624
12/07/2014  08:10:00      -29.550      -27.815        5.094       27.834       22.623       15.803      774.750      511.785      249.732        0.160        0.077       40.582       16.425        0.164      333.925        3.560      868.626
12/07/2014  08:11:00        4.297       -8.307       16.947       18.187       13.475       16.339      330.784      181.570      266.974        0.058        0.039        9.352       14.604        2.438      334.029        3.732      868.620
12/07/2014  08:12:00        0.409       -6.428       11.167       14.472       15.490       11.592      209.426      239.930      134.368        0.037        0.029        6.441       10.840        2.833      333.987        3.662      868.623
12/07/2014  08:13:00       11.463      -10.276       -1.130       14.017       11.358       13.590      196.488      129.005      184.681        0.037        0.026       15.395        8.575        0.310      333.950        3.601      868.621
12/07/2014  08:14:00       10.666        8.949       -2.226       10.695       10.714        5.988      114.376      114.800       35.853        0.023        0.013       13.923        6.034        0.188      333.958        3.615      868.625
12/07/2014  08:15:00       41.568       35.662       -3.629       19.490        9.142       10.787      379.848       83.578      116.362        0.180        0.029       54.769        8.733        0.025      333.869        3.467      868.641
12/07/2014  08:16:00       29.375       34.815       13.387       13.578       12.235       10.979      184.356      149.696      120.538        0.135        0.023       45.552        2.656        0.003      333.862        3.455      868.652
12/07/2014  08:17:00       10.296       28.327       16.269       11.731       10.528       11.529      137.606      110.847      132.929        0.078        0.019       30.140        7.801        0.067      333.880        3.486      868.661
12/07/2014  08:18:00       32.068       25.669       -1.579       10.581       10.014       11.530      111.952      100.279      132.951        0.102        0.017       41.076        7.896        0.037      333.806        3.364      868.676
12/07/2014  08:19:00       21.338       24.804       -1.027       10.147        9.323        9.064      102.954       86.927       82.165        0.067        0.014       32.719        5.413        0.027      333.816        3.380      868.692
12/07/2014  08:20:00       10.770       26.094       -4.166        8.339        9.973        8.332       69.547       99.462       69.423        0.053        0.012       28.230        5.719        0.041      333.807        3.364      868.711
12/07/2014  08:21:00        1.990       24.372       -0.963       11.153       11.373        9.245      124.399      129.351       85.475        0.047        0.017       24.453        7.563        0.096      333.857        3.449      868.720
12/07/2014  08:22:00       11.581       44.702       -5.892        9.401       10.560        7.266       88.380      111.507       52.800        0.121        0.013       46.178        5.912        0.016      333.822        3.389      868.736
12/07/2014  08:23:00       13.433       37.269       -3.358       15.185       21.326       14.132      230.589      454.799      199.709        0.123        0.044       39.616       11.208        0.080      333.806        3.363      868.736
12/07/2014  08:24:00        2.200       26.356        0.759       12.921        9.257       11.067      166.941       85.688      122.485        0.054        0.019       26.447        7.010        0.070      333.850        3.435      868.738
12/07/2014  08:25:00       10.314       28.353        2.281       13.759       11.377        9.160      189.300      129.429       83.897        0.066        0.020       30.171        6.314        0.044      333.845        3.429      868.731
12/07/2014  08:26:00       12.100       33.640       -9.171       12.750       12.138        8.722      162.560      147.325       76.079        0.087        0.019       35.750        6.300        0.031      333.815        3.379      868.715
12/07/2014  08:27:00       15.162       36.346        3.749       20.422       15.670       12.860      417.073      245.535      165.376        0.120        0.041       39.382        9.742        0.061      333.857        3.448      868.710
12/07/2014  08:28:00       50.478       35.454       11.044       15.061       12.900       12.450      226.827      166.411      154.996        0.224        0.027       61.685        8.902        0.021      333.800        3.351      868.687
12/07/2014  08:29:00       41.478       34.637       -2.928       11.526       12.728       10.912      132.842      161.996      119.065        0.167        0.021       54.039        5.705        0.011      333.805        3.363      868.682
12/07/2014  08:30:00       36.570       25.159        5.048       19.065       16.932       15.077      363.490      286.700      227.324        0.144        0.044       44.389        9.084        0.042      333.844        3.426      868.672
12/07/2014  08:31:00       50.100       41.018        1.061       15.391       11.534       11.965      236.874      133.033      143.161        0.235        0.026       64.750        7.614        0.014      333.772        3.306      868.673
12/07/2014  08:32:00       40.579       35.212        1.056       21.168       18.193       16.805      448.095      330.971      282.421        0.197        0.053       53.727       14.022        0.068      333.804        3.361      868.674
12/07/2014  08:33:00       50.289       33.733       -5.248       17.451       13.365       11.594      304.530      178.615      134.413        0.216        0.031       60.555        9.189        0.023      333.803        3.357      868.686
12/07/2014  08:34:00       63.827       45.385        7.883       15.946       14.160       15.819      254.272      200.495      250.226        0.345        0.035       78.318        6.395        0.007      333.771        3.303      868.703
12/07/2014  08:35:00       55.971       29.033        0.451       17.671       11.961       17.996      312.261      143.064      323.870        0.238        0.039       63.053       13.169        0.044      333.804        3.359      868.700
12/07/2014  08:36:00       70.095       49.468       -1.741       16.293       14.500       14.858      265.446      210.253      220.752        0.403        0.035       85.793        8.121        0.009      333.742        3.256      868.707
12/07/2014  08:37:00       71.838       48.945        5.640       19.268       12.361       13.753      371.246      152.798      189.140        0.415        0.036       86.927        8.183        0.009      333.750        3.270      868.695
12/07/2014  08:38:00       61.210       34.418        6.436       23.339       20.719       18.689      544.705      429.285      349.297        0.315        0.066       70.223       12.292        0.031      333.744        3.259      868.690
12/07/2014  08:39:00       72.990       52.253        0.836       15.620       15.280       14.207      243.978      233.466      201.842        0.437        0.034       89.766        8.360        0.009      333.731        3.238      868.677
12/07/2014  08:40:00       49.801       29.549       -3.858       27.249       17.958       15.517      742.530      322.504      240.774        0.234        0.065       57.908        9.036        0.024      333.772        3.305      868.651
12/07/2014  08:41:00       64.525       38.955        0.106       19.232       17.657       20.440      369.868      311.769      417.773        0.339        0.055       75.372        9.797        0.017      333.725        3.227      868.639
12/07/2014  08:42:00       48.544       40.704       -2.390       18.273       21.494       16.411      333.915      462.004      269.307        0.254        0.053       63.351        9.979        0.025      333.789        3.335      868.637
12/07/2014  08:43:00       42.697       32.161        1.590       17.300       16.774       10.494      299.278      281.366      110.120        0.178        0.035       53.454        6.930        0.017      333.767        3.298      868.650
12/07/2014  08:44:00       37.286       35.421        0.279       13.914       14.646       14.700      193.612      214.517      216.089        0.163        0.031       51.428        8.530        0.028      333.789        3.335      868.654
12/07/2014  08:45:00       13.337       31.315        4.519       18.171       13.212       12.278      330.173      174.568      150.741        0.092        0.033       34.037       10.207        0.090      333.825        3.394      868.654
12/07/2014  08:46:00       17.734       33.625        3.161       17.718       15.457       14.410      313.942      238.916      207.639        0.111        0.038       38.015        8.561        0.051      333.825        3.393      868.667
12/07/2014  08:47:00       39.224       32.767        7.688       18.113        7.343       11.435      328.091       53.924      130.764        0.159        0.026       51.110        7.977        0.024      333.813        3.375      868.679
12/07/2014  08:48:00       28.603       19.294        9.494       11.145       11.146       14.526      124.208      124.225      211.008        0.087        0.023       34.502        4.408        0.016      333.831        3.404      868.688
12/07/2014  08:49:00       55.219       32.460        4.070       12.140       13.051        9.413      147.381      170.340       88.611        0.226        0.020       64.053        6.598        0.011      333.815        3.378      868.698
12/07/2014  08:50:00       43.147       17.274        2.590       15.754       13.699       10.662      248.181      187.666      113.670        0.136        0.027       46.476        5.134        0.012      333.880        3.486      868.702
12/07/2014  08:51:00       77.841       48.379        7.672       12.475       11.055       15.118      155.634      122.207      228.557        0.448        0.025       91.650        5.665        0.004      333.847        3.431      868.712
12/07/2014  08:52:00       85.008       61.911       13.145       15.193       15.519       17.742      230.830      240.834      314.773        0.601        0.039      105.163        7.723        0.005      333.864        3.458      868.710
12/07/2014  08:53:00       79.178       51.516       11.392       11.621       19.010       15.583      135.059      361.398      242.817        0.490        0.037       94.462        8.263        0.008      333.891        3.503      868.704
12/07/2014  08:54:00       67.500       29.665        0.536       23.922       15.609       16.228      572.245      243.649      263.344        0.326        0.054       73.731       11.292        0.023      333.868        3.466      868.701
12/07/2014  08:55:00       80.471       45.625       -1.950       13.686       17.206       12.698      187.299      296.057      161.248        0.460        0.032       92.505        9.029        0.010      333.854        3.442      868.709
12/07/2014  08:56:00       61.535       19.374       -6.000       20.076       18.903        9.594      403.041      357.323       92.038        0.252        0.043       64.513        6.231        0.009      333.887        3.497      868.714
12/07/2014  08:57:00       29.504       20.381        0.766       19.208       18.591       17.112      368.934      345.635      292.803        0.115        0.050       35.859       12.236        0.116      333.968        3.633      868.729
12/07/2014  08:58:00       48.029       28.809        1.356       14.659       12.814       13.237      214.891      164.205      175.214        0.185        0.028       56.007        5.776        0.011      333.970        3.636      868.772
12/07/2014  08:59:00        9.589        9.873        5.180       13.628       12.054       14.060      185.719      145.302      197.695        0.037        0.026       13.763       10.855        0.622      334.183        3.989      868.809
12/07/2014  09:00:00       16.875       31.319        0.583       11.951       15.039       15.726      142.829      226.171      247.317        0.094        0.031       35.576        7.963        0.050      334.065        3.792      868.825
12/07/2014  09:01:00       35.206       27.590       10.009       10.614        9.786       12.408      112.665       95.764      153.956        0.123        0.018       44.729        3.904        0.008      334.071        3.802      868.844
12/07/2014  09:02:00       19.519       31.306       -4.898       13.609       11.120        8.252      185.205      123.644       68.103        0.088        0.019       36.892        3.562        0.009      334.012        3.706      868.862
12/07/2014  09:03:00       35.639       20.646        9.171       14.128       10.844       12.758      199.610      117.599      162.766        0.113        0.024       41.187        5.321        0.017      334.073        3.805      868.879
12/07/2014  09:04:00        2.829        9.008        3.576       23.250       15.542       14.699      540.566      241.545      216.055        0.055        0.050        9.442       13.570        2.066      334.095        3.841      868.880
12/07/2014  09:05:00      -23.580       38.559      -13.068       17.606       15.563        9.380      309.970      242.193       87.981        0.143        0.032       45.198        7.148        0.025      334.098        3.847      868.904
12/07/2014  09:06:00       -6.715       27.715       -5.314        7.552       11.410        7.027       57.031      130.192       49.383        0.054        0.012       28.517        6.976        0.060      334.184        3.989      868.919
12/07/2014  09:07:00       -0.383        7.674       11.401        9.143       12.013        9.795       83.598      144.301       95.945        0.026        0.016        7.683        9.170        1.424      334.595        4.673      868.910
12/07/2014  09:08:00        2.642       18.191       -5.818       10.110       16.501       13.728      102.222      272.284      188.445        0.047        0.028       18.382       12.529        0.465      334.388        4.328      868.902
12/07/2014  09:09:00       -4.962        3.605        4.277       18.916       12.278       11.221      357.828      150.746      125.914        0.035        0.032        6.133       10.324        2.834      334.386        4.327      868.887
12/07/2014  09:10:00        2.704       -1.368       15.987        7.252        4.517        5.451       52.596       20.402       29.712        0.018        0.005        3.030        4.216        1.936      334.709        4.861      868.887
12/07/2014  09:11:00       13.259        8.157        5.142       12.710        9.132        8.321      161.538       83.390       69.243        0.029        0.016       15.567        6.076        0.152      334.489        4.495      868.886
12/07/2014  09:12:00        8.398       30.105       -2.300       19.761       16.667       10.645      390.516      277.778      113.314        0.088        0.039       31.255       10.388        0.110      334.412        4.367      868.878
12/07/2014  09:13:00       16.293       36.624        6.356       26.056       19.328       16.034      678.936      373.578      257.095        0.148        0.065       40.084       13.284        0.110      334.444        4.421      868.894
12/07/2014  09:14:00       20.896       21.966        6.237       29.742       15.785       19.099      884.607      249.165      364.766        0.123        0.075       30.318       12.827        0.179      334.431        4.399      868.895
12/07/2014  09:15:00       19.290       17.024       23.186       25.353       12.614       11.726      642.794      159.124      137.495        0.107        0.047       25.727        4.990        0.038      334.530        4.564      868.906
12/07/2014  09:16:00        7.069        2.598       16.347       16.486        7.615        8.107      271.803       57.990       65.728        0.036        0.020        7.532        4.864        0.417      334.798        5.009      868.890
12/07/2014  09:17:00      -28.774       23.477        3.939       24.864       12.060       11.834      618.198      145.453      140.047        0.115        0.045       37.137        6.208        0.028      334.473        4.468      868.900
12/07/2014  09:18:00      -15.461       11.199       -9.306       13.116       16.117        9.224      172.033      259.767       85.087        0.048        0.026       19.091        4.893        0.066      334.462        4.452      868.903
12/07/2014  09:19:00      -14.747       21.048       -5.909       14.189       21.387        7.028      201.325      457.410       49.399        0.070        0.035       25.700        5.506        0.046      334.494        4.503      868.915
12/07/2014  09:20:00      -10.507       49.986        2.058       11.283       13.574       11.600      127.310      184.265      134.569        0.153        0.022       51.079        3.759        0.005      334.477        4.476      868.925
12/07/2014  09:21:00      -14.880       25.390       -7.652       10.538       16.371        9.284      111.048      268.024       86.202        0.069        0.023       29.429        5.031        0.029      334.435        4.406      868.941
12/07/2014  09:22:00      -22.554       14.718       -0.607       14.629       12.958       12.758      214.013      167.898      162.771        0.064        0.027       26.931        9.768        0.132      334.526        4.558      868.956
12/07/2014  09:23:00      -44.557      -12.603       -2.087       14.822       13.132       11.372      219.685      172.445      129.332        0.133        0.026       46.305        5.755        0.015      334.424        4.389      868.963
12/07/2014  09:24:00      -36.047        8.147        4.003       17.965       15.407       12.689      322.758      237.386      161.011        0.105        0.036       36.956       11.843        0.103      334.532        4.567      868.965
12/07/2014  09:25:00      -30.598       17.139       -0.922       19.316       19.555       15.135      373.094      382.416      229.058        0.111        0.049       35.071       11.849        0.114      334.615        4.703      868.958
12/07/2014  09:26:00      -10.750       22.688        9.192       17.455       19.963       14.458      304.681      398.529      209.036        0.081        0.046       25.105       12.722        0.257      334.948        5.257      868.960
12/07/2014  09:27:00       18.241       12.982       21.105       23.045       23.457       17.028      531.078      550.231      289.957        0.116        0.069       22.389        9.334        0.174      334.877        5.138      868.970
12/07/2014  09:28:00       21.992       15.501       16.651       21.553       11.459       16.013      464.553      131.313      256.409        0.093        0.043       26.906        8.462        0.099      334.833        5.067      868.982
12/07/2014  09:29:00       32.802       30.763        4.685       30.051       28.624       17.652      903.077      819.329      311.584        0.204        0.102       44.971       13.745        0.093      334.815        5.035      868.987
12/07/2014  09:30:00       53.391       53.622       11.931       24.002       15.707       18.556      576.083      246.708      344.322        0.352        0.058       75.670       16.119        0.045      334.601        4.682      868.987
12/07/2014  09:31:00       71.017       27.358       12.261       20.326       23.367       17.193      413.133      545.995      295.588        0.360        0.063       76.104        9.802        0.017      334.531        4.564      868.984
12/07/2014  09:32:00       31.385       15.289        8.631       19.619       21.578       19.601      384.897      465.592      384.182        0.126        0.062       34.911       11.078        0.101      334.709        4.860      868.964
12/07/2014  09:33:00        5.397       32.910        6.772       28.479       18.286       12.252      811.051      334.376      150.120        0.123        0.065       33.350       10.180        0.093      334.848        5.091      868.952
12/07/2014  09:34:00       36.560       38.187        7.675       32.633       23.910       15.461     1064.920      571.690      239.045        0.236        0.094       52.867       13.303        0.063      334.770        4.962      868.932
12/07/2014  09:35:00       31.173        7.760       -0.581       26.636       29.042       18.121      709.475      843.414      328.354        0.146        0.094       32.124       13.348        0.173      334.739        4.911      868.906
12/07/2014  09:36:00       -0.764       -6.412        5.297        9.758       20.841       16.122       95.220      434.365      259.912        0.043        0.039        6.458       14.937        5.350      335.200        5.675      868.891
12/07/2014  09:37:00       54.761       37.309        2.064       27.756       22.938       18.181      770.410      526.166      330.560        0.301        0.081       66.263        6.590        0.010      334.912        5.198      868.875
12/07/2014  09:38:00       40.918       27.777        1.727       23.846       21.061       17.531      568.641      443.557      307.340        0.188        0.066       49.456       11.993        0.059      334.829        5.061      868.860
12/07/2014  09:39:00       24.887       49.822       -0.791       20.267       26.314       14.816      410.767      692.428      219.503        0.221        0.066       55.691       10.230        0.034      334.885        5.154      868.853
12/07/2014  09:40:00       21.361       29.017       -1.053       16.246       20.692       21.279      263.922      428.142      452.817        0.122        0.057       36.032       19.053        0.280      334.929        5.227      868.842
12/07/2014  09:41:00        8.521       20.082       11.717       14.650       17.420       10.954      214.610      303.470      119.994        0.063        0.032       21.815       11.302        0.268      335.089        5.492      868.846
12/07/2014  09:42:00      -11.507       38.805       14.000       15.780       29.163       14.821      248.999      850.495      219.674        0.158        0.066       40.475       14.521        0.129      335.176        5.636      868.846
12/07/2014  09:43:00       36.830       34.242       29.689       33.021       28.869       23.790     1090.362      833.392      565.948        0.295        0.124       50.289       18.257        0.132      335.199        5.674      868.837
12/07/2014  09:44:00       22.885       34.145       44.361       28.955       38.162       15.230      838.369     1456.313      231.943        0.309        0.126       41.105       10.948        0.071      335.202        5.679      868.814
12/07/2014  09:45:00       -9.268       36.430       59.171       11.074       28.405       19.593      122.643      806.853      383.898        0.311        0.066       37.590       16.353        0.189      335.345        5.916      868.798
12/07/2014  09:46:00       36.227       33.199       49.237       29.183       29.646       34.742      851.655      878.883     1206.980        0.389        0.147       49.139       31.314        0.406      335.105        5.518      868.788
12/07/2014  09:47:00       29.528        1.113       19.820       35.446       20.494       18.829     1256.422      420.003      354.518        0.165        0.102       29.549       12.013        0.165      335.265        5.784      868.775
12/07/2014  09:48:00       51.902       31.701       21.463       35.542       27.398       23.054     1263.242      750.660      531.473        0.335        0.127       60.817       22.697        0.139      335.114        5.533      868.764
12/07/2014  09:49:00       34.520       45.887       14.560       23.319       27.517       27.497      543.758      757.170      756.075        0.278        0.103       57.421       23.798        0.172      335.187        5.654      868.757
12/07/2014  09:50:00       86.862       55.501        1.418       30.488       29.389       19.873      929.493      863.741      394.946        0.641        0.109      103.080        9.258        0.008      334.985        5.320      868.752
12/07/2014  09:51:00       78.293       16.489        1.534       30.246       36.395       19.494      914.829     1324.590      380.032        0.451        0.131       80.010       15.610        0.038      334.945        5.253      868.762
12/07/2014  09:52:00       25.467       40.371       39.519       27.873       31.651       24.540      776.882     1001.794      602.217        0.311        0.119       47.732       19.355        0.164      335.203        5.680      868.765
12/07/2014  09:53:00       20.459       44.869       51.595       26.877       28.598       25.026      722.356      817.860      626.321        0.363        0.108       49.313       20.541        0.174      335.331        5.895      868.771
12/07/2014  09:54:00       46.342       42.223       33.964       22.817       17.850       25.004      520.624      318.634      625.176        0.327        0.073       62.692       12.897        0.042      335.088        5.490      868.781
12/07/2014  09:55:00       17.961      -10.650       25.286       20.053       32.702       19.350      402.115     1069.415      374.422        0.146        0.092       20.881       19.035        0.831      335.305        5.851      868.793
12/07/2014  09:56:00       46.543       45.913       24.797       27.069       19.368       27.660      732.704      375.115      765.101        0.338        0.094       65.377       14.598        0.050      335.312        5.862      868.790
12/07/2014  09:57:00        4.458       37.681       28.389       20.876       25.031       24.026      435.815      626.548      577.257        0.194        0.082       37.944        5.531        0.021      335.565        6.284      868.788
12/07/2014  09:58:00        4.856       33.340       51.819       21.941       28.632       18.239      481.415      819.795      332.643        0.273        0.082       33.691       17.762        0.278      335.674        6.466      868.776
12/07/2014  09:59:00       40.560       39.125       55.862       24.333       17.132       15.325      592.089      293.506      234.847        0.371        0.056       56.355        7.945        0.020      335.356        5.936      868.770
12/07/2014  10:00:00       78.482       46.703       17.531       22.420       28.283       30.881      502.635      799.929      953.629        0.545        0.113       91.327       20.342        0.050      335.180        5.643      868.757
12/07/2014  10:01:00       48.533       31.445        5.029       29.064       24.533       21.818      844.714      601.845      476.045        0.265        0.096       57.830       13.414        0.054      335.256        5.768      868.730
12/07/2014  10:02:00       65.035       39.542        1.486       30.359       24.011       33.712      921.676      576.532     1136.481        0.421        0.132       76.113        6.130        0.006      335.386        5.986      868.710
12/07/2014  10:03:00       56.961       48.234       14.062       36.716       29.351       29.376     1348.050      861.509      862.923        0.442        0.154       74.640       19.826        0.071      335.461        6.110      868.684
12/07/2014  10:04:00       24.885       41.958        8.975       29.959       27.950       22.417      897.513      781.185      502.517        0.232        0.109       48.782       16.636        0.116      335.572        6.294      868.665
12/07/2014  10:05:00       32.994       12.207        1.577       29.723       23.446       21.038      883.443      549.723      442.599        0.156        0.094       35.180       11.565        0.108      335.520        6.208      868.647
12/07/2014  10:06:00       25.358       42.642       26.888       25.131       39.560       20.967      631.590     1565.032      439.609        0.291        0.132       49.612       20.353        0.168      335.754        6.599      868.631
12/07/2014  10:07:00       16.291       10.190       24.859       24.798       20.584       15.913      614.916      423.716      253.219        0.114        0.065       19.215       12.849        0.447      335.970        6.960      868.620
12/07/2014  10:08:00        2.536       -0.836       23.101        9.055       14.144        9.841       82.000      200.063       96.838        0.046        0.019        2.670        3.560        1.778      336.200        7.342      868.607
12/07/2014  10:09:00        1.128       19.433       15.516       13.484       22.221       18.918      181.817      493.764      357.880        0.083        0.052       19.466       13.282        0.466      335.958        6.939      868.588
12/07/2014  10:10:00       -2.189       13.067       24.036       11.106       12.585       10.930      123.344      158.377      119.468        0.058        0.020       13.249        7.248        0.299      336.179        7.307      868.573
12/07/2014  10:11:00      -16.690       15.231        7.340       12.061       14.568       13.293      145.467      212.222      176.694        0.055        0.027       22.595        9.335        0.171      336.094        7.165      868.551
12/07/2014  10:12:00      -17.881       13.312        2.309       14.824       16.706       12.106      219.743      279.084      146.566        0.057        0.032       22.292        5.995        0.072      335.864        6.782      868.538
12/07/2014  10:13:00        2.882       39.429       17.141       29.744       24.717       21.198      884.724      610.917      449.358        0.190        0.097       39.534       18.356        0.216      336.114        7.199      868.526
12/07/2014  10:14:00       30.140       60.238       13.240       34.309       17.598       23.264     1177.128      309.691      541.228        0.337        0.101       67.358       15.024        0.050      336.030        7.057      868.517
12/07/2014  10:15:00       40.080       48.663       46.653       26.994       22.066       17.076      728.700      486.893      291.598        0.383        0.075       63.044       12.995        0.042      335.952        6.930      868.513
12/07/2014  10:16:00       33.843       20.711       15.641       27.394       18.055       21.091      750.437      325.983      444.838        0.167        0.076       39.677       15.313        0.149      335.930        6.893      868.512
12/07/2014  10:17:00      -21.710       13.761        8.348       15.580       10.183       17.774      242.744      103.698      315.927        0.070        0.033       25.704        9.699        0.142      336.228        7.389      868.518
12/07/2014  10:18:00      -40.873      -19.558       -6.675       22.122       24.324       16.853      489.387      591.657      284.038        0.173        0.068       45.312       16.276        0.129      336.104        7.183      868.523
12/07/2014  10:19:00      -30.837      -20.909      -10.576       24.251       29.726       12.118      588.089      883.627      146.858        0.156        0.081       37.257       12.284        0.109      335.870        6.792      868.522
12/07/2014  10:20:00      -72.125      -12.930       -6.772       18.956       23.585       15.147      359.336      556.253      229.438        0.328        0.057       73.275       11.256        0.024      335.871        6.793      868.523
12/07/2014  10:21:00      -83.401       -2.090       -7.944       11.477       12.036       10.824      131.717      144.869      117.163        0.371        0.020       83.427        6.450        0.006      335.817        6.704      868.538
12/07/2014  10:22:00      -22.837        4.885       19.430       31.642       11.095       19.054     1001.225      123.109      363.044        0.120        0.074       23.354       21.381        0.838      336.374        7.633      868.536
12/07/2014  10:23:00       21.373       16.952       18.237       27.755       15.314       19.627      770.339      234.524      385.230        0.123        0.070       27.279       12.688        0.216      336.517        7.872      868.525
12/07/2014  10:24:00      -21.788      -27.289       15.869       30.559       37.289       23.345      933.880     1390.472      544.967        0.217        0.143       34.920       16.385        0.220      336.521        7.878      868.517
12/07/2014  10:25:00       21.820      -60.963       13.508       48.189       39.097       29.903     2322.180     1528.562      894.213        0.456        0.237       64.750       24.010        0.138      336.266        7.453      868.515
12/07/2014  10:26:00       22.628        8.729       53.765       33.953       56.421       42.168     1152.782     3183.370     1778.112        0.480        0.306       24.253       38.675        2.543      336.542        7.914      868.510
12/07/2014  10:27:00        4.328       34.718       55.431       31.237       32.396       27.474      975.739     1049.471      754.822        0.354        0.139       34.987       21.737        0.386      336.571        7.962      868.493
12/07/2014  10:28:00       56.809       64.073       53.459       36.315       36.478       33.192     1318.761     1330.617     1101.686        0.697        0.188       85.631       28.475        0.111      336.273        7.464      868.463
12/07/2014  10:29:00       45.418       66.289       60.973       47.954       44.013       43.186     2299.585     1937.164     1865.049        0.814        0.305       80.356       38.707        0.232      336.383        7.648      868.422
12/07/2014  10:30:00       12.881       78.168       91.295       35.348       43.150       25.451     1249.466     1861.901      647.734        0.918        0.188       79.222       27.669        0.122      336.499        7.842      868.398
12/07/2014  10:31:00       57.509       46.658       30.059       43.295       39.914       39.330     1874.480     1593.101     1546.857        0.570        0.251       74.056       23.817        0.103      336.463        7.781      868.383
12/07/2014  10:32:00       38.695      -34.000        5.846       57.232       78.438       44.397     3275.464     6152.502     1971.126        0.704        0.570       51.510       40.672        0.623      336.553        7.934      868.383
12/07/2014  10:33:00       27.075       -7.638       58.502       34.744       48.452       36.132     1207.158     2347.624     1305.497        0.454        0.243       28.132       28.107        0.998      336.692        8.165      868.401
12/07/2014  10:34:00       47.070      -50.842       11.526       54.826       73.692       50.697     3005.847     5430.464     2570.175        0.797        0.550       69.286       51.336        0.549      336.380        7.642      868.414
12/07/2014  10:35:00       77.108      -79.937       -7.255       60.492       73.475       48.216     3659.268     5398.535     2324.828        1.188        0.569      111.065       51.954        0.219      336.251        7.427      868.423
12/07/2014  10:36:00       67.411       78.604       45.787       31.781       22.293       34.224     1010.034      496.963     1171.297        0.775        0.134      103.551       24.187        0.055      336.231        7.394      868.442
12/07/2014  10:37:00       59.890       68.139       33.694       34.647       30.641       33.414     1200.389      938.871     1116.482        0.631        0.163       90.718       24.601        0.074      336.152        7.262      868.442
12/07/2014  10:38:00       66.872      -32.569        5.900       40.239       72.043       37.643     1619.182     5190.188     1417.031        0.690        0.411       74.382       45.125        0.368      336.349        7.589      868.442
12/07/2014  10:39:00        8.434       14.426       49.301       40.901       45.461       37.939     1672.853     2066.708     1439.354        0.394        0.259       16.710       21.850        1.710      336.699        8.176      868.430
12/07/2014  10:40:00       53.153      -79.866       29.147       55.834       79.087       49.341     3117.422     6254.821     2434.561        1.093        0.590       95.936       58.098        0.367      336.476        7.803      868.427
12/07/2014  10:41:00       39.247       38.542       52.404       67.938       60.704       48.682     4615.539     3684.916     2369.935        0.822        0.534       55.007       43.885        0.636      336.470        7.793      868.414
12/07/2014  10:42:00      109.079       80.581       66.643       52.460       48.518       48.340     2752.036     2353.956     2336.729        1.514        0.372      135.615       38.690        0.081      336.229        7.390      868.394
12/07/2014  10:43:00       86.667       81.658       59.151       53.373       36.010       43.197     2848.626     1296.693     1866.005        1.184        0.301      119.077       27.060        0.052      336.385        7.651      868.371
12/07/2014  10:44:00       42.900       50.951       53.728       44.359       38.178       32.875     1967.708     1457.571     1080.755        0.591        0.225       66.607       21.644        0.106      336.436        7.737      868.361
12/07/2014  10:45:00      104.501       63.945       44.793       47.829       44.178       34.032     2287.609     1951.681     1158.176        1.121        0.270      122.513       23.948        0.038      336.167        7.287      868.356
12/07/2014  10:46:00       89.108       56.247       -0.913       37.790       32.310       23.315     1428.047     1043.910      543.579        0.706        0.151      105.375        9.164        0.008      336.169        7.292      868.358
12/07/2014  10:47:00      117.974       55.770       27.069       26.228       43.507       23.946      687.888     1892.899      573.434        1.046        0.158      130.492       20.384        0.024      336.136        7.235      868.349
12/07/2014  10:48:00       58.089       62.220       57.994       48.085       76.704       46.584     2312.151     5883.429     2170.110        1.049        0.518       85.121       49.532        0.339      336.428        7.722      868.330
12/07/2014  10:49:00      143.519       76.249       37.805       52.775       40.829       47.885     2785.246     1667.014     2292.993        1.729        0.337      162.517       34.896        0.046      336.229        7.390      868.321
12/07/2014  10:50:00       94.211       90.465       35.118       41.310       26.888       26.615     1706.536      722.967      708.346        1.071        0.157      130.613       22.655        0.030      336.320        7.543      868.326
12/07/2014  10:51:00       12.100       41.184       74.056       41.493       40.872       29.187     1721.699     1670.527      851.871        0.578        0.212       42.924       26.942        0.394      336.816        8.372      868.326
12/07/2014  10:52:00       12.635       51.490       68.809       27.925       36.076       24.109      779.831     1301.509      581.250        0.510        0.133       53.018       23.145        0.191      336.707        8.190      868.324
12/07/2014  10:53:00       -5.539       24.131       66.325       20.408       35.820       25.334      416.476     1283.107      641.825        0.368        0.117       24.759       23.694        0.916      337.033        8.734      868.301
12/07/2014  10:54:00       -0.917       28.860       60.464       24.359       26.042       25.783      593.369      678.176      664.750        0.321        0.097       28.874       20.139        0.486      336.871        8.464      868.284
12/07/2014  10:55:00       -8.961        4.768       35.829       16.529       30.890       23.306      273.219      954.184      543.152        0.158        0.089       10.151       17.059        2.824      337.076        8.807      868.266
12/07/2014  10:56:00       43.371      -39.849       28.880       39.150       46.802       33.091     1532.718     2190.435     1095.035        0.456        0.241       58.898       27.076        0.211      336.891        8.497      868.246
12/07/2014  10:57:00       62.897       21.327       31.204       65.065       66.946       33.915     4233.474     4481.715     1150.226        0.762        0.493       66.414       18.056        0.074      336.636        8.071      868.218
12/07/2014  10:58:00       94.643       82.392        8.550       36.645       31.888       35.357     1342.872     1016.857     1250.122        0.971        0.180      125.482       22.919        0.033      336.482        7.813      868.204
12/07/2014  10:59:00       35.378       51.771       30.685       28.767       36.447       29.652      827.526     1328.412      879.218        0.395        0.152       62.705       11.380        0.033      336.907        8.523      868.187
12/07/2014  11:00:00       29.855       54.779       11.852       44.029       26.232       21.662     1938.578      688.139      469.233        0.356        0.155       62.386       18.764        0.090      336.788        8.326      868.205
12/07/2014  11:01:00       32.429       25.076       15.957       30.771       21.422       21.096      946.854      458.906      445.041        0.189        0.093       40.993       14.759        0.130      336.844        8.419      868.230
12/07/2014  11:02:00       -0.173       35.336        3.610       18.721       36.579       18.929      350.485     1338.005      358.295        0.165        0.102       35.337        7.307        0.043      336.977        8.641      868.235
12/07/2014  11:03:00       18.596       58.805       -1.892       25.428       27.539       25.067      646.602      758.401      628.372        0.292        0.102       61.675       17.968        0.085      336.927        8.558      868.226
12/07/2014  11:04:00      107.381       67.784       21.710       40.808       26.563       31.152     1665.323      705.576      970.442        0.997        0.167      126.985       18.855        0.022      336.896        8.506      868.177
12/07/2014  11:05:00       45.797       84.642       77.763       47.614       42.860       44.232     2267.092     1837.000     1956.455        1.068        0.303       96.237       34.718        0.130      336.859        8.445      868.140
12/07/2014  11:06:00      106.927      116.429       87.977       32.053       24.308       30.004     1027.370      590.881      900.239        1.762        0.126      158.079       20.670        0.017      336.561        7.946      868.111
12/07/2014  11:07:00       98.347      107.663       81.748       53.933       31.112       38.171     2908.759      967.930     1457.036        1.664        0.267      145.820       28.738        0.039      336.552        7.931      868.078
12/07/2014  11:08:00       79.993       78.445       70.013       69.940       30.449       42.285     4891.545      927.162     1788.060        1.253        0.380      112.038       43.826        0.153      336.776        8.305      868.077
12/07/2014  11:09:00       77.700       84.141       48.606       48.086       24.709       36.064     2312.286      610.539     1300.636        0.985        0.211      114.530       26.947        0.055      336.661        8.114      868.051
12/07/2014  11:10:00       44.079       16.000       26.116       35.439       48.299       42.368     1255.953     2332.817     1795.065        0.413        0.269       46.893       39.101        0.695      336.602        8.015      868.064
12/07/2014  11:11:00       69.745        8.553       10.833       55.007       66.521       33.345     3025.813     4425.027     1111.895        0.681        0.428       70.268       21.504        0.094      336.902        8.516      868.052
12/07/2014  11:12:00      123.971       62.694       22.327       48.354       51.823       37.280     2338.151     2685.601     1389.835        1.310        0.321      138.922       32.186        0.054      336.847        8.422      868.051
12/07/2014  11:13:00       72.985       77.619       45.274       54.827       36.521       44.820     3005.968     1333.752     2008.848        0.987        0.317      106.543       39.172        0.135      336.965        8.620      868.064
12/07/2014  11:14:00       65.683       73.165       46.528       27.056       22.942       25.161      732.036      526.345      633.085        0.686        0.095       98.323       16.674        0.029      336.571        7.961      868.063
12/07/2014  11:15:00       18.986       36.220       13.175       20.134       31.935       33.316      405.372     1019.839     1109.943        0.219        0.127       40.894       21.147        0.267      336.820        8.380      868.061
12/07/2014  11:16:00       18.883       49.188       61.878       30.181       38.256       41.615      910.893     1463.510     1731.781        0.535        0.205       52.688       33.273        0.399      336.955        8.604      868.035
12/07/2014  11:17:00       41.071       71.307       69.297       38.382       35.751       32.488     1473.142     1278.169     1055.444        0.769        0.190       82.289       25.157        0.093      336.974        8.636      867.989
12/07/2014  11:18:00       73.710       56.112       62.122       33.673       44.042       34.650     1133.883     1939.663     1200.594        0.836        0.214       92.638       28.310        0.093      336.784        8.319      867.967
12/07/2014  11:19:00       21.492       45.135       63.145       42.589       41.703       33.650     1813.796     1739.150     1132.320        0.558        0.234       49.991       31.492        0.397      336.983        8.651      867.914
12/07/2014  11:20:00       70.288       75.566        9.838       50.484       37.841       36.553     2548.640     1431.933     1336.104        0.803        0.266      103.202       29.234        0.080      336.921        8.547      867.886
12/07/2014  11:21:00       73.602       54.127       38.200       65.326       47.563       43.323     4267.537     2262.212     1876.884        0.910        0.420       91.361       35.737        0.153      337.098        8.844      867.861
12/07/2014  11:22:00       -7.458       89.582      106.532       28.946       53.329       36.212      837.853     2844.016     1311.311        1.221        0.250       89.892       33.076        0.135      337.021        8.713      867.853
12/07/2014  11:23:00       38.775       66.074       76.210       52.455       45.501       34.029     2751.544     2070.342     1157.954        0.883        0.299       76.611       31.862        0.173      337.086        8.822      867.856
12/07/2014  11:24:00       89.581       59.211       14.270       23.868       22.030       26.901      569.661      485.317      723.671        0.676        0.089      107.382        8.609        0.006      336.716        8.205      867.834
12/07/2014  11:25:00       68.690       59.255       21.794       43.270       29.774       33.689     1872.268      886.475     1134.923        0.630        0.195       90.717       19.388        0.046      336.837        8.407      867.802
12/07/2014  11:26:00       90.680       61.411       21.073       32.818       28.032       35.438     1077.011      785.776     1255.882        0.778        0.156      109.518       20.245        0.034      336.812        8.366      867.754
12/07/2014  11:27:00       48.542       48.962       32.942       35.160       41.443       40.096     1236.212     1717.521     1607.650        0.520        0.228       68.946       10.670        0.024      336.974        8.635      867.693
12/07/2014  11:28:00       22.732       18.169       51.566       39.074       36.660       34.355     1526.786     1343.940     1180.233        0.378        0.203       29.101       33.266        1.307      337.154        8.938      867.659
12/07/2014  11:29:00       39.358       57.744       45.696       52.750       40.050       38.375     2782.556     1604.036     1472.678        0.641        0.293       69.882       31.899        0.208      337.071        8.798      867.646
12/07/2014  11:30:00       19.935       40.599       13.105       46.868       35.537       25.156     2196.587     1262.891      632.810        0.315        0.205       45.229        6.552        0.021      337.116        8.873      867.627
12/07/2014  11:31:00       77.913       67.047       25.479       37.498       33.344       30.868     1406.104     1111.841      952.815        0.734        0.174      102.790       12.078        0.014      337.056        8.772      867.601
12/07/2014  11:32:00       84.736       48.079       15.486       33.299       23.798       28.218     1108.798      566.355      796.245        0.610        0.124       97.426       19.285        0.039      337.035        8.736      867.582
12/07/2014  11:33:00       82.005       62.080       47.783       36.468       20.115       29.801     1329.907      404.620      888.071        0.774        0.131      102.853       24.019        0.055      336.836        8.406      867.575
12/07/2014  11:34:00       63.235       34.104       56.954       34.026       41.518       33.640     1157.780     1723.705     1131.633        0.621        0.201       71.845       27.655        0.148      336.909        8.526      867.565
12/07/2014  11:35:00       -5.098      -31.547        4.988       16.522       40.551       21.874      272.971     1644.422      478.479        0.172        0.120       31.957       21.471        0.451      337.032        8.732      867.551
12/07/2014  11:36:00       32.180      -99.555      -20.431       22.326       18.089       22.038      498.452      327.207      485.662        0.634        0.066      104.627       13.078        0.016      336.924        8.551      867.529
12/07/2014  11:37:00        6.798      -55.196       19.215       22.082       29.883       24.502      487.612      892.981      600.332        0.272        0.099       55.613       14.244        0.066      337.001        8.682      867.520
12/07/2014  11:38:00       32.962       -7.511       26.000       34.427       28.803       23.667     1185.249      829.588      560.105        0.220        0.129       33.807       17.586        0.271      337.154        8.938      867.518
12/07/2014  11:39:00       -4.280      -17.908       16.522       17.733       18.289       11.460      314.463      334.476      131.330        0.070        0.039       18.413        7.382        0.161      337.161        8.947      867.506
12/07/2014  11:40:00      -50.203        6.455        5.073       20.793       21.220       16.313      432.342      450.306      266.118        0.187        0.057       50.616       13.259        0.069      337.056        8.772      867.493
12/07/2014  11:41:00      -36.659       -2.621        2.756       34.259       17.818       14.274     1173.679      317.465      203.752        0.153        0.085       36.752       14.683        0.160      337.110        8.863      867.481
12/07/2014  11:42:00      -11.567      -19.591        8.280       18.776       19.937       14.545      352.543      397.485      211.562        0.077        0.048       22.751       14.046        0.381      337.259        9.112      867.481
12/07/2014  11:43:00        3.497      -29.582        8.535       19.693       29.603       20.914      387.809      876.335      437.412        0.133        0.085       29.787       19.798        0.442      337.339        9.247      867.478
12/07/2014  11:44:00       -1.742        5.563       21.443       22.162       24.972       23.165      491.169      623.619      536.598        0.107        0.083        5.829       19.977       11.744      337.341        9.249      867.462
12/07/2014  11:45:00        8.612       19.518       34.150       20.554       27.904       14.867      422.485      778.654      221.021        0.152        0.071       21.333       10.661        0.250      337.341        9.250      867.440
12/07/2014  11:46:00       -4.317      -33.581        4.387       26.980       29.820       21.110      727.932      889.246      445.618        0.161        0.103       33.858       21.869        0.417      337.264        9.120      867.438
12/07/2014  11:47:00      -39.536       18.611        3.832       16.473       18.160       20.327      271.356      329.796      413.186        0.147        0.051       43.698       12.185        0.078      337.123        8.882      867.447
12/07/2014  11:48:00      -20.933       22.862        0.134       24.694       25.885       13.817      609.798      670.057      190.921        0.122        0.074       30.998       11.761        0.144      337.256        9.108      867.441
12/07/2014  11:49:00        1.636       26.699       37.602       15.658       24.109       19.171      245.180      581.222      367.524        0.166        0.060       26.749       10.916        0.167      337.461        9.450      867.418
12/07/2014  11:50:00       -6.695       15.162       38.082       17.661       26.246       16.643      311.912      688.833      277.004        0.150        0.064       16.575       14.805        0.798      337.495        9.508      867.377
12/07/2014  11:51:00       -6.693        8.972       26.386       18.237       18.675       15.990      332.572      348.757      255.674        0.088        0.047       11.193        8.420        0.566      337.548        9.596      867.339
12/07/2014  11:52:00       -8.858       -7.319       19.541       14.068       20.859       11.548      197.907      435.084      133.349        0.064        0.038       11.490        7.046        0.376      337.590        9.666      867.307
12/07/2014  11:53:00        0.574      -38.064       23.913       18.696       39.399       23.493      349.528     1552.246      551.915        0.224        0.123       38.068       20.866        0.300      337.408        9.363      867.293
12/07/2014  11:54:00       -5.651       15.859       39.438       11.701       25.648       22.414      136.920      657.835      502.387        0.157        0.065       16.836       11.067        0.432      337.619        9.715      867.286
12/07/2014  11:55:00       -9.332        7.877       19.336       19.772       13.858       12.259      390.920      192.040      150.278        0.063        0.037       12.212        6.140        0.253      337.448        9.429      867.284
12/07/2014  11:56:00       -3.604        8.874       18.762       10.766       17.861       16.303      115.912      319.033      265.796        0.057        0.035        9.578       13.925        2.114      337.526        9.560      867.270
12/07/2014  11:57:00       -2.996       -9.363       23.975       21.945       17.668       18.077      481.575      312.155      326.763        0.090        0.056        9.831       11.411        1.347      337.583        9.655      867.251
12/07/2014  11:58:00      -15.783        0.131       -1.541       13.968       20.972       17.247      195.114      439.835      297.474        0.059        0.047       15.783        9.718        0.379      337.480        9.484      867.235
12/07/2014  11:59:00       -5.921      -22.394       29.146       15.817       20.669       15.658      250.179      427.211      245.181        0.115        0.046       23.163       11.701        0.255      337.594        9.675      867.215
12/07/2014  12:00:00       -6.274       16.303       30.999       21.473       24.770       20.022      461.092      613.549      400.890        0.137        0.074       17.469        7.016        0.161      337.553        9.605      867.194
12/07/2014  12:01:00       -4.035       15.036       43.533       18.499       20.557       13.015      342.204      422.573      169.385        0.154        0.047       15.568        7.109        0.209      337.678        9.813      867.181
12/07/2014  12:02:00       10.978       28.137       37.141       29.938       34.756       26.094      896.313     1207.985      680.874        0.254        0.139       30.203       22.468        0.553      337.591        9.668      867.166
12/07/2014  12:03:00       43.256       31.079       31.299       28.637       31.812       28.219      820.076     1011.979      796.315        0.322        0.131       53.263       10.840        0.041      337.286        9.158      867.148
12/07/2014  12:04:00       13.859       28.870       16.520       19.141       29.689       21.651      366.362      881.446      468.752        0.151        0.086       32.024        9.133        0.081      337.403        9.354      867.140
12/07/2014  12:05:00       33.153       11.671       36.956       32.775       32.853       29.038     1074.222     1079.326      843.234        0.280        0.150       35.147       29.546        0.707      337.250        9.096      867.132
12/07/2014  12:06:00       40.034        0.911       12.013       28.081       30.741       19.637      788.560      945.031      385.625        0.193        0.106       40.044       19.766        0.244      337.145        8.921      867.117
12/07/2014  12:07:00       25.948        3.698       19.912       42.215       45.209       25.739     1782.114     2043.864      662.508        0.279        0.224       26.210       24.870        0.900      337.245        9.088      867.100
12/07/2014  12:08:00       41.815       52.814       42.620       35.731       28.038       29.861     1276.687      786.102      891.654        0.465        0.148       67.363       27.569        0.167      337.302        9.184      867.081
12/07/2014  12:09:00       36.049       45.367       27.037       34.947       29.579       41.367     1221.290      874.936     1711.263        0.395        0.190       57.946       27.925        0.232      337.432        9.402      867.054
12/07/2014  12:10:00       53.526       62.730       38.597       57.304       41.900       36.662     3283.746     1755.615     1344.105        0.734        0.319       82.462       31.568        0.147      337.468        9.462      867.032
12/07/2014  12:11:00      145.713       78.425       11.634       36.329       34.947       27.364     1319.769     1221.328      748.810        1.540        0.164      165.478       11.972        0.005      337.173        8.969      867.017
12/07/2014  12:12:00      108.777       83.552       27.991       30.051       21.164       28.431      903.048      447.900      808.349        1.088        0.108      137.162       16.504        0.014      337.190        8.997      867.002
12/07/2014  12:13:00      109.881       75.334        7.105       36.074       29.179       29.681     1301.324      851.419      880.991        1.042        0.152      133.226        9.654        0.005      337.216        9.041      866.981
12/07/2014  12:14:00       98.040       63.048        9.022       20.355       19.734       21.671      414.310      389.423      469.615        0.747        0.064      116.562       12.622        0.012      337.122        8.883      866.969
12/07/2014  12:15:00       94.297       63.420       16.363       34.735       34.725       24.847     1206.495     1205.830      617.396        0.811        0.151      113.640       15.530        0.019      337.224        9.053      866.963
12/07/2014  12:16:00       93.620       77.152       30.454       24.243       26.009       22.816      587.720      676.465      520.578        0.871        0.089      121.315       16.170        0.018      337.186        8.991      866.941
12/07/2014  12:17:00      111.017       79.713       11.578       23.884       19.898       19.050      570.448      395.933      362.917        1.007        0.066      136.670        7.788        0.003      337.128        8.892      866.931
12/07/2014  12:18:00       89.059       72.509       13.265       26.391       21.712       22.418      696.459      471.428      502.559        0.752        0.084      114.844        8.055        0.005      337.158        8.943      866.921
12/07/2014  12:19:00       80.968       57.010       12.111       15.191       11.752       17.944      230.776      138.108      321.999        0.532        0.035       99.025       11.589        0.014      337.110        8.863      866.906
12/07/2014  12:20:00       56.380       35.338       -0.440        9.836       11.985        9.108       96.744      143.629       82.964        0.238        0.016       66.540        4.916        0.005      337.170        8.964      866.895
12/07/2014  12:21:00       71.792       55.688        1.541       18.120       24.692       20.610      328.333      609.717      424.774        0.481        0.068       90.858       11.564        0.016      337.214        9.037      866.874
12/07/2014  12:22:00       58.106       43.022       13.145       24.213       27.106       23.951      586.274      734.724      573.663        0.365        0.095       72.300       12.389        0.029      337.313        9.203      866.844
12/07/2014  12:23:00       30.541       83.505       85.844       35.757       40.460       18.215     1278.554     1636.974      331.796        0.926        0.162       88.915       16.060        0.033      337.397        9.343      866.793
12/07/2014  12:24:00       24.757       47.813       46.928       36.160       34.582       29.699     1307.517     1195.936      882.011        0.424        0.169       53.842       26.728        0.246      337.509        9.531      866.758
12/07/2014  12:25:00       33.392       25.646       47.398       31.698       24.917       22.227     1004.734      620.878      494.023        0.307        0.106       42.104       16.068        0.146      337.507        9.528      866.739
12/07/2014  12:26:00       49.813      -21.384       27.288       31.636       23.005       19.241     1000.807      529.221      370.223        0.279        0.095       54.209       16.884        0.097      337.352        9.267      866.727
12/07/2014  12:27:00       13.641       27.489       37.187       32.578       31.670       20.771     1061.303     1003.012      431.416        0.241        0.125       30.687       15.002        0.239      337.662        9.788      866.729
12/07/2014  12:28:00       38.937       32.395       55.079       34.506       34.798       27.091     1190.684     1210.921      733.911        0.437        0.157       50.651       24.683        0.237      337.526        9.560      866.739
12/07/2014  12:29:00        7.480       19.533      -14.055       13.313       19.131       13.799      177.239      366.007      190.403        0.068        0.037       20.916       12.096        0.334      337.462        9.451      866.738
12/07/2014  12:30:00        1.330      -13.573       -4.350        9.443       14.578       11.608       89.173      212.531      134.755        0.032        0.022       13.638        6.575        0.232      337.385        9.323      866.725
12/07/2014  12:31:00        4.162       -4.968       27.145       12.591       10.019        9.376      158.533      100.377       87.906        0.056        0.017        6.481        8.131        1.574      337.859       10.118      866.701
12/07/2014  12:32:00      -31.162        7.429       -3.787       17.809       11.076       14.335      317.150      122.671      205.479        0.084        0.032       32.035       13.293        0.172      337.413        9.371      866.663
12/07/2014  12:33:00       20.418       19.304        8.975       31.604       25.120       13.911      998.793      631.007      193.509        0.135        0.091       28.099       11.851        0.178      337.616        9.710      866.627
12/07/2014  12:34:00       62.650       30.217       18.275       48.365       33.424       24.530     2339.169     1117.181      601.715        0.461        0.203       69.557       18.129        0.068      337.605        9.691      866.616
12/07/2014  12:35:00       85.704       42.951       28.311       52.625       39.936       31.650     2769.418     1594.899     1001.725        0.768        0.268       95.864       32.739        0.117      337.596        9.676      866.607
12/07/2014  12:36:00       23.655       47.738       31.430       38.186       29.575       36.353     1458.188      874.695     1321.539        0.374        0.183       53.277       28.138        0.279      337.716        9.878      866.601
12/07/2014  12:37:00       91.578       51.626       14.020       50.354       26.267       32.225     2535.492      689.977     1038.429        0.776        0.213      105.127       30.289        0.083      337.635        9.744      866.609
12/07/2014  12:38:00       83.721       54.817       32.798       29.821       29.384       32.277      889.296      863.405     1041.835        0.694        0.140      100.070       20.063        0.040      337.615        9.709      866.610
12/07/2014  12:39:00       28.599       51.251        3.413       44.148       14.682       17.923     1949.010      215.572      321.242        0.297        0.124       58.691       18.689        0.101      337.466        9.458      866.612
12/07/2014  12:40:00       26.906       18.583        1.259       24.297       25.306       19.042      590.351      640.410      362.602        0.133        0.080       32.700       12.037        0.136      337.661        9.785      866.600
12/07/2014  12:41:00        1.932       -6.299       38.768       43.388       50.486       34.002     1882.534     2548.800     1156.148        0.357        0.279        6.589       32.054       23.666      338.001       10.356      866.569
12/07/2014  12:42:00       23.848      -21.974       23.726       40.589       56.766       34.874     1647.458     3222.377     1216.170        0.385        0.304       32.428       32.682        1.016      337.823       10.058      866.533
12/07/2014  12:43:00       41.114       41.649       55.900       50.689       57.408       44.145     2569.391     3295.646     1948.782        0.718        0.391       58.523       32.052        0.300      337.756        9.944      866.496
12/07/2014  12:44:00       52.367      -14.324       20.377       46.097       60.920       37.398     2124.937     3711.191     1398.577        0.530        0.362       54.290       32.320        0.354      337.798       10.015      866.473
12/07/2014  12:45:00       38.834       30.556       38.892       67.009       49.910       38.992     4490.269     2491.028     1520.380        0.623        0.425       49.414       29.548        0.358      337.721        9.887      866.450
12/07/2014  12:46:00       32.947       85.788       72.631       35.689       57.764       35.156     1273.711     3336.710     1235.939        0.978        0.292       91.897       29.285        0.102      337.706        9.862      866.439
12/07/2014  12:47:00        7.702       16.686       25.709       35.261       43.983       40.614     1243.366     1934.475     1649.471        0.291        0.241       18.378       29.902        2.647      337.662        9.787      866.430
12/07/2014  12:48:00       10.831       54.949       -9.388       22.937       49.661       15.370      526.122     2466.217      236.236        0.323        0.161       56.006       15.119        0.073      337.561        9.618      866.416
12/07/2014  12:49:00       35.135       41.279        4.745       33.356       29.777       23.762     1112.610      886.644      564.623        0.276        0.128       54.207       18.393        0.115      337.751        9.938      866.423
12/07/2014  12:50:00       11.525       16.751       -3.749       16.803       27.757       17.642      282.327      770.427      311.233        0.090        0.068       20.333       11.759        0.334      337.917       10.215      866.438
12/07/2014  12:51:00       -2.377      -20.077       35.357       24.305       50.718       26.481      590.727     2572.332      701.225        0.276        0.193       20.217       21.028        1.082      338.093       10.510      866.448
12/07/2014  12:52:00       28.536        8.339       39.246       33.210       38.774       33.999     1102.910     1503.423     1155.949        0.309        0.188       29.729       36.784        1.531      337.788        9.999      866.446
12/07/2014  12:53:00       30.809       46.080       57.623       29.315       40.027       27.694      859.355     1602.191      766.935        0.481        0.161       55.430       15.834        0.082      337.711        9.871      866.433
12/07/2014  12:54:00       36.462      -26.842        5.095       13.439       12.240       17.194      180.617      149.826      295.624        0.135        0.031       45.277        7.843        0.030      337.617        9.712      866.417
12/07/2014  12:55:00        9.694      -17.063       16.522       16.960       29.246       14.020      287.634      855.352      196.560        0.100        0.067       19.624       10.670        0.296      337.896       10.181      866.392
12/07/2014  12:56:00        3.171       -5.344       20.084       12.618       28.294       19.519      159.213      800.565      381.006        0.089        0.067        6.214       21.362       11.818      338.073       10.476      866.373
12/07/2014  12:57:00        3.617       21.664       38.289       24.359       38.640       21.246      593.345     1493.088      451.407        0.224        0.127       21.964       19.899        0.821      337.969       10.301      866.379
12/07/2014  12:58:00       45.365       64.042        7.808       27.776       29.843       21.560      771.480      890.629      464.829        0.417        0.106       78.481       16.222        0.043      337.749        9.934      866.378
12/07/2014  12:59:00        7.074       55.465        0.118       17.976       30.856       20.081      323.148      952.083      403.240        0.240        0.084       55.914       16.837        0.091      337.707        9.862      866.356
12/07/2014  13:00:00       44.133       30.530       17.650       29.744       28.950       22.706      884.688      838.075      515.572        0.271        0.112       53.663       15.797        0.087      337.883       10.157      866.295
12/07/2014  13:01:00       66.954       61.289       -5.964       40.796       39.631       25.204     1664.324     1570.580      635.237        0.607        0.194       90.770       23.223        0.065      337.701        9.854      866.246
12/07/2014  13:02:00       19.475       47.029        7.197       15.073       29.684       23.979      227.185      881.125      575.005        0.216        0.084       50.902       22.476        0.195      337.797       10.014      866.197
12/07/2014  13:03:00       37.135       52.166       14.266       28.247       26.458       30.302      797.902      700.034      918.197        0.336        0.121       64.034       14.685        0.053      337.798       10.015      866.171
12/07/2014  13:04:00       59.852       70.072       54.745       40.965       46.156       32.558     1678.109     2130.360     1060.043        0.818        0.243       92.154       25.768        0.078      337.845       10.094      866.152
12/07/2014  13:05:00       87.871       55.939       10.663       34.298       37.234       29.301     1176.358     1386.357      858.557        0.719        0.171      104.166        7.495        0.005      337.684        9.825      866.143
12/07/2014  13:06:00       58.848       36.600        8.544       41.943       41.407       30.712     1759.173     1714.505      943.200        0.465        0.221       69.301       27.826        0.161      337.829       10.068      866.135
12/07/2014  13:07:00       40.009       59.002       -4.167       26.213       32.246       27.103      687.121     1039.785      734.579        0.378        0.123       71.287       24.031        0.114      337.670        9.801      866.135
12/07/2014  13:08:00       73.622       65.459        3.189       21.886       23.819       26.167      478.978      567.355      684.730        0.572        0.087       98.514       18.247        0.034      337.649        9.765      866.124
12/07/2014  13:09:00       38.438       50.073       -8.430       27.041       18.520       15.340      731.236      342.982      235.302        0.268        0.065       63.125       12.227        0.038      337.624        9.726      866.088
12/07/2014  13:10:00        8.178       83.881       -1.911       15.805       28.420       18.751      249.809      807.712      351.607        0.426        0.070       84.278       16.436        0.038      337.711        9.870      866.073
12/07/2014  13:11:00       24.867       37.151        2.417       17.032       24.691       20.159      290.074      609.664      406.383        0.165        0.065       44.705       18.953        0.180      337.764        9.957      866.057
12/07/2014  13:12:00       42.764       22.867       10.671       22.200       21.505       19.418      492.825      462.480      377.049        0.190        0.067       48.494       13.844        0.081      337.725        9.893      866.054
12/07/2014  13:13:00       45.512       42.517        2.730       26.792       21.630       21.538      717.831      467.855      463.895        0.277        0.082       62.282       14.767        0.056      337.709        9.867      866.041
12/07/2014  13:14:00       24.260       30.194       13.005       20.434       21.916       23.601      417.558      480.302      556.984        0.156        0.073       38.733       16.143        0.174      337.836       10.079      866.015
12/07/2014  13:15:00       31.523       26.445       -0.890       12.989       21.540       20.152      168.712      463.954      406.106        0.137        0.052       41.147        3.146        0.006      337.723        9.890      865.986
12/07/2014  13:16:00       24.687       42.521        6.857       23.113       24.324       26.192      534.191      591.675      686.045        0.214        0.091       49.168       19.024        0.150      337.838       10.082      865.940
12/07/2014  13:17:00       93.428       70.865       13.044       34.900       21.407       29.741     1218.044      458.252      884.534        0.824        0.128      117.263       14.235        0.015      337.794       10.009      865.905
12/07/2014  13:18:00      108.680       62.366       15.547       24.012       16.535       18.249      576.562      273.392      333.027        0.856        0.059      125.303       14.289        0.013      337.722        9.890      865.886
12/07/2014  13:19:00       87.469       55.235       16.168       34.703       20.649       22.100     1204.311      426.368      488.403        0.654        0.106      103.449       13.066        0.016      337.755        9.945      865.868
12/07/2014  13:20:00       76.553       54.979       24.112       37.218       31.913       30.318     1385.205     1018.414      919.162        0.639        0.166       94.250       24.524        0.068      337.753        9.939      865.850
12/07/2014  13:21:00       91.806       60.587        9.194       22.181       21.170       21.672      491.984      448.173      469.658        0.680        0.070      109.996       12.553        0.013      337.739        9.916      865.829
12/07/2014  13:22:00       79.124       61.632       28.541       23.736       18.558       18.232      563.382      344.389      332.390        0.606        0.062      100.296       11.773        0.014      337.780        9.986      865.815
12/07/2014  13:23:00       76.608       66.920       23.510       31.939       19.210       25.097     1020.084      369.029      629.863        0.646        0.101      101.721       16.587        0.027      337.762        9.955      865.793
12/07/2014  13:24:00       99.366       55.459       16.232       32.633       22.072       29.493     1064.919      487.175      869.842        0.782        0.121      113.795       14.918        0.017      337.815       10.044      865.763
12/07/2014  13:25:00       65.162       65.348       -2.507       35.770       24.792       26.023     1279.504      614.648      677.202        0.555        0.129       92.284       17.729        0.037      337.761        9.953      865.738
12/07/2014  13:26:00       81.188       58.213        4.253       32.537       20.555       20.243     1058.667      422.515      409.787        0.594        0.095       99.901       16.671        0.028      337.745        9.925      865.709
12/07/2014  13:27:00       80.484       70.898        2.976       25.527       19.191       17.591      651.618      368.294      309.449        0.642        0.066      107.257        7.647        0.005      337.745        9.926      865.687
12/07/2014  13:28:00       68.372       40.542       24.019       43.359       28.516       24.843     1880.002      813.173      617.168        0.510        0.166       79.488       19.264        0.059      337.909       10.201      865.664
12/07/2014  13:29:00       33.447       48.851        8.665       28.732       20.201       21.915      825.536      408.086      480.273        0.265        0.086       59.204       12.298        0.043      337.881       10.155      865.650
12/07/2014  13:30:00       -9.372        6.215       25.834       15.076       21.570       16.420      227.282      465.265      269.614        0.088        0.048       11.245        8.487        0.570      338.286       10.834      865.647
12/07/2014  13:31:00       26.349       40.716       44.686       32.070       27.969       21.042     1028.459      782.247      442.754        0.330        0.113       48.498       12.626        0.068      338.102       10.525      865.648
12/07/2014  13:32:00       28.904       41.232       21.874       36.230       17.732       21.105     1312.620      314.436      445.403        0.254        0.104       50.354       12.166        0.058      338.049       10.436      865.639
12/07/2014  13:33:00       25.206       21.711       16.478       18.880       15.266       17.810      356.441      233.061      317.193        0.114        0.045       33.267       12.438        0.140      337.990       10.339      865.637
12/07/2014  13:34:00      -10.650       -8.607       25.993       13.987       26.358       16.125      195.648      694.751      260.023        0.101        0.058       13.693       13.128        0.919      338.361       10.960      865.615
12/07/2014  13:35:00       17.784       39.318       57.267       27.165       33.706       10.631      737.936     1136.082      113.024        0.356        0.099       43.153       14.334        0.110      338.213       10.713      865.614
12/07/2014  13:36:00       54.626       50.449       35.106       18.592       11.448       20.922      345.666      131.059      437.715        0.384        0.046       74.358        9.611        0.017      337.955       10.280      865.610
12/07/2014  13:37:00       37.799       43.879       33.931       21.727       13.670       22.039      472.065      186.857      485.712        0.282        0.057       57.915       10.607        0.034      338.026       10.397      865.615
12/07/2014  13:38:00       29.619        8.257       16.101       26.699       17.096       16.447      712.824      292.261      270.509        0.124        0.064       30.749       11.650        0.144      338.116       10.549      865.613
12/07/2014  13:39:00       21.616       13.357       31.240       19.329       22.864       15.623      373.600      522.758      244.065        0.138        0.057       25.410       14.202        0.312      338.201       10.692      865.609
12/07/2014  13:40:00       21.033       26.149       -2.368       25.075       16.971       13.301      628.749      288.016      176.923        0.111        0.055       33.558       11.488        0.117      337.948       10.269      865.601
12/07/2014  13:41:00      -19.034       12.444      -12.803        8.500       12.204        6.436       72.253      148.927       41.425        0.047        0.013       22.741        5.319        0.055      338.036       10.416      865.583
12/07/2014  13:42:00      -39.840       18.045       -9.509       17.849       19.434       17.338      318.595      377.672      300.591        0.150        0.050       43.736       10.846        0.062      338.099       10.521      865.568
12/07/2014  13:43:00       -9.163       21.520        2.065       18.464       29.311       12.723      340.932      859.118      161.875        0.096        0.068       23.390       13.998        0.358      338.331       10.908      865.558
12/07/2014  13:44:00        7.337        8.991       12.682       15.572       17.634       15.046      242.473      310.946      226.382        0.054        0.039       11.605       14.372        1.534      338.485       11.169      865.556
12/07/2014  13:45:00       14.554       20.663       27.680       29.575       24.981       17.422      874.661      624.033      303.524        0.160        0.090       25.274        9.588        0.144      338.514       11.217      865.568
12/07/2014  13:46:00        4.987       24.823       43.154       16.419       24.226       14.455      269.578      586.908      208.955        0.178        0.053       25.319       15.378        0.369      338.488       11.173      865.580
12/07/2014  13:47:00       16.317        9.115       22.723       15.634       16.046       12.449      244.437      257.481      154.983        0.076        0.033       18.690       11.718        0.393      338.330       10.908      865.583
12/07/2014  13:48:00       13.093       21.814       11.913       16.011       16.464       13.645      256.340      271.080      186.182        0.075        0.036       25.442        7.988        0.099      338.319       10.889      865.578
12/07/2014  13:49:00        6.364       11.590        0.399       10.206        8.977       14.077      104.161       80.579      198.170        0.028        0.019       13.222        7.137        0.291      338.408       11.039      865.580
12/07/2014  13:50:00        5.236       47.229       -2.166       15.042       37.092       16.702      226.251     1375.815      278.948        0.207        0.094       47.518       13.907        0.086      338.322       10.895      865.581
12/07/2014  13:51:00        6.289       70.168      -17.180       17.098       16.964       11.839      292.350      287.784      140.154        0.299        0.036       70.449        8.138        0.013      338.171       10.640      865.579
12/07/2014  13:52:00       -0.688       71.741      -17.226       15.564       16.428       17.147      242.253      269.883      294.015        0.312        0.040       71.744       11.137        0.024      338.187       10.669      865.571
12/07/2014  13:53:00       -0.561       57.941       -9.091       28.003       39.963       22.765      784.148     1597.019      518.260        0.317        0.145       57.944       23.699        0.167      338.432       11.080      865.559
12/07/2014  13:54:00       12.351       58.144       -5.731       16.536       21.731       18.757      273.426      472.231      351.832        0.233        0.055       59.442       12.041        0.041      338.337       10.921      865.553
12/07/2014  13:55:00      -16.289       50.753      -13.369       17.272       25.930       12.845      298.321      672.375      164.983        0.208        0.057       53.303        5.809        0.012      338.233       10.746      865.546
12/07/2014  13:56:00      -11.826       57.414      -11.153       20.719       18.724       21.581      429.270      350.594      465.747        0.240        0.062       58.620       14.351        0.060      338.320       10.891      865.519
12/07/2014  13:57:00       -3.751       26.827       18.524       31.091       24.219       24.739      966.654      586.575      612.029        0.162        0.108       27.088       18.914        0.488      338.681       11.498      865.501
12/07/2014  13:58:00       16.488       18.992       12.642       19.984       18.509       16.943      399.365      342.581      287.064        0.091        0.051       25.151       10.616        0.178      338.524       11.235      865.494
12/07/2014  13:59:00       32.404       41.905       -7.345       32.810       35.840       25.439     1076.474     1284.519      647.142        0.293        0.150       52.972       17.279        0.106      338.418       11.056      865.483
12/07/2014  14:00:00       14.953       26.714       28.790       21.587       25.225       18.453      466.011      636.290      340.515        0.160        0.072       30.614       14.580        0.227      338.750       11.613      865.471
12/07/2014  14:01:00       41.039       26.177       23.199       38.376       36.149       21.052     1472.741     1306.743      443.172        0.306        0.161       48.677       16.150        0.110      338.626       11.406      865.467
12/07/2014  14:02:00       76.378       41.982        1.453       19.094       18.338       18.045      364.575      336.287      325.609        0.431        0.051       87.156        9.984        0.013      338.263       10.796      865.456
12/07/2014  14:03:00       51.400      -17.020       -3.957       22.772       22.498       21.232      518.548      506.154      450.807        0.221        0.074       54.144       16.087        0.088      338.244       10.766      865.449
12/07/2014  14:04:00       15.727       10.178        2.810       16.809       11.323       12.487      282.528      128.221      155.918        0.046        0.028       18.733        9.971        0.283      338.425       11.068      865.447
12/07/2014  14:05:00       13.961       -2.617        1.087       18.199       17.271       12.411      331.185      298.298      154.035        0.049        0.039       14.204        5.210        0.135      338.437       11.087      865.455
12/07/2014  14:06:00        1.237       -2.745       11.864       42.009       23.701       23.292     1764.780      561.756      542.509        0.151        0.143        3.010       12.560       17.409      338.558       11.291      865.450
12/07/2014  14:07:00       20.468       30.181       38.172       35.638       44.175       18.322     1270.089     1951.399      335.691        0.317        0.178       36.467       12.425        0.116      338.534       11.250      865.454
12/07/2014  14:08:00        7.897       20.944       34.542       27.342       49.814       21.021      747.562     2481.401      441.884        0.268        0.184       22.383       15.371        0.472      338.631       11.415      865.466
12/07/2014  14:09:00       23.141       45.031        0.760       36.241       39.385       25.701     1313.413     1551.139      660.539        0.304        0.176       50.629       27.300        0.291      338.505       11.203      865.456
12/07/2014  14:10:00       12.203       58.705      -11.181       15.889       18.172       13.600      252.474      330.225      184.959        0.224        0.038       59.960       10.828        0.033      338.391       11.012      865.450
12/07/2014  14:11:00       62.671       48.671        3.188       33.283       32.989       22.348     1107.762     1088.300      499.447        0.450        0.135       79.350       13.047        0.027      338.397       11.022      865.446
12/07/2014  14:12:00       53.973       47.333        0.640       23.515       22.237       16.973      552.973      494.490      288.083        0.324        0.067       71.788       11.281        0.025      338.255       10.782      865.443
12/07/2014  14:13:00       46.454       46.095        4.772       25.137       12.416       16.747      631.864      154.164      280.476        0.269        0.053       65.443       14.365        0.048      338.257       10.786      865.433
12/07/2014  14:14:00       55.069       29.304        3.628       10.988        7.330        8.355      120.739       53.727       69.812        0.207        0.012       62.381        4.314        0.005      338.256       10.784      865.440
12/07/2014  14:15:00       29.021       35.167        4.438       19.116        9.602       13.229      365.422       92.206      175.006        0.137        0.032       45.595        7.997        0.031      338.308       10.872      865.447
12/07/2014  14:16:00       75.749       37.211       20.841       38.704       29.406       24.941     1498.009      864.708      622.071        0.527        0.149       84.395       16.092        0.036      338.352       10.946      865.443
12/07/2014  14:17:00       49.586       59.444       -3.916       37.356       28.788       32.120     1395.472      828.722     1031.726        0.463        0.163       77.411       25.424        0.108      338.396       11.019      865.445
12/07/2014  14:18:00       50.501       51.764        3.625       34.770       31.020       26.439     1208.957      962.210      699.037        0.406        0.144       72.318       25.323        0.123      338.406       11.036      865.434
12/07/2014  14:19:00      125.139       72.467       24.835       26.999       26.537       26.861      728.972      704.221      721.528        1.184        0.108      144.607       11.412        0.006      338.359       10.958      865.414
12/07/2014  14:20:00       87.135       42.664       14.331       38.790       37.980       26.187     1504.633     1442.483      685.764        0.662        0.182       97.019       15.513        0.026      338.377       10.989      865.413
12/07/2014  14:21:00       81.090       64.376        8.775       34.663       23.967       29.818     1201.512      574.430      889.136        0.673        0.133      103.537       17.326        0.028      338.361       10.962      865.417
12/07/2014  14:22:00        5.571       -1.631       26.018       18.861       22.921       15.283      355.750      525.369      233.578        0.091        0.056        5.805       17.228        8.807      338.676       11.490      865.438
12/07/2014  14:23:00       12.310       29.395       40.933       28.118       29.042       23.536      790.594      843.456      553.934        0.244        0.109       31.868       21.204        0.443      338.702       11.533      865.453
12/07/2014  14:24:00       37.844       16.555       20.676       17.661       16.130       22.705      311.908      260.170      515.513        0.161        0.054       41.307       11.691        0.080      338.547       11.273      865.460
12/07/2014  14:25:00        9.913       10.179       11.909       35.075       19.707       16.583     1230.286      388.381      274.993        0.112        0.095       14.209        6.322        0.198      338.677       11.490      865.456
12/07/2014  14:26:00       53.227       44.117        2.215       25.433       29.482       20.057      646.847      869.176      402.291        0.335        0.096       69.133       12.820        0.034      338.475       11.152      865.453
12/07/2014  14:27:00       37.232       88.351      -13.447       21.979       26.550       20.890      483.067      704.915      436.378        0.550        0.081       95.876       16.783        0.031      338.454       11.117      865.456
12/07/2014  14:28:00       38.670       75.755      -17.316       20.248       18.994       12.753      409.995      360.763      162.638        0.423        0.047       85.054       10.554        0.015      338.430       11.076      865.466
12/07/2014  14:29:00       12.598       10.305       -7.174       16.549       19.576        7.925      273.872      383.207       62.799        0.052        0.036       16.276        5.485        0.114      338.594       11.349      865.472
12/07/2014  14:30:00       -7.633       58.495      -11.270       15.018       30.426       11.691      225.535      925.723      136.676        0.245        0.064       58.991        7.899        0.018      338.562       11.298      865.472
12/07/2014  14:31:00      -13.346       78.054      -20.265       14.064       21.516       11.626      197.809      462.955      135.167        0.374        0.040       79.187        8.910        0.013      338.457       11.120      865.472
12/07/2014  14:32:00      -35.243       44.383       -8.463       26.171       40.649       20.961      684.936     1652.309      439.362        0.303        0.139       56.673       13.225        0.054      338.624       11.400      865.471
12/07/2014  14:33:00      -25.155      101.186      -16.777       13.728       15.386       11.311      188.454      236.727      127.934        0.585        0.028      104.266        7.839        0.006      338.469       11.142      865.472
12/07/2014  14:34:00      -14.768       84.190      -17.798       11.668       16.545        7.755      136.133      273.740       60.146        0.405        0.024       85.475        6.358        0.006      338.435       11.083      865.481
12/07/2014  14:35:00       14.755       42.150       -4.111       13.692       16.835       13.195      187.470      283.412      174.101        0.133        0.032       44.658        7.765        0.030      338.522       11.229      865.494
12/07/2014  14:36:00        3.613        0.678       11.343       11.818        9.029        7.857      139.673       81.529       61.726        0.021        0.014        3.676        7.545        4.212      338.782       11.667      865.498
12/07/2014  14:37:00      -30.035       40.501       -4.149       18.140       20.688       13.695      329.046      428.006      187.548        0.175        0.047       50.423        9.823        0.038      338.581       11.330      865.499
12/07/2014  14:38:00      -11.809       34.919       -5.977       20.080       21.980       14.272      403.192      483.117      203.689        0.124        0.054       36.862       14.151        0.147      338.546       11.272      865.502
12/07/2014  14:39:00      -26.181      114.025      -21.157       24.989       27.028       12.361      624.425      730.527      152.786        0.782        0.075      116.992       10.179        0.008      338.520       11.228      865.502
12/07/2014  14:40:00       -8.866       68.346      -11.314       14.262       26.891       12.139      203.394      723.113      147.356        0.298        0.054       68.918       12.588        0.033      338.490       11.177      865.494
12/07/2014  14:41:00       26.509       71.407       -6.490       18.764       30.361       13.760      352.076      921.769      189.325        0.365        0.073       76.169       14.268        0.035      338.499       11.192      865.488
12/07/2014  14:42:00       36.925       38.604        4.160       23.394       16.407       13.768      547.301      269.191      189.561        0.194        0.050       53.421        9.736        0.033      338.519       11.225      865.482
12/07/2014  14:43:00       42.825       31.721        2.057       22.684       24.058       15.836      514.564      578.777      250.788        0.209        0.067       53.294       12.550        0.055      338.535       11.254      865.477
12/07/2014  14:44:00       71.156       46.362       -1.831       15.476       11.588       11.835      239.520      134.272      140.067        0.386        0.026       84.927        9.046        0.011      338.500       11.195      865.482
12/07/2014  14:45:00        4.587       67.952       -6.983       27.729       29.390       15.308      768.904      863.748      234.341        0.328        0.093       68.107       17.346        0.065      338.511       11.210      865.475
12/07/2014  14:46:00      -21.463       99.436       -9.831       29.513       35.855       15.518      871.042     1285.572      240.805        0.642        0.120      101.726       18.007        0.031      338.564       11.301      865.450
12/07/2014  14:47:00      -15.275       53.377        2.430       19.217       43.243       17.501      369.308     1869.994      306.299        0.282        0.127       55.520       19.758        0.127      338.659       11.461      865.435
12/07/2014  14:48:00       68.640       51.985       12.101       43.472       28.661       24.179     1889.825      821.429      584.648        0.543        0.165       86.104       18.730        0.047      338.573       11.318      865.408
12/07/2014  14:49:00      100.679       76.581        9.460       42.314       36.704       26.492     1790.482     1347.152      701.825        0.996        0.192      126.495       16.219        0.016      338.546       11.272      865.395
12/07/2014  14:50:00       55.543       64.613       -1.132       44.706       27.780       21.230     1998.661      771.702      450.722        0.524        0.161       85.205       15.999        0.035      338.574       11.318      865.388
12/07/2014  14:51:00      113.104       59.256        6.456       39.842       21.703       18.935     1587.416      471.006      358.547        0.938        0.121      127.687        6.451        0.003      338.559       11.292      865.392
12/07/2014  14:52:00       82.410       56.092       15.109       30.744       35.492       24.038      945.217     1259.683      577.827        0.647        0.139       99.688        8.997        0.008      338.545       11.269      865.404
12/07/2014  14:53:00       57.215       48.287       -3.331       31.763       23.175       19.614     1008.901      537.077      384.720        0.377        0.097       74.868        9.764        0.017      338.567       11.307      865.429
12/07/2014  14:54:00       54.556       56.770       -4.893       28.396       26.667       19.769      806.315      711.131      390.812        0.407        0.095       78.735       14.058        0.032      338.535       11.254      865.443
12/07/2014  14:55:00       48.438       32.355        5.186       21.267       18.265       15.812      452.291      333.626      250.033        0.223        0.052       58.250       11.383        0.038      338.549       11.274      865.459
12/07/2014  14:56:00        8.207       58.927       -6.930       21.259       27.110       13.739      451.946      734.979      188.757        0.248        0.069       59.496       11.590        0.038      338.559       11.292      865.488
12/07/2014  14:57:00        9.163       64.067      -13.148       10.446       13.266        7.343      109.124      175.981       53.913        0.235        0.017       64.719        3.228        0.002      338.530       11.244      865.510
12/07/2014  14:58:00        9.577       66.015      -11.619       11.548       16.251        7.006      133.367      264.105       49.090        0.252        0.022       66.706        2.379        0.001      338.527       11.238      865.535
12/07/2014  14:59:00       27.235       66.490       -2.935       29.451       29.869       23.876      867.336      892.129      570.076        0.375        0.116       71.852       18.850        0.069      338.582       11.332      865.555
12/07/2014  15:00:00       61.901       42.287        5.223       32.165       13.729       15.709     1034.611      188.495      246.781        0.356        0.073       74.966        7.818        0.011      338.573       11.317      865.571
12/07/2014  15:01:00       78.906       63.304        9.254       16.627       12.573       15.250      276.471      158.081      232.573        0.549        0.033      101.161       11.726        0.013      338.531       11.244      865.579
12/07/2014  15:02:00       58.791       57.186        7.874       21.802       16.870       16.955      475.319      284.609      287.475        0.392        0.052       82.016       13.098        0.026      338.549       11.275      865.575
12/07/2014  15:03:00       64.717       59.194       24.727       22.113       28.742       21.385      488.977      826.078      457.315        0.504        0.089       87.705        7.092        0.007      338.572       11.314      865.572
12/07/2014  15:04:00       46.961       73.859       59.250       34.099       30.983       22.319     1162.734      959.948      498.147        0.690        0.131       87.524       13.158        0.023      338.724       11.569      865.557
12/07/2014  15:05:00       11.734       52.636       61.125       19.057       30.436       17.788      363.157      926.349      316.405        0.412        0.080       53.928       19.746        0.134      338.738       11.594      865.545
12/07/2014  15:06:00       74.192       62.755       67.196       33.797       40.686       32.051     1142.208     1655.368     1027.265        0.889        0.191       97.173       26.849        0.076      338.647       11.440      865.522
12/07/2014  15:07:00       44.525       40.326       63.896       35.990       31.033       21.762     1295.281      963.029      473.597        0.521        0.137       60.073       19.343        0.104      338.634       11.420      865.521
12/07/2014  15:08:00       69.810       38.859       34.871       36.906       37.506       28.622     1362.087     1406.663      819.238        0.559        0.179       79.897       22.855        0.082      338.667       11.475      865.523
12/07/2014  15:09:00       73.871       51.254       12.694       20.546       17.670       20.245      422.152      312.217      409.863        0.469        0.057       89.911       12.031        0.018      338.668       11.477      865.531
12/07/2014  15:10:00       74.034       49.910       36.085       35.216       32.883       25.097     1240.142     1081.280      629.862        0.611        0.148       89.287       16.237        0.033      338.669       11.478      865.538
12/07/2014  15:11:00       61.440       40.271       -2.834       32.640       17.973       14.184     1065.361      323.021      201.183        0.350        0.079       73.461        9.749        0.018      338.641       11.429      865.546
12/07/2014  15:12:00       65.283       46.029        7.611       32.499       27.843       18.207     1056.200      775.257      331.509        0.430        0.108       79.879       12.169        0.023      338.615       11.387      865.541
12/07/2014  15:13:00       87.013       62.116        0.776       24.023       17.997       15.955      577.118      323.900      254.556        0.629        0.058      106.909        7.225        0.005      338.601       11.363      865.538
12/07/2014  15:14:00       55.561       31.550        7.421       35.006       25.082       21.509     1225.437      629.112      462.619        0.323        0.116       63.894       18.419        0.083      338.635       11.421      865.523
12/07/2014  15:15:00       89.026       49.524       19.620       27.773       22.343       21.415      771.353      499.222      458.588        0.625        0.086      101.874        9.434        0.009      338.617       11.390      865.511
12/07/2014  15:16:00      112.465       24.572        6.345       51.174       36.604       25.752     2618.807     1339.837      663.166        0.896        0.231      115.118        9.850        0.007      338.599       11.362      865.499
12/07/2014  15:17:00      106.108       35.499       16.664       42.345       27.938       24.725     1793.059      780.538      611.302        0.799        0.159      111.888       19.474        0.030      338.619       11.395      865.497
12/07/2014  15:18:00       43.843       48.431       39.597       19.249       16.082       16.308      370.541      258.634      265.953        0.337        0.045       65.328        9.921        0.023      338.643       11.434      865.490
12/07/2014  15:19:00       60.417       38.315        2.010       17.537       18.874       20.521      307.544      356.216      421.132        0.310        0.054       71.542        9.732        0.019      338.648       11.442      865.478
12/07/2014  15:20:00       43.817       31.701       16.478       23.553       22.951       19.002      554.747      526.747      361.085        0.232        0.072       54.083       14.431        0.071      338.640       11.430      865.459
12/07/2014  15:21:00       81.253       31.423       16.713       36.471       21.565       22.428     1330.131      465.043      503.030        0.508        0.115       87.117       15.262        0.031      338.606       11.372      865.437
12/07/2014  15:22:00       57.443       46.768        7.783       25.712       10.737       10.845      661.086      115.280      117.609        0.322        0.045       74.073        3.293        0.002      338.565       11.304      865.417
12/07/2014  15:23:00       40.875       32.498        1.801       21.168       15.093       18.321      448.066      227.797      335.652        0.187        0.051       52.219       12.357        0.056      338.585       11.336      865.415
12/07/2014  15:24:00       32.772       51.197       -7.423       13.114       16.523        9.298      171.965      273.009       86.459        0.214        0.027       60.788        4.890        0.006      338.581       11.332      865.429
12/07/2014  15:25:00       11.225       23.866        0.383       14.866       16.061       10.002      220.993      257.958      100.047        0.064        0.029       26.374        6.923        0.069      338.588       11.345      865.437
12/07/2014  15:26:00        6.983       18.998       -8.678       11.059       18.916       11.514      122.311      357.809      132.583        0.055        0.031       20.241        7.728        0.146      338.611       11.380      865.460
12/07/2014  15:27:00       14.976       27.747        0.300        5.108       13.948       12.826       26.093      194.553      164.495        0.069        0.019       31.530       12.284        0.152      338.617       11.390      865.475
12/07/2014  15:28:00       15.142       43.551       -4.606       14.057       10.858       13.455      197.610      117.902      181.039        0.132        0.025       46.108        4.411        0.009      338.619       11.393      865.480
12/07/2014  15:29:00       25.208       34.347       11.757       13.987       16.436       14.050      195.630      270.127      197.392        0.131        0.033       42.604       10.324        0.059      338.619       11.394      865.466
12/07/2014  15:30:00       -2.066       66.492       -1.641       13.198       21.214       15.270      174.180      450.026      233.175        0.264        0.043       66.524        8.868        0.018      338.612       11.381      865.451
12/07/2014  15:31:00       11.848       44.809        1.579       17.958       21.408       13.228      322.494      458.288      174.985        0.155        0.048       46.349       10.401        0.050      338.633       11.417      865.444
12/07/2014  15:32:00       41.138       15.675        4.577        8.499       10.357        7.143       72.231      107.259       51.015        0.109        0.012       44.024        5.050        0.013      338.597       11.352      865.459
12/07/2014  15:33:00       32.455       10.262        2.464        7.862        4.901        3.887       61.809       24.023       15.110        0.063        0.005       34.039        2.369        0.005      338.597       11.352      865.487
12/07/2014  15:34:00       12.677        7.641        1.375       11.602       12.294        4.960      134.612      151.145       24.604        0.027        0.016       14.801        3.651        0.061      338.603       11.365      865.508
12/07/2014  15:35:00       15.045       45.536       -0.775       11.795       10.885        9.465      139.125      118.485       89.583        0.132        0.017       47.957        5.704        0.014      338.588       11.342      865.527
12/07/2014  15:36:00       21.249       27.336       -1.649        9.677       13.281       11.022       93.648      176.377      121.479        0.080        0.020       34.624        7.572        0.048      338.596       11.352      865.524
12/07/2014  15:37:00       32.033       24.944        4.535       16.229       11.519        8.074      263.367      132.679       65.188        0.106        0.023       40.600        7.099        0.031      338.594       11.350      865.515
12/07/2014  15:38:00       16.612       21.049       -0.240        8.641       13.592        7.051       74.667      184.749       49.723        0.051        0.015       26.815        7.233        0.073      338.600       11.361      865.508
12/07/2014  15:39:00       20.088       19.178       -0.290       12.242       13.634        9.592      149.871      185.878       92.012        0.060        0.021       27.772        5.943        0.046      338.601       11.364      865.515
12/07/2014  15:40:00       27.856       18.494        0.010       14.536       17.348       14.831      211.285      300.967      219.959        0.092        0.037       33.436        9.051        0.073      338.586       11.338      865.522
12/07/2014  15:41:00       18.764       42.389       -1.716       20.530       20.956       15.501      421.499      439.146      240.286        0.163        0.055       46.356       15.192        0.107      338.584       11.336      865.523
12/07/2014  15:42:00        9.132       78.994      -11.405       12.947       10.981        7.315      167.622      120.577       53.516        0.340        0.017       79.520        2.254        0.001      338.608       11.374      865.534
12/07/2014  15:43:00       10.472       88.781      -13.809        8.015       13.320        6.965       64.246      177.416       48.515        0.424        0.015       89.396        5.939        0.004      338.616       11.385      865.557
12/07/2014  15:44:00        6.127       64.495      -13.926        8.147       10.069        5.841       66.380      101.384       34.122        0.230        0.010       64.786        4.260        0.004      338.623       11.402      865.586
12/07/2014  15:45:00       11.791       45.144       -9.987        7.086       12.193        7.094       50.212      148.666       50.328        0.126        0.012       46.658        3.403        0.005      338.615       11.388      865.620
12/07/2014  15:46:00       20.925       23.094        0.176       14.566        6.488        8.754      212.182       42.099       76.631        0.065        0.017       31.164        8.999        0.083      338.606       11.373      865.643
12/07/2014  15:47:00       43.115       32.068       -0.437       11.081        8.465        7.653      122.798       71.662       58.573        0.157        0.013       53.733        4.671        0.008      338.614       11.387      865.661
12/07/2014  15:48:00       38.363       24.318        4.432       22.577        8.393        8.141      509.729       70.438       66.272        0.136        0.032       45.421        5.953        0.017      338.599       11.361      865.660
12/07/2014  15:49:00       74.082       29.879        9.366       17.734       14.991       13.370      314.484      224.727      178.744        0.359        0.036       79.880        7.496        0.009      338.606       11.373      865.646
12/07/2014  15:50:00       76.276       30.557        1.724       12.277       14.038       13.333      150.727      197.063      177.767        0.364        0.026       82.169        8.905        0.012      338.611       11.381      865.625
12/07/2014  15:51:00       41.830       32.663        0.164       12.972       11.997        8.677      168.279      143.932       75.289        0.160        0.019       53.072        7.103        0.018      338.577       11.324      865.606
12/07/2014  15:52:00       39.453       23.516        3.704       17.614       18.291       12.253      310.240      334.544      150.130        0.146        0.040       45.930        5.839        0.016      338.601       11.362      865.593
12/07/2014  15:53:00       64.498       38.472        1.925       15.593       14.987       15.594      243.154      224.611      243.167        0.318        0.036       75.100        9.375        0.016      338.572       11.312      865.585
12/07/2014  15:54:00       67.609       40.172       -4.898       15.034       11.681       13.376      226.018      136.442      178.926        0.337        0.027       78.643        7.515        0.009      338.552       11.279      865.591
12/07/2014  15:55:00       71.223       37.157        3.930       15.061       16.571       13.943      226.830      274.607      194.396        0.358        0.035       80.332       10.369        0.017      338.542       11.265      865.589
12/07/2014  15:56:00       58.118       45.188        2.896       20.179       14.354       12.001      407.196      206.024      144.018        0.309        0.038       73.618        7.736        0.011      338.552       11.281      865.576
12/07/2014  15:57:00       47.287       38.939        1.252       23.300       12.826       14.519      542.907      164.504      210.806        0.234        0.046       61.256       11.419        0.035      338.547       11.272      865.566
12/07/2014  15:58:00       44.772       24.489        5.458       16.199       16.632       13.124      262.393      276.614      172.244        0.167        0.036       51.031        7.400        0.021      338.528       11.242      865.568
12/07/2014  15:59:00       37.013       24.657        4.226       22.288       14.502       11.741      496.738      210.295      137.851        0.142        0.042       44.474       11.834        0.071      338.532       11.247      865.567
12/07/2014  16:00:00       34.028       41.311       -3.350       20.941       15.916       17.508      438.525      253.313      306.536        0.194        0.050       53.521       11.454        0.046      338.556       11.287      865.557
12/07/2014  16:01:00       42.450       41.594        1.003       21.154       15.692       12.132      447.504      246.242      147.191        0.219        0.042       59.431        6.392        0.012      338.531       11.246      865.569
12/07/2014  16:02:00       43.407       30.755        2.786       24.665       14.624       13.188      608.361      213.859      173.934        0.192        0.050       53.198       11.038        0.043      338.534       11.250      865.581
12/07/2014  16:03:00       63.885       42.931        9.420       18.285       11.673       13.095      334.350      136.256      171.478        0.333        0.032       76.970        9.548        0.015      338.559       11.292      865.571
12/07/2014  16:04:00       62.496       41.730        7.523       12.090       11.026       14.346      146.162      121.572      205.801        0.309        0.024       75.148        8.283        0.012      338.557       11.291      865.569
12/07/2014  16:05:00       46.534       32.932        1.355       26.807       17.878       11.939      718.601      319.619      142.545        0.222        0.059       57.008        7.325        0.017      338.553       11.281      865.564
12/07/2014  16:06:00       40.027       15.215        5.349       14.932       13.133       11.681      222.965      172.482      136.455        0.120        0.027       42.821        8.339        0.038      338.527       11.239      865.564
12/07/2014  16:07:00       43.717       16.144        5.621       11.518       11.639        8.814      132.670      135.461       77.683        0.127        0.017       46.603        2.271        0.002      338.580       11.327      865.572
12/07/2014  16:08:00       47.895       21.595       10.769       22.483       14.707       14.706      505.506      216.308      216.259        0.191        0.047       52.538       14.238        0.073      338.566       11.304      865.560
12/07/2014  16:09:00       80.096       40.203        4.325       19.815       13.593       11.373      392.631      184.773      129.348        0.438        0.035       89.619        7.940        0.008      338.579       11.325      865.535
12/07/2014  16:10:00       77.569       42.711       11.725       15.934       12.536       11.293      253.905      157.153      127.536        0.426        0.027       88.551        9.219        0.011      338.585       11.336      865.510
12/07/2014  16:11:00       50.936       12.865        1.096       28.370       22.982       14.267      804.859      528.191      203.537        0.215        0.077       52.535       10.478        0.040      338.566       11.304      865.493
12/07/2014  16:12:00       46.808       11.100       -4.122       21.011       14.087       10.480      441.457      198.450      109.838        0.154        0.037       48.106        7.904        0.027      338.556       11.287      865.486
12/07/2014  16:13:00       38.221       27.860        2.378        7.032        8.292        4.746       49.450       68.763       22.526        0.119        0.007       47.297        3.329        0.005      338.546       11.272      865.498
12/07/2014  16:14:00       29.657       25.622        3.225        7.177        5.063        2.800       51.507       25.636        7.841        0.082        0.004       39.192        2.268        0.003      338.600       11.358      865.509
12/07/2014  16:15:00       30.622       27.440        3.707        4.868        5.704        4.242       23.702       32.534       17.992        0.089        0.004       41.117        1.751        0.002      338.595       11.350      865.511
12/07/2014  16:16:00       23.843       29.189        1.684       12.276        7.976        6.451      150.691       63.614       41.621        0.084        0.013       37.689        5.357        0.020      338.573       11.317      865.521
12/07/2014  16:17:00       15.731       38.254       -3.655       11.537       17.273        9.883      133.096      298.341       97.669        0.113        0.026       41.362       10.114        0.060      338.556       11.288      865.534
12/07/2014  16:18:00       27.232       38.723       -4.021        9.566       12.384        8.384       91.518      153.357       70.286        0.129        0.016       47.340        7.714        0.027      338.574       11.317      865.565
12/07/2014  16:19:00       17.671       32.260        1.132        8.662        8.818        9.495       75.035       77.759       90.152        0.080        0.012       36.783        6.173        0.028      338.579       11.324      865.578
12/07/2014  16:20:00       12.836       27.186       -2.827        4.484        4.789        3.208       20.105       22.936       10.291        0.048        0.003       30.064        2.667        0.008      338.602       11.361      865.581
12/07/2014  16:21:00       18.921       32.670       -6.186        7.712        5.195        5.613       59.481       26.992       31.511        0.079        0.006       37.754        3.515        0.009      338.577       11.325      865.574
12/07/2014  16:22:00       12.249       27.418       -5.949        6.158        6.141        4.612       37.923       37.716       21.267        0.052        0.005       30.029        1.893        0.004      338.600       11.360      865.574
12/07/2014  16:23:00        7.761       59.773      -13.292        6.382       12.315        6.895       40.724      151.664       47.542        0.202        0.012       60.275        7.266        0.015      338.571       11.316      865.589
12/07/2014  16:24:00        2.612       77.522      -13.456        6.049       16.982        5.902       36.588      288.388       34.839        0.328        0.018       77.566        4.410        0.003      338.559       11.292      865.576
12/07/2014  16:25:00      -14.474       90.390       -6.620       25.502       35.950       16.647      650.373     1292.399      277.129        0.532        0.111       91.542       14.290        0.024      338.615       11.386      865.572
12/07/2014  16:26:00      -40.869       47.570       -8.327       22.707       28.470       13.575      515.619      810.523      184.272        0.276        0.076       62.715        8.284        0.017      338.549       11.277      865.561
12/07/2014  16:27:00      -62.464       35.882      -14.341       15.269       14.046       10.357      233.136      197.277      107.267        0.297        0.027       72.036        8.297        0.013      338.484       11.166      865.565
12/07/2014  16:28:00      -48.956       15.321       -6.187       13.192        8.446        8.584      174.031       71.342       73.683        0.149        0.016       51.297        6.243        0.015      338.476       11.153      865.581
12/07/2014  16:29:00      -57.079        4.109      -10.245        8.761        9.319        7.228       76.752       86.844       52.251        0.180        0.011       57.227        5.754        0.010      338.488       11.174      865.591
12/07/2014  16:30:00      -44.081        8.082       -7.497        8.457        6.742        5.951       71.529       45.453       35.409        0.111        0.008       44.815        3.019        0.005      338.506       11.202      865.610
12/07/2014  16:31:00      -43.708        5.959       -2.372       10.554        9.952        7.120      111.377       99.047       50.692        0.111        0.013       44.112        4.792        0.012      338.488       11.172      865.612
12/07/2014  16:32:00      -67.524       -3.157      -10.722        7.719       10.930        6.249       59.585      119.456       39.052        0.245        0.011       67.598        4.286        0.004      338.460       11.127      865.627
12/07/2014  16:33:00      -77.477       -8.883       -9.458       11.292        9.490        7.259      127.519       90.055       52.695        0.322        0.014       77.985        3.802        0.002      338.421       11.060      865.620
12/07/2014  16:34:00      -92.805      -10.933       -6.821       30.290       19.025       13.088      917.479      361.936      171.291        0.511        0.073       93.447       12.878        0.019      338.307       10.870      865.614
12/07/2014  16:35:00     -101.372        0.720      -12.574       25.920       21.727       19.113      671.859      472.068      365.324        0.597        0.075      101.375       16.194        0.026      338.282       10.828      865.598
12/07/2014  16:36:00      -65.461       -1.307       -8.353       27.770       15.743       15.021      771.186      247.838      225.640        0.280        0.062       65.474       16.156        0.061      338.349       10.940      865.585
12/07/2014  16:37:00      -61.311        0.326       -8.950       21.065       17.234       14.862      443.731      296.999      220.876        0.240        0.048       61.312       14.205        0.054      338.345       10.933      865.597
12/07/2014  16:38:00      -72.865       -7.571       -4.748       15.921       13.163        8.349      253.484      173.274       69.702        0.294        0.025       73.257        7.843        0.011      338.358       10.955      865.621
12/07/2014  16:39:00      -61.882       -7.397       -2.039       16.803       12.328        8.746      282.341      151.982       76.492        0.220        0.026       62.323        8.275        0.018      338.326       10.902      865.650
12/07/2014  16:40:00      -70.823        1.840       -4.340       13.655       20.998        8.397      186.450      440.915       70.507        0.287        0.035       70.847        7.039        0.010      338.269       10.805      865.678
12/07/2014  16:41:00      -79.969       17.446       -6.493       17.958       14.110       10.856      322.487      199.102      117.844        0.369        0.032       81.850        8.495        0.011      338.187       10.667      865.692
12/07/2014  16:42:00      -78.126       24.065       -4.419       25.797       20.580       13.314      665.476      423.555      177.251        0.398        0.063       81.748       10.066        0.015      338.141       10.590      865.690
12/07/2014  16:43:00      -79.386       46.860      -15.952       33.382       24.310       17.038     1114.355      590.966      290.300        0.537        0.100       92.185       19.583        0.045      338.140       10.590      865.657
12/07/2014  16:44:00      -97.589       75.356      -20.773       26.649       29.726       14.908      710.177      883.660      222.240        0.872        0.091      123.297       15.997        0.017      338.202       10.692      865.630
12/07/2014  16:45:00     -114.468       86.604      -23.846       30.251       40.604       23.939      915.097     1648.661      573.058        1.215        0.157      143.538       25.614        0.032      338.258       10.787      865.598
12/07/2014  16:46:00      -85.424       42.322       -7.735       34.612       21.114       22.434     1198.000      445.780      503.287        0.565        0.107       95.333       18.622        0.038      338.317       10.887      865.580
12/07/2014  16:47:00      -84.352       12.360       -5.004       20.717       29.337       10.844      429.198      860.665      117.591        0.435        0.070       85.252        7.270        0.007      338.219       10.721      865.586
12/07/2014  16:48:00      -72.075        8.724      -12.181       16.786       13.779        9.907      281.786      189.867       98.148        0.299        0.028       72.601        6.628        0.008      338.168       10.636      865.591
12/07/2014  16:49:00      -67.372        3.953       -5.117       14.327       13.962       10.352      205.264      194.945      107.166        0.254        0.025       67.488        7.929        0.014      338.098       10.517      865.579
12/07/2014  16:50:00      -78.300        8.848      -11.709       19.519       22.989       12.210      381.006      528.489      149.081        0.370        0.053       78.799       11.653        0.022      338.082       10.493      865.541
12/07/2014  16:51:00      -54.655       18.297       -8.569       14.692       22.018       13.020      215.848      484.799      169.516        0.213        0.044       57.636        7.624        0.017      338.088       10.503      865.514
12/07/2014  16:52:00      -74.929      -11.914      -10.200       15.881       13.466        9.910      252.194      181.329       98.206        0.320        0.027       75.870        7.334        0.009      337.994       10.344      865.481
12/07/2014  16:53:00      -74.576        2.025       -5.898       12.772       18.531        8.241      163.117      343.388       67.913        0.309        0.029       74.603        6.023        0.007      337.942       10.257      865.464
12/07/2014  16:54:00      -71.902       -1.177       -7.872       19.119       16.300       12.134      365.539      265.704      147.227        0.301        0.039       71.912        5.504        0.006      338.007       10.366      865.437
12/07/2014  16:55:00      -82.944       19.179       -7.077       21.775       19.481       16.138      474.156      379.512      260.448        0.421        0.056       85.132       12.802        0.023      338.118       10.552      865.418
12/07/2014  16:56:00      -57.026       29.021       -8.422       19.208       20.571       13.704      368.930      423.147      187.794        0.257        0.049       63.986        5.308        0.007      338.114       10.545      865.397
12/07/2014  16:57:00      -48.373       37.260      -10.670       16.511       23.065       11.678      272.618      531.989      136.377        0.239        0.047       61.059        9.511        0.024      338.279       10.822      865.397
12/07/2014  16:58:00      -37.615       -0.754        1.545       19.271       12.907       11.956      371.372      166.591      142.944        0.105        0.034       37.623        9.909        0.069      338.237       10.752      865.392
12/07/2014  16:59:00      -43.238       21.721       -8.377       17.580       20.504       13.873      309.068      420.410      192.448        0.167        0.046       48.387       11.539        0.057      338.321       10.893      865.402
12/07/2014  17:00:00      -43.907       13.925        0.436       17.732       16.370        9.247      314.418      267.989       85.506        0.139        0.033       46.062        7.189        0.024      338.251       10.777      865.392
12/07/2014  17:01:00      -39.220        1.230       -3.163       10.325        7.841        8.634      106.612       61.485       74.545        0.090        0.012       39.239        5.644        0.021      338.189       10.672      865.386
12/07/2014  17:02:00      -49.420        3.068       -0.545        8.734       12.431        7.230       76.274      154.532       52.276        0.137        0.014       49.515        4.198        0.007      338.167       10.635      865.396
12/07/2014  17:03:00      -58.388       -5.607       -7.204        8.836       10.477        8.420       78.077      109.778       70.889        0.188        0.013       58.656        6.007        0.010      338.126       10.567      865.417
12/07/2014  17:04:00      -74.946       -8.021      -10.246       14.770       13.432        7.694      218.155      180.422       59.194        0.312        0.023       75.374        5.044        0.004      338.037       10.417      865.470
12/07/2014  17:05:00      -82.437      -17.703       -8.057       31.499       19.504       16.078      992.183      380.415      258.500        0.440        0.082       84.316       17.326        0.042      337.908       10.199      865.523
12/07/2014  17:06:00     -122.781      -11.260      -11.038       29.377       26.654       20.819      863.029      710.432      433.447        0.866        0.100      123.297       18.499        0.023      337.922       10.224      865.606
12/07/2014  17:07:00     -142.574      -12.267      -21.706       19.496       29.763       13.431      380.076      885.836      180.402        1.120        0.072      143.101       12.106        0.007      337.957       10.284      865.679
12/07/2014  17:08:00     -138.985      -11.017      -12.672       14.919       28.819       12.060      222.590      830.534      145.453        1.040        0.060      139.421        8.112        0.003      337.963       10.292      865.746
12/07/2014  17:09:00     -130.585      -38.476      -10.604       40.413       29.559       19.085     1633.250      873.731      364.219        1.076        0.144      136.135       18.620        0.019      337.984       10.327      865.819
12/07/2014  17:10:00     -143.187       14.741      -12.666       37.842       32.794       19.700     1432.007     1075.452      388.098        1.189        0.145      143.944       16.615        0.013      338.055       10.446      865.859
12/07/2014  17:11:00     -138.410       26.099      -12.849       38.907       30.820       19.375     1513.789      949.847      375.382        1.142        0.142      140.849       14.246        0.010      337.973       10.308      865.906
12/07/2014  17:12:00     -184.067       32.828      -15.476       26.572       27.963       16.071      706.064      781.945      258.273        1.847        0.087      186.972       12.032        0.004      337.931       10.238      865.946
12/07/2014  17:13:00     -157.132      -12.470      -18.911       33.682       40.976       18.712     1134.477     1679.043      350.148        1.418        0.158      157.626       16.472        0.011      337.861       10.121      865.965
12/07/2014  17:14:00     -161.186      -17.095      -25.986       28.854       38.620       21.381      832.528     1491.479      457.160        1.486        0.139      162.090       15.897        0.010      337.823       10.057      865.980
12/07/2014  17:15:00     -129.138        4.017      -19.685       42.612       47.327       25.141     1815.799     2239.851      632.045        1.088        0.234      129.200       21.244        0.027      337.793       10.008      865.988
12/07/2014  17:16:00     -134.397        5.621      -24.123       36.264       30.196       16.842     1315.044      911.822      283.647        1.059        0.126      134.514       18.721        0.019      337.766        9.962      866.001
12/07/2014  17:17:00      -86.294       -3.551      -19.489       25.414       43.286       25.348      645.888     1873.658      642.509        0.550        0.158       86.367       17.634        0.042      337.766        9.962      866.032
12/07/2014  17:18:00     -102.429       -3.183      -11.764       32.389       25.529       14.502     1049.064      651.755      210.315        0.628        0.096      102.479        9.960        0.009      337.766        9.963      866.051
12/07/2014  17:19:00      -90.428       -3.156      -12.558       33.639       39.325       19.276     1131.599     1546.462      371.552        0.570        0.152       90.483       16.576        0.034      337.799       10.017      866.067
12/07/2014  17:20:00      -92.584        3.006      -10.288       39.233       35.169       18.066     1539.218     1236.850      326.379        0.589        0.155       92.632       21.353        0.053      337.809       10.033      866.083
12/07/2014  17:21:00     -121.582       16.899      -21.313       16.248       19.711       12.510      264.007      388.505      156.511        0.817        0.040      122.751        8.827        0.005      337.789       10.001      866.093
12/07/2014  17:22:00     -108.417      -11.011      -19.794       30.105       24.819       17.524      906.285      615.962      307.091        0.705        0.091      108.975       16.207        0.022      337.771        9.970      866.121
12/07/2014  17:23:00     -134.185       21.465      -22.174       17.845       14.742       10.962      318.435      217.335      120.176        0.981        0.033      135.891        5.443        0.002      337.781        9.986      866.133
12/07/2014  17:24:00     -118.794       23.801      -13.435       13.718       17.149       12.902      188.175      294.104      166.458        0.775        0.032      121.155        7.115        0.003      337.790       10.003      866.134
12/07/2014  17:25:00      -90.264       24.377       -8.879       12.785       17.914        9.700      163.465      320.895       94.084        0.470        0.029       93.498        6.178        0.004      337.825       10.061      866.137
12/07/2014  17:26:00      -90.531       22.605       -5.589       21.192       17.396       10.080      449.088      302.605      101.616        0.480        0.043       93.311        9.050        0.009      337.918       10.216      866.122
12/07/2014  17:27:00      -56.609       20.431       -9.012       15.093       14.237       10.796      227.791      202.699      116.544        0.213        0.027       60.183        7.009        0.014      337.925       10.228      866.117
12/07/2014  17:28:00      -45.424       10.891       -7.161       12.223       14.352       10.432      149.411      205.976      108.831        0.135        0.023       46.712        8.088        0.030      337.936       10.247      866.086
12/07/2014  17:29:00      -58.518       10.254       -9.044       16.194       14.122        9.913      262.248      199.444       98.273        0.209        0.028       59.410        8.632        0.021      337.986       10.331      866.051
12/07/2014  17:30:00      -57.544        2.415       -7.928       13.230       14.524       11.139      175.020      210.934      124.088        0.194        0.026       57.594        7.183        0.016      338.024       10.393      866.034
12/07/2014  17:31:00      -14.702      -20.153       -0.677       12.506       11.475        7.796      156.406      131.679       60.775        0.049        0.017       24.946        5.328        0.046      337.982       10.322      866.020
12/07/2014  17:32:00      -12.587      -15.978        0.048       14.230       10.754       10.865      202.485      115.643      118.038        0.042        0.022       20.340        5.665        0.078      337.961       10.291      866.013
12/07/2014  17:33:00      -52.424      -29.908       -1.772       13.483        8.565        8.206      181.802       73.351       67.335        0.198        0.016       60.355        8.428        0.019      337.894       10.177      866.025
12/07/2014  17:34:00      -63.484      -21.321      -13.253        8.409        9.711        5.312       70.718       94.296       28.213        0.243        0.010       66.969        1.631        0.001      337.847       10.097      866.030
12/07/2014  17:35:00      -73.741      -43.900       -9.388       16.121       10.491       10.740      259.895      110.053      115.342        0.397        0.024       85.819        2.930        0.001      337.839       10.083      866.043
12/07/2014  17:36:00      -66.682      -45.152       -3.513       17.253       13.918       10.926      297.669      193.707      119.378        0.355        0.031       80.531        6.540        0.007      337.849       10.100      866.052
12/07/2014  17:37:00      -62.996      -18.941       -7.507       12.639       15.173        8.828      159.741      230.206       77.929        0.243        0.023       65.782        6.730        0.010      337.825       10.061      866.038
12/07/2014  17:38:00      -39.722      -17.102        1.838       22.002       15.308       13.312      484.096      234.349      177.203        0.138        0.045       43.247       12.601        0.085      337.794       10.008      866.033
12/07/2014  17:39:00      -49.967      -12.192       -2.896       17.530       10.847        8.573      307.317      117.660       73.489        0.158        0.025       51.433        8.423        0.027      337.849       10.102      866.039
12/07/2014  17:40:00      -25.001       -9.614       -0.535       17.750        8.977        7.187      315.061       80.586       51.655        0.058        0.022       26.786        2.259        0.007      337.897       10.183      866.030
12/07/2014  17:41:00      -18.313      -17.184        1.220       13.184        6.318        7.742      173.829       39.919       59.932        0.045        0.014       25.113        7.575        0.091      337.938       10.252      866.003
12/07/2014  17:42:00      -47.331       -5.160       -3.594       10.547        7.453        5.858      111.240       55.553       34.318        0.124        0.010       47.612        4.153        0.008      337.960       10.284      865.995
12/07/2014  17:43:00      -48.394      -18.463        1.826       17.955       13.779       11.115      322.373      189.850      123.546        0.166        0.032       51.797       11.228        0.047      337.902       10.189      866.007
12/07/2014  17:44:00      -45.976      -19.867        4.006       27.621       12.886        9.918      762.910      166.037       98.358        0.178        0.051       50.085       13.804        0.076      337.867       10.132      866.003
12/07/2014  17:45:00       -9.172      -29.022        8.404       26.451       12.998        8.823      699.662      168.959       77.845        0.097        0.047       30.437        7.005        0.053      337.960       10.290      865.983
12/07/2014  17:46:00      -19.253      -16.296        8.095       21.493       18.037       13.719      461.953      325.320      188.217        0.084        0.049       25.224       11.397        0.204      337.905       10.194      865.959
12/07/2014  17:47:00      -17.616      -18.760        3.453       16.219       14.118        9.516      263.044      199.317       90.558        0.061        0.028       25.735        7.998        0.097      337.984       10.328      865.932
12/07/2014  17:48:00      -14.986      -11.883        4.458       11.840        9.988        6.751      140.195       99.752       45.572        0.034        0.014       19.126        4.561        0.057      337.967       10.297      865.908
12/07/2014  17:49:00      -17.122      -17.628       -3.767       10.660        8.074        7.838      113.636       65.196       61.437        0.043        0.012       24.574        3.691        0.023      337.994       10.344      865.879
12/07/2014  17:50:00        5.093        1.345        0.463        9.751        7.139        3.585       95.081       50.960       12.849        0.009        0.008        5.268        4.041        0.589      338.034       10.409      865.849
12/07/2014  17:51:00       28.750       14.497        7.842        5.589        5.855        5.056       31.232       34.276       25.564        0.059        0.005       32.198        2.104        0.004      338.082       10.493      865.821
12/07/2014  17:52:00       19.533       23.411        1.540        5.438        9.108        4.750       29.570       82.956       22.566        0.053        0.007       30.490        2.306        0.006      338.159       10.624      865.789
12/07/2014  17:53:00       21.678       34.667       -3.035        8.681        8.389        7.387       75.354       70.372       54.563        0.094        0.010       40.887        5.727        0.020      338.110       10.539      865.764
12/07/2014  17:54:00       28.680       24.382        0.798       13.142       12.751       12.211      172.709      162.600      149.120        0.095        0.024       37.643        8.778        0.054      338.029       10.404      865.743
12/07/2014  17:55:00       19.902       18.029        0.445       12.324       13.600       10.402      151.887      184.950      108.211        0.058        0.022       26.854        9.744        0.132      337.910       10.203      865.731
12/07/2014  17:56:00       28.528       19.097        2.313       16.869       14.642       12.297      284.549      214.402      151.210        0.092        0.033       34.330        8.699        0.064      337.860       10.120      865.726
12/07/2014  17:57:00       27.093       25.330       -2.057       12.667       15.019        9.290      160.455      225.572       86.295        0.093        0.024       37.090        6.435        0.030      337.780        9.985      865.732
12/07/2014  17:58:00       49.166       27.456        8.149       22.801       14.881       12.243      519.901      221.448      149.884        0.206        0.045       56.313        4.442        0.006      337.734        9.908      865.715
12/07/2014  17:59:00       87.232       58.455       -0.300       30.468       20.548       15.960      928.300      422.235      254.709        0.632        0.080      105.007        8.243        0.006      337.717        9.880      865.667
12/07/2014  18:00:00      148.664       73.324        9.384       30.548       30.965       30.780      933.173      958.848      947.410        1.520        0.142      165.763       17.871        0.012      337.668        9.798      865.606
12/07/2014  18:01:00      123.587       59.631       11.007       44.517       30.609       24.668     1981.743      936.881      608.530        1.124        0.176      137.222       16.468        0.014      337.568        9.631      865.549
12/07/2014  18:02:00       73.530       49.089       10.216       37.536       33.397       20.426     1408.957     1115.331      417.234        0.543        0.147       88.410       19.938        0.051      337.523        9.554      865.507
12/07/2014  18:03:00       95.891       67.658       14.390       35.138       23.252       20.070     1234.649      540.638      402.822        0.808        0.109      117.358       12.428        0.011      337.508        9.528      865.476
12/07/2014  18:04:00       82.135       54.388       13.743       31.248       24.203       22.412      976.421      585.808      502.293        0.598        0.103       98.510       18.430        0.035      337.533        9.572      865.455
12/07/2014  18:05:00       73.644       47.186       13.987       29.721       20.518       17.187      883.316      421.007      295.408        0.472        0.080       87.464       16.452        0.035      337.570        9.634      865.466
12/07/2014  18:06:00       50.929       21.971       16.911       14.707       14.275       12.070      216.296      203.773      145.690        0.196        0.028       55.466        3.248        0.003      337.599        9.681      865.521
12/07/2014  18:07:00       59.467       30.193        8.477       22.755       20.047       15.057      517.798      401.901      226.710        0.283        0.057       66.692       13.457        0.041      337.678        9.814      865.603
12/07/2014  18:08:00       30.697       32.916        5.304       19.633       19.102       23.667      385.473      364.903      560.135        0.168        0.066       45.009       14.947        0.110      337.708        9.865      865.696
12/07/2014  18:09:00      -29.698       10.841      -14.834       35.851       15.808       11.006     1285.309      249.881      121.141        0.144        0.083       31.615        8.129        0.066      337.682        9.820      865.802
12/07/2014  18:10:00     -109.403      -23.028       -7.324       30.423       22.345       16.656      925.559      499.298      277.419        0.713        0.085      111.800       17.992        0.026      337.614        9.707      865.915
12/07/2014  18:11:00     -108.425      -25.909       -7.981       28.945       20.613       16.883      837.838      424.893      285.052        0.702        0.077      111.478       16.648        0.022      337.543        9.586      866.016
12/07/2014  18:12:00     -135.090      -52.059       -5.877       49.126       30.392       20.200     2413.369      923.655      408.057        1.237        0.187      144.774       17.424        0.014      337.664        9.791      866.083
12/07/2014  18:13:00     -152.614      -24.060       -2.939       65.172       49.642       33.731     4247.383     2464.363     1137.806        1.586        0.392      154.499       30.910        0.040      337.679        9.815      866.127
12/07/2014  18:14:00     -150.607      -64.845        0.223       86.911       65.472       37.579     7553.543     4286.612     1412.173        2.007        0.663      163.974       40.854        0.062      337.571        9.633      866.176
12/07/2014  18:15:00     -111.269      -42.881       -6.296       46.204       37.435       20.126     2134.786     1401.375      405.043        0.910        0.197      119.246       16.560        0.019      337.540        9.583      866.204
12/07/2014  18:16:00     -139.485      -37.125       -1.132       56.166       36.414       29.221     3154.567     1325.946      853.843        1.308        0.267      144.342       28.387        0.039      337.485        9.490      866.193
12/07/2014  18:17:00      -92.855        9.828       -2.759       43.735       41.720       22.275     1912.769     1740.526      496.160        0.644        0.207       93.374       24.846        0.071      337.528        9.562      866.149
12/07/2014  18:18:00      -59.964      -21.435        2.081       38.206       37.254       22.424     1459.697     1387.833      502.824        0.370        0.168       63.680       24.565        0.149      337.528        9.560      866.085
12/07/2014  18:19:00      -81.789        5.809       -9.678       34.908       25.683       17.819     1218.558      659.610      317.504        0.451        0.110       81.995       18.645        0.052      337.580        9.648      866.075
12/07/2014  18:20:00     -107.501      -26.447       -5.765       20.861       32.341       17.712      435.180     1045.968      313.720        0.704        0.090      110.707        6.592        0.004      337.605        9.692      866.082
12/07/2014  18:21:00      -77.963      -41.855       -3.832       38.520       18.263       17.601     1483.826      333.546      309.782        0.499        0.106       88.488       20.112        0.052      337.594        9.674      866.083
12/07/2014  18:22:00      -67.126      -17.514        3.129       15.840       17.029       12.836      250.910      289.980      164.770        0.276        0.035       69.373       10.984        0.025      337.558        9.612      866.047
12/07/2014  18:23:00      -60.707      -20.070       -7.995        8.292        9.809        5.332       68.763       96.221       28.428        0.217        0.010       63.938        3.619        0.003      337.599        9.681      866.009
12/07/2014  18:24:00      -58.916      -20.712       -8.646        6.505        7.873        6.270       42.309       61.983       39.307        0.206        0.007       62.451        2.963        0.002      337.667        9.795      865.969
12/07/2014  18:25:00      -38.553      -27.274       -7.423       13.541        8.921        7.255      183.359       79.589       52.629        0.130        0.016       47.225        3.879        0.007      337.753        9.938      865.947
12/07/2014  18:26:00      -42.277      -31.340       -2.571       10.959       12.486        7.221      120.107      155.888       52.142        0.155        0.016       52.626        6.116        0.014      337.866       10.129      865.956
12/07/2014  18:27:00      -33.871      -26.114       -0.959       30.223       13.324       11.972      913.455      177.529      143.335        0.153        0.062       42.769        1.844        0.002      337.732        9.905      865.984
12/07/2014  18:28:00       -9.711      -13.376        4.059       22.120       17.767       12.664      489.279      315.676      160.382        0.063        0.048       16.529       13.126        0.631      337.743        9.924      865.992
12/07/2014  18:29:00      -54.372      -17.150       -3.463       19.762       13.204       10.140      390.551      174.343      102.828        0.196        0.033       57.013       11.698        0.042      337.635        9.743      865.974
12/07/2014  18:30:00      -63.167        6.511       -6.444        9.380       10.529        5.325       87.988      110.851       28.352        0.215        0.011       63.502        2.358        0.001      337.535        9.573      865.955
12/07/2014  18:31:00      -72.207        1.809       -7.374       15.407       10.242        6.775      237.381      104.898       45.905        0.283        0.019       72.229        7.258        0.010      337.570        9.633      865.924
12/07/2014  18:32:00      -48.893       -2.650       -7.526       16.928       13.430        9.009      286.552      180.376       81.167        0.150        0.027       48.965        9.512        0.038      337.523        9.554      865.918
12/07/2014  18:33:00      -29.346      -19.016       -4.327       13.131       11.676        7.933      172.424      136.340       62.935        0.081        0.019       34.968        7.550        0.047      337.566        9.627      865.920
12/07/2014  18:34:00      -15.602      -19.494        0.084        8.612        6.916        7.266       74.163       47.834       52.799        0.040        0.009       24.969        5.638        0.051      337.612        9.703      865.933
12/07/2014  18:35:00      -19.618      -17.060       -4.353       10.649        5.340        6.248      113.411       28.519       39.038        0.044        0.009       25.999        5.475        0.044      337.652        9.769      865.929
12/07/2014  18:36:00      -14.358      -12.779       -4.919        6.443        4.417        4.473       41.510       19.510       20.011        0.024        0.004       19.221        1.633        0.007      337.641        9.753      865.926
12/07/2014  18:37:00       -4.490       -7.852       -1.175        7.505       10.208        7.357       56.318      104.201       54.129        0.015        0.011        9.045        7.233        0.639      337.745        9.927      865.912
12/07/2014  18:38:00        7.363       22.980       26.210       10.684       13.608       12.891      114.142      185.191      166.178        0.087        0.023       24.130       11.144        0.213      337.584        9.655      865.892
12/07/2014  18:39:00       34.166       25.216       22.312       28.809       22.343       20.115      829.973      499.194      404.597        0.202        0.087       42.464       16.720        0.155      337.573        9.637      865.879
12/07/2014  18:40:00       74.034       25.524       14.355       20.168       17.294       18.525      406.761      299.069      343.188        0.369        0.052       78.311       12.848        0.027      337.579        9.648      865.872
12/07/2014  18:41:00       78.339       35.781       20.600       28.749       22.198       26.762      826.485      492.735      716.196        0.494        0.102       86.123       16.926        0.039      337.548        9.597      865.841
12/07/2014  18:42:00       90.379       49.156       21.674       33.771       23.426       22.540     1140.476      548.770      508.045        0.663        0.110      102.882       10.438        0.010      337.537        9.576      865.807
12/07/2014  18:43:00       72.298       27.305       11.278       33.836       21.450       21.199     1144.844      460.120      449.406        0.408        0.103       77.283       18.147        0.055      337.542        9.585      865.758
12/07/2014  18:44:00       81.603       54.533       31.360       28.540       21.575       24.017      814.551      465.484      576.817        0.624        0.093       98.148       13.920        0.020      337.638        9.747      865.724
12/07/2014  18:45:00       86.694       53.587       26.865       33.098       21.034       24.999     1095.498      442.409      624.963        0.664        0.108      101.918       16.298        0.026      337.572        9.638      865.715
12/07/2014  18:46:00       94.950       54.208       23.878       20.024       16.624       23.062      400.973      276.361      531.850        0.687        0.060      109.335       11.522        0.011      337.466        9.457      865.709
12/07/2014  18:47:00       92.060       66.300       33.621       34.313       28.866       32.488     1177.392      833.247     1055.499        0.853        0.153      113.449       27.591        0.059      337.587        9.663      865.700
12/07/2014  18:48:00       85.067       67.867       50.083       38.852       24.922       21.203     1509.461      621.091      449.586        0.846        0.129      108.822       17.993        0.027      337.491        9.501      865.694
12/07/2014  18:49:00       83.633       53.424       32.538       38.136       26.369       33.374     1454.324      695.300     1113.847        0.708        0.163       99.240       21.188        0.046      337.579        9.648      865.688
12/07/2014  18:50:00       97.267       56.230       12.147       18.069       15.762       18.372      326.503      248.444      337.526        0.684        0.046      112.350        4.060        0.001      337.359        9.280      865.692
12/07/2014  18:51:00       81.341       48.022        1.918       19.739       17.343       13.687      389.629      300.777      187.327        0.490        0.044       94.459        8.593        0.008      337.308        9.194      865.693
12/07/2014  18:52:00       82.379       57.353       10.232       22.034       15.873       17.813      485.519      251.953      317.297        0.562        0.053      100.377       15.410        0.024      337.327        9.224      865.681
12/07/2014  18:53:00       70.255       47.731       10.023       18.462       21.138       17.669      340.843      446.833      312.178        0.421        0.055       84.935       12.278        0.021      337.325        9.222      865.660
12/07/2014  18:54:00       45.208       49.719        1.654       28.487       32.635       20.642      811.530     1065.021      426.072        0.341        0.115       67.199       19.036        0.080      337.319        9.213      865.621
12/07/2014  18:55:00       61.281       45.337        4.472       34.663       24.485       22.271     1201.510      599.495      495.978        0.406        0.115       76.228       15.815        0.043      337.370        9.299      865.603
12/07/2014  18:56:00       85.515       60.921        3.076       28.950       27.195       23.177      838.084      739.557      537.156        0.657        0.106      104.996       15.593        0.022      337.439        9.413      865.594
12/07/2014  18:57:00       94.334       54.736       15.279       29.164       20.214       21.180      850.528      408.597      448.583        0.692        0.085      109.064       14.729        0.018      337.404        9.356      865.597
12/07/2014  18:58:00       70.902       50.686       11.950       29.984       21.431       19.405      899.052      459.289      376.551        0.474        0.087       87.155       12.995        0.022      337.407        9.359      865.621
12/07/2014  18:59:00       22.040       17.454       -1.443       17.000       16.652       10.189      289.009      277.289      103.806        0.073        0.034       28.114        8.803        0.098      337.323        9.221      865.647
12/07/2014  19:00:00       35.885       15.913        7.425       13.059       10.200       14.612      170.533      104.043      213.501        0.104        0.024       39.255        7.479        0.036      337.368        9.295      865.681
12/07/2014  19:01:00       46.618       29.624        9.570       16.447       14.654       14.087      270.490      214.742      198.453        0.191        0.034       55.235        7.560        0.019      337.385        9.322      865.720
12/07/2014  19:02:00       54.910       12.431       16.311       23.831       20.968       14.598      567.898      439.651      213.094        0.233        0.061       56.299       12.809        0.052      337.428        9.394      865.745
12/07/2014  19:03:00       51.203       15.041        9.115       20.788       16.039       16.014      432.144      257.264      256.462        0.194        0.047       53.367       10.155        0.036      337.414        9.371      865.763
12/07/2014  19:04:00       45.395       32.064       13.772       22.595       14.968       18.022      510.539      224.044      324.808        0.217        0.053       55.577       16.622        0.089      337.349        9.264      865.785
12/07/2014  19:05:00       33.755       25.747       21.838       17.217       13.008       14.657      296.417      169.219      214.830        0.148        0.034       42.454       11.754        0.077      337.302        9.184      865.797
12/07/2014  19:06:00       29.531       45.301       26.183       23.305       14.648       16.688      543.121      214.576      278.494        0.232        0.052       54.076       14.567        0.073      337.362        9.284      865.804
12/07/2014  19:07:00       32.350       38.547       15.232       26.887       18.297       19.953      722.898      334.794      398.124        0.211        0.073       50.323       12.773        0.064      337.395        9.339      865.790
12/07/2014  19:08:00       50.449       32.265       -2.516       20.804       10.210       12.387      432.795      104.235      153.437        0.214        0.035       59.884        7.350        0.015      337.440        9.415      865.786
12/07/2014  19:09:00       11.780       16.203        0.295       10.959        7.439        8.183      120.098       55.346       66.968        0.032        0.012       20.033        3.204        0.026      337.376        9.310      865.794
12/07/2014  19:10:00       -2.911       38.129       -7.577       10.166        9.638        4.763      103.353       92.900       22.683        0.087        0.011       38.240        3.795        0.010      337.420        9.380      865.816
12/07/2014  19:11:00      -35.776       21.026       -8.437       19.483       10.933        6.960      379.602      119.531       48.448        0.117        0.027       41.497        4.899        0.014      337.397        9.341      865.834
12/07/2014  19:12:00      -60.711        9.966      -11.389       10.157       10.918        7.019      103.167      119.202       49.267        0.209        0.014       61.524        4.496        0.005      337.141        8.917      865.840
12/07/2014  19:13:00      -69.660       29.478      -12.511       11.898       13.835       10.579      141.566      191.405      111.916        0.316        0.022       75.640        4.739        0.004      337.247        9.092      865.842
12/07/2014  19:14:00      -66.533        9.116      -11.612       15.727       10.944       10.523      247.342      119.773      110.733        0.256        0.024       67.154        5.136        0.006      337.201        9.016      865.836
12/07/2014  19:15:00      -42.292      -18.023       -9.856       19.334       25.134       12.279      373.806      631.699      150.763        0.168        0.058       45.973        9.757        0.045      337.084        8.817      865.833
12/07/2014  19:16:00      -33.859       -8.988       -3.471       21.338       19.607        9.209      455.309      384.444       84.812        0.108        0.046       35.031        6.770        0.037      337.052        8.765      865.820
12/07/2014  19:17:00      -42.014        2.096      -11.279       20.455       11.684        9.975      418.413      136.506       99.492        0.128        0.033       42.067        6.925        0.027      337.047        8.756      865.809
12/07/2014  19:18:00      -48.039       -4.453       -7.012       10.467       12.995        9.809      109.552      168.865       96.208        0.138        0.019       48.245        4.868        0.010      337.021        8.712      865.820
12/07/2014  19:19:00      -59.745       -7.918      -10.277       12.488       17.853       10.495      155.961      318.719      110.151        0.216        0.029       60.268       10.200        0.029      336.902        8.515      865.841
12/07/2014  19:20:00      -60.093      -18.907      -14.322        8.884       11.223        9.708       78.922      125.966       94.244        0.224        0.015       62.997        3.730        0.004      336.779        8.312      865.857
12/07/2014  19:21:00      -70.437      -14.188       -6.894       26.277       17.929       13.987      690.463      321.440      195.625        0.321        0.060       71.852       13.796        0.037      336.754        8.270      865.885
12/07/2014  19:22:00      -59.615       -1.278       -8.951       35.713       19.882       13.348     1275.451      395.295      178.161        0.274        0.092       59.629       14.422        0.058      336.697        8.175      865.920
12/07/2014  19:23:00      -44.972       -8.706       -2.516       19.366       19.866       11.650      375.037      394.672      135.726        0.150        0.045       45.807        9.588        0.044      336.666        8.123      865.946
12/07/2014  19:24:00      -40.868      -13.680       -6.493       19.427       15.589        8.747      377.424      243.024       76.514        0.130        0.035       43.096        5.288        0.015      336.721        8.215      865.937
12/07/2014  19:25:00      -22.601      -15.410       -8.236       16.315       13.087        9.853      266.172      171.261       97.091        0.068        0.027       27.355       10.266        0.141      336.754        8.269      865.903
12/07/2014  19:26:00      -21.117        8.049       -5.477       13.833       18.284        8.753      191.358      334.301       76.621        0.057        0.030       22.599        3.363        0.022      336.815        8.371      865.862
12/07/2014  19:27:00      -36.119       41.148       -9.765       11.838       22.368       10.348      140.136      500.332      107.090        0.192        0.037       54.751        7.455        0.019      337.062        8.783      865.839
12/07/2014  19:28:00      -37.082       52.188      -13.807       11.442       21.892       12.048      130.927      479.263      145.164        0.252        0.038       64.021        6.369        0.010      337.068        8.792      865.827
12/07/2014  19:29:00      -54.505       30.512      -10.585       15.769       30.002       10.958      248.676      900.093      120.072        0.264        0.063       62.465       11.033        0.031      336.872        8.463      865.832
12/07/2014  19:30:00      -40.233      -19.213       -8.310        8.637       18.051        7.207       74.600      325.824       51.941        0.125        0.023       44.585        3.619        0.007      336.743        8.251      865.835
12/07/2014  19:31:00      -56.309      -23.387      -14.970       11.870       15.927        7.817      140.894      253.670       61.106        0.220        0.023       60.972        5.986        0.010      336.657        8.106      865.840
12/07/2014  19:32:00      -58.647      -16.292      -11.160       14.132       13.518        7.439      199.699      182.730       55.341        0.213        0.022       60.867        5.970        0.010      336.540        7.909      865.844
12/07/2014  19:33:00      -67.738      -11.429      -12.897       13.588       12.626        8.488      184.646      159.428       72.048        0.265        0.021       68.696        7.527        0.012      336.474        7.800      865.881
12/07/2014  19:34:00      -77.176        2.277      -15.099       15.096       17.193       11.773      227.896      295.583      138.598        0.343        0.033       77.210        7.476        0.009      336.461        7.779      865.918
12/07/2014  19:35:00      -63.055       -7.136       -8.471       15.754       17.384       11.609      248.203      302.200      134.779        0.239        0.034       63.457        8.534        0.018      336.435        7.735      865.946
12/07/2014  19:36:00      -50.298       -4.416      -13.640       16.661       12.955       10.123      277.590      167.820      102.469        0.164        0.027       50.492        6.862        0.018      336.490        7.826      865.973
12/07/2014  19:37:00      -58.896        6.483       -9.917       14.644       17.103        9.866      214.455      292.519       97.332        0.211        0.030       59.252        7.871        0.018      336.630        8.061      865.999
12/07/2014  19:38:00      -83.980       -0.203      -16.004       14.241       14.588        8.553      202.809      212.796       73.154        0.390        0.024       83.981        5.521        0.004      336.562        7.948      866.033
12/07/2014  19:39:00      -76.941      -24.986      -11.333       16.721       14.185       10.171      279.604      201.224      103.454        0.363        0.029       80.896        9.427        0.014      336.510        7.861      866.058
12/07/2014  19:40:00      -94.720      -33.624      -13.096       14.732       16.794       11.901      217.039      282.026      141.639        0.546        0.032      100.511        4.692        0.002      336.424        7.716      866.074
12/07/2014  19:41:00     -116.143      -32.625       -9.544       29.242       28.326       17.389      855.074      802.367      302.371        0.830        0.098      120.639       15.895        0.017      336.390        7.659      866.087
12/07/2014  19:42:00     -123.610        0.225       -9.234       37.142       19.255       17.488     1379.493      370.746      305.821        0.871        0.103      123.610       17.537        0.020      336.352        7.596      866.106
12/07/2014  19:43:00     -128.041        3.586       -8.847       50.989       31.219       28.835     2599.866      974.600      831.434        1.044        0.220      128.092       29.303        0.052      336.370        7.626      866.124
12/07/2014  19:44:00     -164.220       12.672      -10.578       53.673       30.678       27.467     2880.755      941.117      754.437        1.591        0.229      164.708       27.159        0.027      336.450        7.760      866.159
12/07/2014  19:45:00     -187.191       37.561      -13.343       47.563       30.547       20.280     2262.219      933.108      411.287        2.012        0.180      190.922       17.582        0.008      336.419        7.706      866.207
12/07/2014  19:46:00     -145.672       24.086      -15.104       57.862       44.440       26.557     3348.057     1974.895      705.273        1.403        0.301      147.650       22.874        0.024      336.290        7.492      866.265
12/07/2014  19:47:00     -147.572      -49.130      -17.313       59.700       42.786       28.863     3564.108     1830.610      833.098        1.536        0.311      155.535       27.476        0.031      336.211        7.361      866.315
12/07/2014  19:48:00     -114.701      -13.922       -1.963       65.503       54.459       28.975     4290.687     2965.806      839.556        1.072        0.405      115.543       27.527        0.057      336.205        7.349      866.339
12/07/2014  19:49:00      -97.727      -13.631       -3.791       46.598       36.142       32.212     2171.342     1306.261     1037.582        0.713        0.226       98.673       30.231        0.094      336.224        7.382      866.340
12/07/2014  19:50:00     -117.073       18.134      -11.852       59.364       41.316       34.079     3524.062     1706.992     1161.380        1.028        0.320      118.470       24.523        0.043      336.224        7.381      866.316
12/07/2014  19:51:00     -154.269       55.388      -29.777       43.902       39.442       21.428     1927.393     1555.679      459.163        1.585        0.197      163.911       12.629        0.006      336.284        7.482      866.283
12/07/2014  19:52:00     -115.028      -25.673      -26.474       38.575       53.719       22.016     1488.032     2885.750      484.702        0.972        0.243      117.859       16.597        0.020      336.355        7.602      866.267
12/07/2014  19:53:00     -137.942       17.467      -21.362       30.293       33.372       27.045      917.648     1113.713      731.432        1.128        0.138      139.043       20.362        0.021      336.413        7.698      866.258
12/07/2014  19:54:00     -134.593       -9.631      -17.000       21.170       21.439       15.063      448.153      459.650      226.888        0.982        0.057      134.937       11.972        0.008      336.469        7.792      866.230
12/07/2014  19:55:00      -83.574       -8.457      -12.629       28.648       25.339       16.574      820.685      642.080      274.696        0.448        0.087       84.001       14.711        0.031      336.366        7.620      866.177
12/07/2014  19:56:00      -63.852      -13.109      -11.993       15.421       15.239       10.666      237.804      232.225      113.773        0.249        0.029       65.184        9.335        0.021      336.359        7.608      866.138
12/07/2014  19:57:00      -48.917       13.898       -5.395       16.090       21.968       10.628      258.893      482.615      112.945        0.173        0.043       50.853        6.521        0.016      336.514        7.867      866.106
12/07/2014  19:58:00      -55.997       -4.388       -5.668       21.603       18.774       12.847      466.689      352.450      165.055        0.209        0.049       56.169       11.125        0.039      336.541        7.912      866.093
12/07/2014  19:59:00      -64.900      -20.219       -8.633       12.243       10.298        9.582      149.903      106.044       91.819        0.252        0.017       67.976        6.216        0.008      336.271        7.461      866.098
12/07/2014  20:00:00      -80.412      -37.205       -8.631       14.361        8.544        7.307      206.244       72.999       53.392        0.413        0.017       88.602        4.516        0.003      336.215        7.368      866.103
12/07/2014  20:01:00      -85.884       -8.779      -11.106       11.420       13.012        8.618      130.424      169.322       74.267        0.398        0.019       86.332        4.833        0.003      336.172        7.294      866.099
12/07/2014  20:02:00      -51.790      -17.016      -13.752       16.695       15.219        7.572      278.735      231.621       57.330        0.186        0.028       54.514        7.256        0.018      336.227        7.387      866.084
12/07/2014  20:03:00      -47.486      -39.958       -8.325       13.457       12.772       10.775      181.079      163.113      116.092        0.219        0.023       62.062        9.427        0.023      336.244        7.415      866.068
12/07/2014  20:04:00      -67.569      -37.470       -9.153       12.355       18.435        8.829      152.654      339.861       77.956        0.331        0.029       77.263        6.009        0.006      336.182        7.313      866.084
12/07/2014  20:05:00      -71.586      -35.305      -14.460       10.477       14.800        9.288      109.774      219.028       86.272        0.350        0.021       79.819        5.236        0.004      336.184        7.316      866.093
12/07/2014  20:06:00      -74.198      -20.847      -14.363       10.557       11.707        6.877      111.451      137.063       47.300        0.322        0.015       77.071        4.324        0.003      336.122        7.211      866.087
12/07/2014  20:07:00      -71.352      -29.222       -5.932       18.412       15.155       10.308      339.020      229.666      106.249        0.333        0.034       77.104        7.140        0.009      336.074        7.133      866.090
12/07/2014  20:08:00      -52.276      -27.635       -3.873       14.844       17.106       10.654      220.347      292.623      113.513        0.207        0.031       59.131        7.544        0.016      336.082        7.144      866.097
12/07/2014  20:09:00      -35.582      -21.294       -3.718       18.882       19.335       10.185      356.543      373.824      103.739        0.128        0.042       41.467        9.553        0.053      336.131        7.225      866.099
12/07/2014  20:10:00      -30.729       -9.590       -9.699       10.808       12.239        8.448      116.822      149.785       71.367        0.073        0.017       32.191        6.429        0.040      336.237        7.403      866.094
12/07/2014  20:11:00        2.845       12.331        1.006       19.445       10.378        7.820      378.106      107.700       61.151        0.035        0.027       12.655        9.170        0.525      336.460        7.777      866.083
12/07/2014  20:12:00       30.580       16.595       -0.703        6.837       10.716        5.391       46.741      114.836       29.061        0.070        0.010       34.793        2.264        0.004      336.389        7.658      866.056
12/07/2014  20:13:00       22.966       15.375       -1.790       10.748        6.762        3.133      115.528       45.728        9.817        0.047        0.009       27.637        3.388        0.015      336.390        7.659      866.036
12/07/2014  20:14:00       -4.950        7.517       -4.503        6.465        8.043        4.911       41.796       64.692       24.113        0.012        0.007        9.000        2.007        0.050      336.511        7.864      866.027
12/07/2014  20:15:00      -68.726      -21.599      -10.572       27.831       11.726       10.347      774.567      137.497      107.062        0.316        0.051       72.040        5.786        0.006      336.119        7.206      866.038
12/07/2014  20:16:00     -137.366      -48.520       -9.577       33.510       28.388       13.483     1122.899      805.865      181.786        1.171        0.106      145.683        6.146        0.002      335.886        6.818      866.050
12/07/2014  20:17:00     -118.871      -43.053       -1.298       39.038       40.908       23.817     1523.977     1673.458      567.239        0.987        0.188      126.427       18.560        0.022      335.791        6.661      866.054
12/07/2014  20:18:00     -167.527      -45.635        1.186       51.180       38.643       27.315     2619.439     1493.297      746.093        1.750        0.243      173.631       27.601        0.025      335.886        6.817      866.053
12/07/2014  20:19:00     -144.937      -76.000        1.674       63.186       36.748       27.255     3992.472     1350.429      742.824        1.643        0.304      163.654       28.644        0.031      335.960        6.942      866.045
12/07/2014  20:20:00     -161.790      -64.367       -8.265       45.733       32.236       26.181     2091.502     1039.159      685.428        1.710        0.191      174.124       25.396        0.021      335.990        6.989      866.028
12/07/2014  20:21:00     -165.907      -55.095      -12.608       29.554       25.345       23.600      873.428      642.383      556.969        1.640        0.104      174.816       16.276        0.009      335.997        7.003      865.998
12/07/2014  20:22:00     -152.365      -46.637       -8.706       35.017       38.606       17.352     1226.196     1490.419      301.084        1.424        0.151      159.343       12.473        0.006      335.877        6.802      865.981
12/07/2014  20:23:00     -126.596      -33.455      -10.331       40.253       31.009       19.174     1620.267      961.581      367.644        1.010        0.147      130.942       18.368        0.020      335.856        6.768      865.975
12/07/2014  20:24:00      -33.564      -60.286        2.805       57.612       18.629       17.347     3319.111      347.032      300.907        0.437        0.198       68.999       24.461        0.126      335.957        6.936      865.991
12/07/2014  20:25:00      -24.306      -26.045        7.782       26.183       19.378       13.518      685.554      375.498      182.745        0.129        0.062       35.625       12.398        0.121      335.946        6.917      866.005
12/07/2014  20:26:00      -10.677        1.780        6.507       18.036        7.109       11.888      325.286       50.531      141.333        0.034        0.026       10.825       13.168        1.480      335.939        6.906      866.010
12/07/2014  20:27:00      -62.959      -27.038       -3.170       17.816       27.053       14.084      317.408      731.855      198.363        0.298        0.062       68.519        6.289        0.008      336.143        7.247      866.020
12/07/2014  20:28:00      -99.550      -26.634      -15.477       18.557       22.120       12.121      344.368      489.303      146.916        0.592        0.049      103.052       11.432        0.012      336.117        7.204      866.048
12/07/2014  20:29:00     -126.787      -33.101      -15.546       20.255       17.912       13.121      410.267      320.823      172.174        0.916        0.045      131.037        7.303        0.003      336.034        7.065      866.084
12/07/2014  20:30:00     -144.806      -40.033       -7.708       32.097       19.328       19.000     1030.209      373.576      360.993        1.220        0.088      150.238       19.189        0.016      335.944        6.915      866.124
12/07/2014  20:31:00     -166.049      -43.048       -5.956       33.795       26.950       22.514     1142.086      726.291      506.901        1.592        0.119      171.539       16.835        0.010      335.780        6.641      866.172
12/07/2014  20:32:00     -151.461      -29.432       -6.388       50.936       38.947       23.567     2594.462     1516.871      555.401        1.426        0.233      154.295       18.325        0.014      335.734        6.565      866.216
12/07/2014  20:33:00     -164.095      -11.291      -15.726       44.127       36.473       24.451     1947.216     1330.313      597.846        1.559        0.194      164.483       21.856        0.018      335.727        6.554      866.250
12/07/2014  20:34:00     -168.420      -30.867      -23.827       22.346       34.160       15.409      499.330     1166.879      237.426        1.589        0.095      171.226       11.212        0.004      335.779        6.639      866.248
12/07/2014  20:35:00     -122.109      -29.182       -6.143       31.650       38.098       24.281     1001.752     1451.421      589.545        0.942        0.152      125.548       20.888        0.028      335.681        6.476      866.235
12/07/2014  20:36:00     -107.833      -25.503      -13.610       38.268       16.989       16.631     1464.444      288.617      276.602        0.725        0.101      110.808       11.521        0.011      335.671        6.461      866.236
12/07/2014  20:37:00      -10.783      -32.404       10.914       26.960       29.953       17.405      726.839      897.190      302.947        0.161        0.096       34.151       12.406        0.132      335.857        6.771      866.232
12/07/2014  20:38:00      -34.048      -13.370        4.368       39.120       22.403       16.741     1530.367      501.897      280.250        0.183        0.116       36.579       18.652        0.260      335.829        6.722      866.225
12/07/2014  20:39:00      -14.876       -0.578       -2.110       33.104       19.013       16.539     1095.880      361.483      273.552        0.098        0.087       14.888       18.981        1.626      335.957        6.937      866.217
12/07/2014  20:40:00      -13.370      -14.459       -6.965       12.730       16.141        9.068      162.045      260.525       82.223        0.047        0.025       19.693        8.565        0.189      335.930        6.891      866.215
12/07/2014  20:41:00      -15.535        2.573       -0.557       31.675       18.259       18.308     1003.291      333.383      335.175        0.096        0.084       15.746        8.699        0.305      336.009        7.023      866.237
12/07/2014  20:42:00      -69.342       63.966      -14.095       30.538       76.670       19.145      932.539     5878.237      366.523        0.814        0.359       94.340       29.500        0.098      336.178        7.306      866.246
12/07/2014  20:43:00      -29.384       35.784       -1.230       36.272       53.153       22.713     1315.636     2825.289      515.893        0.340        0.233       46.303       20.476        0.196      336.205        7.351      866.258
12/07/2014  20:44:00      -49.823        3.852       -4.420       27.536       18.525       16.691      758.259      343.157      278.600        0.195        0.069       49.971       12.153        0.059      335.848        6.754      866.265
12/07/2014  20:45:00      -54.578        0.528      -15.951       13.684       16.528        9.712      187.253      273.164       94.322        0.189        0.028       54.580        7.009        0.016      335.879        6.807      866.273
12/07/2014  20:46:00      -40.657      -37.365       -2.675       21.647       18.958       13.393      468.610      359.414      179.373        0.203        0.050       55.219       13.016        0.056      335.732        6.562      866.262
12/07/2014  20:47:00      -30.005      -53.704        9.796       35.017       24.906       23.521     1226.168      620.298      553.243        0.314        0.120       61.518       24.139        0.154      335.870        6.791      866.268
12/07/2014  20:48:00      -53.306      -73.112        0.739       35.356       41.468       21.656     1250.081     1719.627      468.969        0.581        0.172       90.482       21.030        0.054      336.010        7.026      866.282
12/07/2014  20:49:00     -106.198      -93.365       -3.227       54.686       41.661       28.429     2990.594     1735.609      808.220        1.277        0.277      141.403       28.788        0.041      335.816        6.701      866.291
12/07/2014  20:50:00     -137.918      -98.124      -12.560       27.154       30.747       17.909      737.356      945.385      320.715        1.541        0.100      169.262       11.539        0.005      335.812        6.694      866.272
12/07/2014  20:51:00     -109.260      -56.776        0.145       40.189       29.952       18.907     1615.175      897.115      357.479        0.901        0.143      123.131       18.910        0.024      335.774        6.631      866.246
12/07/2014  20:52:00      -55.378      -40.642        3.556       41.688       22.534       18.815     1737.900      507.801      354.019        0.366        0.130       68.691       16.204        0.056      335.785        6.650      866.220
12/07/2014  20:53:00     -115.385      -73.278        1.025       40.944       36.313       23.476     1676.415     1318.619      551.119        1.111        0.177      136.687       20.715        0.023      335.817        6.703      866.211
12/07/2014  20:54:00     -106.424      -73.001        2.602       73.242       36.955       27.965     5364.351     1365.651      782.038        1.209        0.376      129.055       31.515        0.060      335.754        6.598      866.220
12/07/2014  20:55:00     -123.794      -98.360       -9.228       74.689       56.800       37.756     5578.427     3226.206     1425.517        1.766        0.512      158.113       37.735        0.057      335.797        6.667      866.234
12/07/2014  20:56:00      -88.373      -35.440        1.508       50.527       46.990       28.817     2553.017     2208.054      830.432        0.733        0.280       95.214       29.462        0.096      335.744        6.581      866.233
12/07/2014  20:57:00     -116.824      -17.575       -3.845       45.733       30.213       26.396     2091.516      912.796      696.738        0.884        0.185      118.138       26.302        0.050      335.733        6.564      866.237
12/07/2014  20:58:00     -104.043        2.547       -0.533       43.624       26.863       23.439     1903.081      721.634      549.380        0.700        0.159      104.074       22.812        0.048      335.638        6.406      866.237
12/07/2014  20:59:00      -98.019      -16.650      -10.392       37.048       27.761       20.561     1372.556      770.670      422.762        0.628        0.128       99.423       18.229        0.034      335.671        6.459      866.242
12/07/2014  21:00:00     -109.733      -28.555       -8.388       34.986       28.603       13.963     1224.047      818.132      194.955        0.758        0.112      113.388       12.119        0.011      335.799        6.674      866.242
12/07/2014  21:01:00      -67.746      -32.921        4.741       34.434       27.136       18.734     1185.711      736.381      350.980        0.398        0.114       75.321       19.348        0.066      335.799        6.674      866.240
12/07/2014  21:02:00      -50.483       -9.045        7.032       28.800       19.716       17.811      829.431      388.725      317.249        0.211        0.077       51.286       17.742        0.120      335.934        6.898      866.227
12/07/2014  21:03:00      -71.490       -4.104       -6.196       11.616        8.774        5.385      134.932       76.978       29.003        0.270        0.012       71.608        4.291        0.004      336.248        7.423      866.209
12/07/2014  21:04:00      -47.950       17.015      -10.111        4.355        8.103        5.236       18.966       65.665       27.420        0.140        0.006       50.879        5.059        0.010      336.330        7.558      866.170
12/07/2014  21:05:00       -8.462       50.428       -3.654       32.790       20.304       12.882     1075.192      412.259      165.953        0.214        0.083       51.133       11.832        0.054      336.349        7.591      866.133
12/07/2014  21:06:00        5.114       85.500      -11.205       10.875       13.831        7.182      118.272      191.310       51.581        0.391        0.018       85.653        5.926        0.005      336.133        7.230      866.112
12/07/2014  21:07:00      -15.824      109.842      -18.941       11.116        9.268        8.415      123.569       85.895       70.818        0.648        0.014      110.976        4.380        0.002      336.050        7.092      866.113
12/07/2014  21:08:00       16.079       89.662      -18.373       14.605       22.522        8.948      213.318      507.218       80.060        0.472        0.040       91.092        7.112        0.006      335.852        6.761      866.107
12/07/2014  21:09:00       38.616       62.563      -13.382       21.803       37.604       15.508      475.368     1414.076      240.510        0.386        0.106       73.520       17.060        0.054      335.582        6.311      866.116
12/07/2014  21:10:00       38.887      103.057      -14.860       32.257       56.984       26.637     1040.530     3247.161      709.507        0.867        0.250      110.149       31.138        0.080      335.510        6.191      866.123
12/07/2014  21:11:00      -12.901      154.867      -23.131       23.199       16.435       11.358      538.176      270.125      129.003        1.281        0.047      155.404       11.500        0.005      335.749        6.589      866.119
12/07/2014  21:12:00      -52.990      109.479      -22.804       16.465       23.266       14.564      271.088      541.330      212.096        0.817        0.051      121.629        9.595        0.006      336.083        7.146      866.118
12/07/2014  21:13:00      -38.777       73.520      -11.888       25.033       25.100       16.757      626.645      630.011      280.795        0.429        0.077       83.120       13.226        0.025      336.331        7.562      866.122
12/07/2014  21:14:00      -47.246       65.061      -17.601       17.680       17.159       11.129      312.599      294.431      123.850        0.375        0.037       80.406        8.400        0.011      336.314        7.532      866.120
12/07/2014  21:15:00      -24.266        4.958       -1.249       12.217       16.655        8.119      149.248      277.401       65.918        0.055        0.025       24.767        6.027        0.059      335.923        6.880      866.114
12/07/2014  21:16:00        6.986        6.275        6.862       15.469       18.886        9.239      239.294      356.683       85.368        0.041        0.034        9.391        6.947        0.547      335.884        6.816      866.119
12/07/2014  21:17:00       -2.779       11.137        8.288       13.567       11.720       11.821      184.051      137.370      139.727        0.033        0.023       11.478       11.721        1.043      335.615        6.368      866.128
12/07/2014  21:18:00       -3.974       22.474        0.710       16.562       21.299       10.162      274.303      453.637      103.262        0.068        0.042       22.823       10.036        0.193      335.566        6.286      866.127
12/07/2014  21:19:00      -21.107       47.502       -7.082       31.420       40.147       16.177      987.208     1611.789      261.686        0.281        0.143       51.980       14.451        0.077      335.695        6.499      866.108
12/07/2014  21:20:00      -47.589      -25.413       -1.921       12.042       11.717        6.861      145.005      137.291       47.077        0.162        0.016       53.949        4.295        0.006      335.650        6.425      866.084
12/07/2014  21:21:00      -57.140      -25.998      -12.107       14.221       14.287        5.202      202.234      204.128       27.057        0.226        0.022       62.776        5.697        0.008      335.425        6.047      866.091
12/07/2014  21:22:00      -79.804      -30.463      -17.131       16.636       21.006       11.309      276.757      441.259      127.885        0.422        0.042       85.421       10.674        0.016      335.330        5.891      866.107
12/07/2014  21:23:00      -83.660      -23.762      -16.238       14.812       13.699       10.581      219.394      187.673      111.968        0.417        0.026       86.969        7.723        0.008      335.303        5.846      866.116
12/07/2014  21:24:00      -80.346      -20.682      -20.029       15.561       16.369        9.095      242.150      267.951       82.723        0.394        0.030       82.965        6.949        0.007      335.301        5.842      866.109
12/07/2014  21:25:00      -89.119      -31.511      -10.807       22.347       13.719       10.323      499.396      188.210      106.563        0.492        0.040       94.526        4.417        0.002      335.287        5.818      866.103
12/07/2014  21:26:00     -102.735      -23.449      -16.821       20.622       13.891       13.440      425.286      192.968      180.638        0.609        0.040      105.377       12.269        0.014      335.301        5.843      866.096
12/07/2014  21:27:00      -90.268      -30.524      -14.006       17.268       18.830       11.271      298.175      354.578      127.039        0.503        0.039       95.289       10.471        0.012      335.323        5.879      866.105
12/07/2014  21:28:00      -64.961      -44.548       -4.431       26.991       23.251       15.319      728.499      540.600      234.686        0.386        0.075       78.769       15.767        0.040      335.282        5.811      866.119
12/07/2014  21:29:00      -85.083      -27.263       -4.443       33.999       20.437       15.666     1155.919      417.668      245.438        0.491        0.091       89.344       17.961        0.040      335.256        5.768      866.138
12/07/2014  21:30:00      -86.648      -49.964       -1.032       32.731       24.794       15.791     1071.310      614.764      249.360        0.597        0.097      100.021       13.906        0.019      335.255        5.765      866.160
12/07/2014  21:31:00     -118.204      -67.337        3.978       69.904       41.834       22.929     4886.584     1750.119      525.750        1.284        0.358      136.038       23.614        0.030      335.256        5.769      866.167
12/07/2014  21:32:00     -104.929      -79.142       -1.466       58.218       46.668       31.260     3389.339     2177.942      977.182        1.191        0.327      131.429       32.526        0.061      335.216        5.701      866.158
12/07/2014  21:33:00     -116.959      -47.286       -4.559       37.865       43.877       18.864     1433.771     1925.205      355.848        0.982        0.186      126.157       18.425        0.021      335.125        5.552      866.147
12/07/2014  21:34:00     -130.317      -66.743       -0.062       33.341       25.448       23.171     1111.599      647.599      536.903        1.187        0.115      146.415       15.649        0.011      335.083        5.482      866.136
12/07/2014  21:35:00     -105.790      -71.720       -3.882       49.109       26.610       20.878     2411.684      708.072      435.907        0.995        0.178      127.810       23.172        0.033      335.152        5.598      866.150
12/07/2014  21:36:00     -149.371      -49.746       -5.869       25.694       25.913       14.048      660.202      671.507      197.343        1.317        0.076      157.436        4.670        0.001      335.210        5.690      866.154
12/07/2014  21:37:00     -131.773      -75.798       -2.504       44.231       28.826       23.008     1956.341      830.910      529.372        1.322        0.166      152.018       20.080        0.017      335.283        5.813      866.165
12/07/2014  21:38:00     -125.381      -72.722       -1.594       48.963       36.485       28.401     2397.408     1331.161      806.640        1.277        0.227      144.945       31.606        0.048      335.247        5.754      866.170
12/07/2014  21:39:00     -130.568      -66.868       -1.100       46.444       31.368       25.585     2157.088      983.961      654.591        1.266        0.190      146.694       24.802        0.029      335.232        5.729      866.178
12/07/2014  21:40:00     -128.006      -43.644       -0.650       37.558       30.659       26.649     1410.628      939.968      710.162        1.068        0.153      135.241       23.692        0.031      335.231        5.727      866.181
12/07/2014  21:41:00     -113.474      -33.486        0.745       46.016       31.029       21.045     2117.494      962.806      442.909        0.876        0.176      118.312       19.955        0.028      335.231        5.726      866.179
12/07/2014  21:42:00     -121.562      -29.327        3.717       51.072       34.133       24.732     2608.365     1165.066      611.664        1.002        0.219      125.050       23.886        0.036      335.169        5.625      866.171
12/07/2014  21:43:00     -109.376      -19.955       -3.206       39.890       31.634       19.515     1591.238     1000.738      380.849        0.767        0.149      111.182       20.908        0.035      335.047        5.423      866.170
12/07/2014  21:44:00      -99.947      -13.053       -8.139       37.184       27.232       18.939     1382.650      741.580      358.701        0.635        0.124      100.796       15.194        0.023      334.982        5.314      866.145
12/07/2014  21:45:00      -83.489      -36.069       -2.611       35.468       25.912       15.575     1258.005      671.446      242.574        0.522        0.109       90.947       16.851        0.034      334.976        5.304      866.132
12/07/2014  21:46:00      -84.953      -45.751        4.526       34.566       29.917       19.740     1194.815      895.024      389.686        0.590        0.124       96.489       18.622        0.037      335.015        5.371      866.125
12/07/2014  21:47:00     -107.433      -29.157       -3.786       40.188       27.715       21.474     1615.077      768.118      461.150        0.762        0.142      111.319       19.354        0.030      335.047        5.422      866.138
12/07/2014  21:48:00      -99.731      -37.233        2.361       30.460       25.890       18.336      927.829      670.280      336.216        0.664        0.097      106.455       17.698        0.028      335.013        5.366      866.129
12/07/2014  21:49:00      -90.391      -30.925        2.900       37.013       25.885       19.854     1369.941      670.044      394.195        0.578        0.122       95.535       18.986        0.039      334.961        5.278      866.110
12/07/2014  21:50:00      -99.329      -33.100        6.569       30.758       27.269       20.203      946.026      743.617      408.151        0.655        0.105      104.699       18.217        0.030      335.014        5.367      866.101
12/07/2014  21:51:00      -94.626      -35.727        4.450       22.052       24.648       14.177      486.274      607.535      200.991        0.577        0.065      101.146       12.856        0.016      334.998        5.341      866.114
12/07/2014  21:52:00      -72.241      -56.554        5.095       32.789       23.268       16.955     1075.105      541.377      287.459        0.517        0.095       91.745       14.802        0.026      335.148        5.589      866.120
12/07/2014  21:53:00      -71.228      -68.197       -3.824       23.874       27.117       16.362      569.961      735.327      267.704        0.566        0.079       98.612       16.148        0.027      335.218        5.703      866.116
12/07/2014  21:54:00      -93.882      -50.389       -3.264       17.762       24.627       18.431      315.479      606.508      339.708        0.631        0.063      106.550       11.907        0.012      335.172        5.629      866.120
12/07/2014  21:55:00     -106.915      -49.066       -5.646       19.363       26.928       12.932      374.925      725.119      167.224        0.757        0.063      117.636        9.770        0.007      335.238        5.738      866.123
12/07/2014  21:56:00     -119.604       -8.996       -6.037       26.582       18.881       14.854      706.626      356.503      220.651        0.785        0.064      119.942       11.772        0.010      335.103        5.514      866.115
12/07/2014  21:57:00     -148.149        8.528      -16.929       32.072       23.058       19.843     1028.606      531.693      393.728        1.213        0.098      148.394       16.929        0.013      335.029        5.393      866.111
12/07/2014  21:58:00     -140.530       21.543       -6.198       35.195       29.976       18.670     1238.715      898.535      348.558        1.137        0.124      142.171       14.479        0.010      335.095        5.502      866.104
12/07/2014  21:59:00     -128.245       18.922       -6.665       43.160       24.774       17.567     1862.793      613.770      308.586        0.982        0.139      129.633       17.488        0.018      335.088        5.490      866.099
12/07/2014  22:00:00     -135.239       26.122       -6.654       22.096       17.670       11.573      488.238      312.219      133.941        0.998        0.047      137.739       11.981        0.008      335.061        5.446      866.095
12/07/2014  22:01:00      -81.365        2.712       -9.539       32.717       17.199       13.384     1070.427      295.810      179.131        0.413        0.077       81.410        9.904        0.015      335.020        5.378      866.090
12/07/2014  22:02:00      -55.166      -22.235       -2.704       16.066       18.542       12.239      258.101      343.801      149.796        0.215        0.038       59.479        8.171        0.019      335.056        5.436      866.092
12/07/2014  22:03:00      -76.049       11.492       -9.000       27.032       20.544       11.865      730.756      422.060      140.784        0.364        0.065       76.913       12.462        0.026      334.982        5.313      866.099
12/07/2014  22:04:00      -88.853      -15.805      -11.743       17.332       20.099        8.546      300.388      403.987       73.032        0.453        0.039       90.248        9.161        0.010      334.925        5.220      866.085
12/07/2014  22:05:00     -101.557      -26.094       -7.080       30.521       20.144       15.382      931.526      405.765      236.598        0.631        0.079      104.856       15.675        0.022      334.849        5.093      866.074
12/07/2014  22:06:00     -127.328      -28.671      -10.295       19.395       20.537       11.785      376.152      421.783      138.892        0.904        0.047      130.516        8.143        0.004      334.785        4.987      866.074
12/07/2014  22:07:00     -117.974      -31.755       -9.850       29.309       26.145       18.958      859.029      683.572      359.399        0.846        0.095      122.173       11.711        0.009      334.656        4.771      866.089
12/07/2014  22:08:00     -119.751      -22.879      -12.638       33.994       29.036       19.862     1155.585      843.096      394.518        0.871        0.120      121.917        9.048        0.006      334.530        4.563      866.116
12/07/2014  22:09:00      -56.356       -5.937      -13.845       24.639       28.286       18.814      607.098      800.075      353.976        0.258        0.088       56.668       12.168        0.046      334.517        4.542      866.147
12/07/2014  22:10:00      -88.685        0.935      -16.232       36.795       29.388       19.558     1353.850      863.629      382.526        0.536        0.130       88.690       21.881        0.061      334.693        4.834      866.167
12/07/2014  22:11:00      -55.467      -13.064      -10.975       36.318       14.513       13.048     1318.964      210.629      170.260        0.253        0.085       56.984       16.430        0.083      334.683        4.817      866.165
12/07/2014  22:12:00      -30.330       -7.755       -5.532       12.409       11.490        8.515      153.990      132.022       72.501        0.068        0.018       31.305        5.771        0.034      334.787        4.989      866.141
12/07/2014  22:13:00      -28.048       31.321       -3.713       12.103       21.483       10.452      146.471      461.501      109.254        0.125        0.036       42.044        7.122        0.029      335.022        5.380      866.116
12/07/2014  22:14:00      -45.603        7.786       -5.447       15.710       15.394        9.923      246.804      236.969       98.465        0.138        0.029       46.263        7.688        0.028      335.012        5.365      866.100
12/07/2014  22:15:00      -53.846      -17.593       -9.811       10.394       10.348        8.516      108.035      107.084       72.516        0.180        0.014       56.647        6.512        0.013      334.821        5.047      866.098
12/07/2014  22:16:00      -67.447       -2.138       -9.038       22.193       16.698       15.536      492.513      278.809      241.359        0.282        0.051       67.481       11.845        0.031      334.915        5.205      866.098
12/07/2014  22:17:00      -76.122       19.585      -10.865       19.926       17.827       11.581      397.062      317.808      134.114        0.357        0.042       78.601       10.488        0.018      335.248        5.756      866.101
12/07/2014  22:18:00      -69.425       44.190      -14.616       21.126       24.354       17.404      446.320      593.130      302.883        0.416        0.067       82.296       11.210        0.019      335.533        6.230      866.099
12/07/2014  22:19:00      -63.473        1.065       -8.210       10.763       16.249        8.042      115.838      264.046       64.670        0.227        0.022       63.482        3.964        0.004      335.322        5.879      866.097
12/07/2014  22:20:00      -71.551      -27.405      -11.860       12.037       17.415        9.505      144.897      303.296       90.338        0.327        0.027       76.619        4.746        0.004      335.054        5.433      866.106
12/07/2014  22:21:00      -48.735      -37.364       -4.182       34.627       15.841       16.139     1199.030      250.948      260.472        0.275        0.086       61.410       18.427        0.090      334.904        5.184      866.102
12/07/2014  22:22:00      -39.878      -40.071       -0.736       29.474       17.361       17.559      868.726      301.397      308.330        0.234        0.074       56.533       13.843        0.060      334.882        5.149      866.117
12/07/2014  22:23:00      -40.370       -7.153       -6.664       14.623       23.576       11.113      213.819      555.847      123.508        0.131        0.045       40.999        8.622        0.044      334.986        5.322      866.121
12/07/2014  22:24:00      -11.195       30.117       -3.051       36.800       16.060       11.566     1354.276      257.910      133.769        0.139        0.087       32.130       14.020        0.190      335.431        6.059      866.118
12/07/2014  22:25:00       13.711       58.209       -6.204        8.776       13.704        6.643       77.024      187.800       44.124        0.196        0.015       59.802        7.033        0.014      335.667        6.453      866.117
12/07/2014  22:26:00       19.775       16.962        0.220       10.783       13.348        9.212      116.267      178.180       84.855        0.053        0.019       26.053        8.254        0.100      335.566        6.283      866.134
12/07/2014  22:27:00       30.329       19.105       -2.811        7.440        9.581        7.965       55.354       91.788       63.447        0.075        0.011       35.845        7.093        0.039      335.661        6.446      866.145
12/07/2014  22:28:00       26.001        9.448        5.846        6.998        8.129        6.984       48.967       66.077       48.777        0.048        0.008       27.664        5.752        0.043      335.544        6.248      866.151
12/07/2014  22:29:00       21.896        9.407       -0.345        6.534        3.521        3.243       42.692       12.399       10.519        0.032        0.003       23.831        1.986        0.007      335.589        6.325      866.137
12/07/2014  22:30:00       -0.899        0.551       -3.505        7.457        3.061        3.562       55.610        9.368       12.687        0.005        0.004        1.055        2.550        5.844      335.541        6.245      866.131
12/07/2014  22:31:00      -44.159      -34.566      -10.249       18.176       14.414        8.089      330.382      207.753       65.431        0.193        0.030       56.079        9.064        0.026      335.245        5.749      866.138
12/07/2014  22:32:00      -94.843      -36.068       -7.356       17.567        6.022        6.221      308.602       36.264       38.699        0.537        0.019      101.470        5.761        0.003      335.031        5.396      866.150
12/07/2014  22:33:00     -105.360      -62.124      -11.866       32.624       20.578       16.544     1064.357      423.468      273.712        0.843        0.088      122.312        6.235        0.003      334.925        5.219      866.154
12/07/2014  22:34:00     -111.041      -89.334        3.963       47.407       41.384       29.724     2247.469     1712.617      883.505        1.258        0.242      142.516       29.209        0.042      335.010        5.361      866.137
12/07/2014  22:35:00     -123.754      -55.184       -0.507       45.963       43.052       21.540     2112.619     1853.489      463.953        1.139        0.222      135.500       20.545        0.023      335.009        5.360      866.131
12/07/2014  22:36:00     -142.701      -33.252       -6.569       30.806       30.033       22.254      949.005      901.956      495.257        1.193        0.117      146.524       17.174        0.014      334.978        5.308      866.163
12/07/2014  22:37:00     -102.865      -41.022       -1.651       36.811       25.207       16.377     1355.049      635.382      268.199        0.726        0.113      110.743       13.907        0.016      334.938        5.241      866.191
12/07/2014  22:38:00     -113.026      -33.221      -11.287       22.893       17.999       13.648      524.089      323.972      186.262        0.752        0.052      117.808       10.463        0.008      335.029        5.392      866.216
12/07/2014  22:39:00      -95.781      -38.143      -11.983       16.708       18.042       11.224      279.161      325.520      125.977        0.575        0.037      103.097        7.758        0.006      335.102        5.513      866.220
12/07/2014  22:40:00      -77.379      -28.314       -3.996       20.646        8.319        8.381      426.271       69.200       70.239        0.369        0.028       82.396       10.782        0.017      335.090        5.494      866.206
12/07/2014  22:41:00      -67.291      -24.947       -8.958       10.982       13.137        8.063      120.597      172.572       65.009        0.279        0.018       71.766        6.544        0.008      335.121        5.545      866.197
12/07/2014  22:42:00      -71.545      -21.204       -8.163        9.973       10.860        8.192       99.463      117.936       67.107        0.296        0.014       74.621        7.490        0.010      335.168        5.623      866.195
12/07/2014  22:43:00      -56.709      -27.284        2.808       17.945       12.487       11.969      322.030      155.934      143.245        0.229        0.031       62.931       10.620        0.028      335.053        5.431      866.205
12/07/2014  22:44:00      -54.983      -34.995        8.286       35.892       20.348       17.107     1288.271      414.024      292.664        0.316        0.100       65.175       18.017        0.076      334.972        5.297      866.205
12/07/2014  22:45:00     -118.290      -22.134      -14.628       17.657       18.077       12.180      311.759      326.794      148.353        0.774        0.039      120.343        8.806        0.005      334.855        5.103      866.214
12/07/2014  22:46:00     -128.164        5.630       -6.716       48.955       40.414       23.431     2396.585     1633.295      549.034        1.054        0.229      128.288       20.990        0.027      334.681        4.814      866.240
12/07/2014  22:47:00      -83.038      -11.557        1.319       51.691       42.461       31.472     2671.930     1802.933      990.499        0.625        0.273       83.838       30.461        0.132      334.551        4.598      866.285
12/07/2014  22:48:00     -135.459      -37.885       -8.314       50.324       35.696       24.804     2532.515     1274.212      615.254        1.214        0.221      140.657       22.208        0.025      334.585        4.654      866.348
12/07/2014  22:49:00      -79.927      -45.069       -3.673       41.754       49.731       29.310     1743.379     2473.168      859.058        0.675        0.254       91.758       26.895        0.086      334.660        4.778      866.395
12/07/2014  22:50:00      -83.640      -13.362      -14.221       33.262       25.132       13.685     1106.346      631.612      187.282        0.465        0.096       84.701       14.430        0.029      334.674        4.803      866.408
12/07/2014  22:51:00      -67.492        0.758       -9.475       30.422       30.701       19.171      925.521      942.570      367.542        0.344        0.112       67.496       15.004        0.049      334.580        4.646      866.403
12/07/2014  22:52:00      -50.426       13.815      -15.910       16.357       19.498       13.438      267.544      380.182      180.588        0.191        0.041       52.285       11.082        0.045      334.812        5.032      866.416
12/07/2014  22:53:00      -53.537       -9.465      -10.340       10.179       18.778       12.125      103.609      352.627      147.026        0.183        0.030       54.367        6.171        0.013      334.737        4.907      866.433
12/07/2014  22:54:00      -73.216      -35.190      -19.320       12.561       12.931       11.171      157.786      167.209      124.782        0.371        0.022       81.233        5.068        0.004      334.649        4.760      866.457
12/07/2014  22:55:00      -59.556      -39.668      -12.223       15.089       14.197       11.890      227.665      201.556      141.363        0.292        0.029       71.557        4.285        0.004      334.612        4.701      866.476
12/07/2014  22:56:00      -66.978      -22.565      -17.415       22.121       17.588       12.710      489.355      309.322      161.544        0.313        0.048       70.677       11.574        0.027      334.643        4.751      866.480
12/07/2014  22:57:00      -75.422      -33.659      -14.862       18.001       15.875       12.457      324.040      252.019      155.168        0.389        0.037       82.592       10.083        0.015      334.620        4.714      866.479
12/07/2014  22:58:00      -68.427      -21.093      -11.224       15.117       16.234       10.366      228.538      263.530      107.444        0.293        0.030       71.604        9.373        0.017      334.553        4.602      866.479
12/07/2014  22:59:00      -77.899      -26.684       -7.750       24.696       21.751       16.936      609.868      473.098      286.814        0.410        0.068       82.343       10.196        0.015      334.545        4.589      866.475
12/07/2014  23:00:00     -108.553      -36.237      -10.306       24.705       25.879       14.571      610.341      669.698      212.313        0.735        0.075      114.441       12.977        0.013      334.601        4.681      866.489
12/07/2014  23:01:00      -30.774      -40.981       10.240       42.251       28.721       22.734     1785.105      824.895      516.837        0.293        0.156       51.249       25.044        0.239      334.535        4.572      866.515
12/07/2014  23:02:00     -124.426      -65.435      -14.724       57.246       33.795       30.434     3277.099     1142.090      926.204        1.266        0.267      140.583       28.788        0.042      334.463        4.453      866.535
12/07/2014  23:03:00     -113.455      -37.278        2.733       49.094       43.105       26.918     2410.188     1858.059      724.574        0.963        0.250      119.422       22.726        0.036      334.454        4.437      866.531
12/07/2014  23:04:00     -112.941      -26.729       -5.476       34.726       21.542       19.873     1205.895      464.067      394.920        0.778        0.103      116.061       17.840        0.024      334.454        4.438      866.508
12/07/2014  23:05:00      -91.050      -46.245        0.102       35.116       20.971       15.814     1233.152      439.800      250.096        0.618        0.096      102.122       14.254        0.019      334.438        4.411      866.501
12/07/2014  23:06:00     -103.547      -51.124       -2.822       28.839       21.440       15.791      831.709      459.659      249.366        0.744        0.077      115.480       14.826        0.016      334.490        4.497      866.520
12/07/2014  23:07:00     -109.207      -56.508        3.021       40.118       31.810       18.686     1609.455     1011.844      349.176        0.905        0.149      122.961       13.876        0.013      334.506        4.524      866.548
12/07/2014  23:08:00     -130.814      -34.067       -6.053       30.260       23.375       15.975      915.678      546.399      255.190        1.001        0.086      135.177       14.589        0.012      334.518        4.542      866.552
12/07/2014  23:09:00      -85.305       -7.679       -5.845       36.240       25.887       15.762     1313.315      670.120      248.436        0.480        0.112       85.650       17.174        0.040      334.480        4.481      866.528
12/07/2014  23:10:00      -52.740      -25.712       -0.424       27.946       14.867       12.902      780.962      221.030      166.453        0.231        0.058       58.674       14.853        0.064      334.488        4.493      866.503
12/07/2014  23:11:00      -51.374       -7.407       -1.432       23.969       20.171       13.773      574.496      406.876      189.682        0.193        0.059       51.905       11.549        0.050      334.598        4.677      866.478
12/07/2014  23:12:00      -74.511       -3.772      -14.389       10.717       11.157        7.773      114.858      124.488       60.420        0.304        0.015       74.606        6.491        0.008      334.808        5.026      866.486
12/07/2014  23:13:00      -89.768      -26.676      -14.478       22.996       20.084       12.019      528.833      403.358      144.458        0.503        0.054       93.647        5.178        0.003      334.718        4.875      866.517
12/07/2014  23:14:00      -69.681      -28.484       -9.010       23.653       28.197       15.967      559.454      795.097      254.935        0.368        0.080       75.278       13.656        0.033      334.618        4.709      866.559
12/07/2014  23:15:00      -81.776      -13.667       -9.277       17.240       13.921       13.692      297.229      193.791      187.473        0.382        0.034       82.910       11.011        0.018      334.668        4.793      866.573
12/07/2014  23:16:00      -60.014      -17.156       -8.381       15.357       11.997       10.696      235.828      143.933      114.395        0.223        0.025       62.418        9.991        0.026      334.562        4.617      866.553
12/07/2014  23:17:00      -92.715        8.684      -13.086       22.413       20.449       12.911      502.337      418.171      166.687        0.496        0.054       93.121        9.501        0.010      334.610        4.697      866.507
12/07/2014  23:18:00      -84.359      -12.390      -15.233       17.818       18.563        9.702      317.494      344.589       94.134        0.413        0.038       85.264        8.127        0.009      334.652        4.766      866.458
12/07/2014  23:19:00      -91.840      -36.879      -16.888       15.314       14.628        8.607      234.527      213.986       74.080        0.530        0.026       98.968        6.665        0.005      334.614        4.702      866.426
12/07/2014  23:20:00      -90.391      -38.077      -18.191       19.115       15.279       10.319      365.373      233.434      106.490        0.533        0.035       98.084        1.679        0.000      334.561        4.614      866.414
12/07/2014  23:21:00      -88.850      -48.786      -16.401       21.934       15.069        9.616      481.085      227.073       92.469        0.567        0.040      101.363        9.065        0.008      334.566        4.621      866.415
12/07/2014  23:22:00     -121.808      -44.482      -19.059       24.250       17.503       12.707      588.051      306.356      161.471        0.912        0.053      129.676        3.544        0.001      334.574        4.636      866.408
12/07/2014  23:23:00     -139.384      -43.547      -14.779       24.913       20.412       15.207      620.674      416.659      231.265        1.141        0.063      146.028       13.861        0.009      334.592        4.666      866.405
12/07/2014  23:24:00     -124.126      -58.466      -12.117       16.938       21.154       15.029      286.906      447.508      225.862        0.997        0.048      137.206        9.925        0.005      334.586        4.656      866.407
12/07/2014  23:25:00     -109.679      -30.948      -10.883       19.916       15.213       13.584      396.661      231.447      184.534        0.696        0.041      113.962        7.332        0.004      334.576        4.640      866.417
12/07/2014  23:26:00      -91.176      -29.111       -7.570       17.173       13.959       11.735      294.927      194.859      137.718        0.492        0.031       95.711        6.431        0.005      334.589        4.662      866.409
12/07/2014  23:27:00      -56.470      -21.617       -1.624       17.168       10.625       12.248      294.733      112.884      150.022        0.211        0.028       60.466        7.798        0.017      334.578        4.642      866.416
12/07/2014  23:28:00      -40.257      -22.444       -1.612       13.827        8.939        6.389      191.190       79.906       40.825        0.122        0.016       46.091        5.329        0.013      334.612        4.700      866.446
12/07/2014  23:29:00      -13.698       -6.919        2.758        8.266       12.883        3.823       68.327      165.967       14.612        0.025        0.012       15.346        4.936        0.103      334.658        4.778      866.488
12/07/2014  23:30:00      -16.356        9.892       -0.873       13.408       16.591       15.659      179.769      275.254      245.202        0.053        0.035       19.115       12.333        0.416      334.731        4.897      866.503
12/07/2014  23:31:00       -8.007       13.836        5.349       16.696        8.363        7.615      278.757       69.939       57.986        0.035        0.020       15.986        6.225        0.152      334.607        4.692      866.499
12/07/2014  23:32:00      -82.444        4.384       -8.742       13.527       10.076        7.315      182.985      101.521       53.514        0.362        0.017       82.561        2.680        0.001      334.497        4.508      866.479
12/07/2014  23:33:00      -95.561       -0.989      -14.793       13.373       14.134        7.739      178.834      199.762       59.887        0.490        0.022       95.566        1.171        0.000      334.340        4.250      866.470
12/07/2014  23:34:00      -55.535      -23.561       -4.826       21.683       16.777       13.547      470.160      281.456      183.517        0.230        0.047       60.326       11.082        0.034      334.233        4.070      866.478
12/07/2014  23:35:00      -85.105       22.034       -9.376       48.898       26.130       18.457     2391.009      682.776      340.651        0.561        0.171       87.911       19.452        0.049      334.476        4.474      866.506
12/07/2014  23:36:00      -77.639       -3.130       -8.823       33.017       28.555       19.733     1090.121      815.388      389.410        0.420        0.115       77.702       18.466        0.056      334.438        4.411      866.541
12/07/2014  23:37:00      -70.058      -30.322       -0.650       26.697       28.193       17.493      712.706      794.872      305.994        0.382        0.091       76.338        8.634        0.013      334.392        4.335      866.580
12/07/2014  23:38:00      -41.076      -35.421        5.269       31.016       17.264       15.904      962.021      298.036      252.925        0.224        0.076       54.239       10.920        0.041      334.373        4.305      866.597
12/07/2014  23:39:00      -53.974      -20.653       -1.162       24.849       14.014       12.969      617.497      196.394      168.195        0.216        0.049       57.791       14.167        0.060      334.398        4.345      866.600
12/07/2014  23:40:00      -52.597       -2.667       -8.522       22.317       13.232        9.844      498.038      175.089       96.897        0.181        0.039       52.665        1.951        0.001      334.404        4.355      866.585
12/07/2014  23:41:00      -58.495        5.550       -9.188       19.875       15.548       12.957      395.016      241.756      167.887        0.217        0.040       58.758        7.474        0.016      334.439        4.411      866.562
12/07/2014  23:42:00      -44.144       -0.895       -6.193        8.693        8.383        8.323       75.561       70.275       69.276        0.110        0.011       44.153        5.628        0.016      334.415        4.375      866.550
12/07/2014  23:43:00      -42.968      -24.700      -12.988       11.819       14.168       11.048      139.683      200.718      122.065        0.154        0.023       49.561        2.497        0.003      334.361        4.284      866.557
12/07/2014  23:44:00      -36.277      -17.877       -4.302       23.277       13.545        6.372      541.823      183.455       40.607        0.121        0.038       40.443        5.471        0.018      334.439        4.414      866.572
12/07/2014  23:45:00      -35.467       -9.490       -8.617        8.184        8.263        7.142       66.976       68.283       51.003        0.080        0.009       36.715        2.736        0.006      334.621        4.714      866.575
12/07/2014  23:46:00      -20.909      -14.955        0.039        8.651        7.803        8.371       74.831       60.880       70.072        0.043        0.010       25.706        6.328        0.061      334.796        5.005      866.548
12/07/2014  23:47:00      -26.679        0.088       -4.616        7.754        8.473        6.916       60.126       71.787       47.833        0.046        0.009       26.679        5.012        0.035      334.801        5.014      866.499
12/07/2014  23:48:00      -24.545       17.231       -4.582       16.752       12.412        5.967      280.621      154.069       35.600        0.070        0.024       29.990        4.963        0.027      334.802        5.016      866.451
12/07/2014  23:49:00       15.344       88.470       -4.623       14.556       31.565       11.106      211.890      996.362      123.335        0.471        0.067       89.791       10.765        0.014      335.106        5.519      866.417
12/07/2014  23:50:00       25.869       53.609       -3.537       24.141       36.810       20.774      582.803     1354.962      431.564        0.296        0.118       59.524       19.704        0.110      334.852        5.100      866.408
12/07/2014  23:51:00       57.736       29.860        4.965       17.667       15.900       11.787      312.131      252.804      138.935        0.248        0.035       65.001        8.456        0.017      334.889        5.160      866.411
12/07/2014  23:52:00       39.359        1.912        8.524       18.789       13.673       14.587      353.034      186.958      212.782        0.119        0.038       39.406       11.933        0.092      334.744        4.919      866.416
12/07/2014  23:53:00       13.590       10.216       17.697       14.152       11.165        9.449      200.273      124.653       89.281        0.051        0.021       17.002        9.065        0.284      334.678        4.808      866.407
12/07/2014  23:54:00       17.786      -18.608        5.471       11.425       22.378        8.393      130.522      500.754       70.436        0.070        0.035       25.741       11.942        0.215      334.778        4.975      866.383
12/07/2014  23:55:00      -46.535      -14.253       -3.358       21.074       10.806        8.704      444.126      116.765       75.765        0.151        0.032       48.669        8.877        0.033      334.549        4.597      866.356
12/07/2014  23:56:00      -68.322      -22.206       -6.591       13.713       16.280        6.683      188.052      265.046       44.669        0.285        0.025       71.840        3.835        0.003      334.523        4.551      866.308
12/07/2014  23:57:00      -51.697      -35.174       -8.805       13.568       13.400        9.389      184.104      179.559       88.153        0.222        0.023       62.529        5.806        0.009      334.352        4.268      866.282
12/07/2014  23:58:00      -52.549      -36.013       -8.455        9.728       13.329        8.088       94.625      177.668       65.415        0.223        0.017       63.706        5.714        0.008      334.543        4.584      866.278
12/07/2014  23:59:00      -17.483      -36.550       -8.666       11.373       16.407        6.579      129.347      269.177       43.285        0.108        0.022       40.516        4.009        0.010      334.512        4.534      866.271
